<?xml version="1.0" encoding="UTF-8" standalone="no" ?>
<gpx xmlns="http://www.topografix.com/GPX/1/1" xmlns:xsi="http://www.w3.org/2001/XMLSchema-instance" xsi:schemaLocation="http://www.topografix.com/GPX/1/1 http://www.topografix.com/GPX/1/1/gpx.xsd" version="1.1" creator="VisuGPX - https://www.visugpx.com">
  <metadata>
    <name>geocaching dans les En Bullas</name>
    <desc><![CDATA[Pour cette dernière journée de vacances une marche de 8,7 km pour faire 3 caches. Belle balade]]></desc>
  </metadata>
  <trk>
    <name><![CDATA[001-2013/08/02-15:07:31]]></name>
    <trkseg>
      <trkpt lat="42.57858" lon="2.38995">
        <ele>763</ele>
        <time>2013-08-02T13:07:31Z</time>
      </trkpt>
      <trkpt lat="42.57882" lon="2.38974">
        <ele>753</ele>
        <time>2013-08-02T13:07:51Z</time>
      </trkpt>
      <trkpt lat="42.57888" lon="2.38969">
        <ele>751</ele>
        <time>2013-08-02T13:07:54Z</time>
      </trkpt>
      <trkpt lat="42.57892" lon="2.38967">
        <ele>750</ele>
        <time>2013-08-02T13:07:56Z</time>
      </trkpt>
      <trkpt lat="42.57894" lon="2.38964">
        <ele>748</ele>
        <time>2013-08-02T13:08:00Z</time>
      </trkpt>
      <trkpt lat="42.57895" lon="2.38962">
        <ele>748</ele>
        <time>2013-08-02T13:08:02Z</time>
      </trkpt>
      <trkpt lat="42.57896" lon="2.38961">
        <ele>748</ele>
        <time>2013-08-02T13:08:05Z</time>
      </trkpt>
      <trkpt lat="42.57884" lon="2.38956">
        <ele>748</ele>
        <time>2013-08-02T13:08:23Z</time>
      </trkpt>
      <trkpt lat="42.57889" lon="2.38954">
        <ele>748</ele>
        <time>2013-08-02T13:08:26Z</time>
      </trkpt>
      <trkpt lat="42.57893" lon="2.38952">
        <ele>749</ele>
        <time>2013-08-02T13:08:29Z</time>
      </trkpt>
      <trkpt lat="42.57897" lon="2.38949">
        <ele>751</ele>
        <time>2013-08-02T13:08:31Z</time>
      </trkpt>
      <trkpt lat="42.57901" lon="2.38947">
        <ele>752</ele>
        <time>2013-08-02T13:08:35Z</time>
      </trkpt>
      <trkpt lat="42.57907" lon="2.38942">
        <ele>752</ele>
        <time>2013-08-02T13:08:39Z</time>
      </trkpt>
      <trkpt lat="42.58295" lon="2.38855">
        <ele>749</ele>
        <time>2013-08-02T13:13:30Z</time>
      </trkpt>
      <trkpt lat="42.58289" lon="2.38861">
        <ele>721</ele>
        <time>2013-08-02T13:13:33Z</time>
      </trkpt>
      <trkpt lat="42.58304" lon="2.38859">
        <ele>708</ele>
        <time>2013-08-02T13:13:43Z</time>
      </trkpt>
      <trkpt lat="42.583" lon="2.38863">
        <ele>684</ele>
        <time>2013-08-02T13:13:46Z</time>
      </trkpt>
      <trkpt lat="42.58301" lon="2.38864">
        <ele>674</ele>
        <time>2013-08-02T13:13:49Z</time>
      </trkpt>
      <trkpt lat="42.58303" lon="2.38867">
        <ele>674</ele>
        <time>2013-08-02T13:13:52Z</time>
      </trkpt>
      <trkpt lat="42.58294" lon="2.38875">
        <ele>677</ele>
        <time>2013-08-02T13:13:54Z</time>
      </trkpt>
      <trkpt lat="42.58291" lon="2.38879">
        <ele>692</ele>
        <time>2013-08-02T13:13:57Z</time>
      </trkpt>
      <trkpt lat="42.5829" lon="2.38881">
        <ele>713</ele>
        <time>2013-08-02T13:14:00Z</time>
      </trkpt>
      <trkpt lat="42.58291" lon="2.38883">
        <ele>731</ele>
        <time>2013-08-02T13:14:03Z</time>
      </trkpt>
      <trkpt lat="42.58296" lon="2.38881">
        <ele>744</ele>
        <time>2013-08-02T13:14:06Z</time>
      </trkpt>
      <trkpt lat="42.583" lon="2.38881">
        <ele>754</ele>
        <time>2013-08-02T13:14:11Z</time>
      </trkpt>
      <trkpt lat="42.58303" lon="2.38883">
        <ele>757</ele>
        <time>2013-08-02T13:14:14Z</time>
      </trkpt>
      <trkpt lat="42.58305" lon="2.38883">
        <ele>763</ele>
        <time>2013-08-02T13:14:17Z</time>
      </trkpt>
      <trkpt lat="42.58308" lon="2.38886">
        <ele>767</ele>
        <time>2013-08-02T13:14:21Z</time>
      </trkpt>
      <trkpt lat="42.58311" lon="2.38886">
        <ele>768</ele>
        <time>2013-08-02T13:14:24Z</time>
      </trkpt>
      <trkpt lat="42.58313" lon="2.38886">
        <ele>768</ele>
        <time>2013-08-02T13:14:27Z</time>
      </trkpt>
      <trkpt lat="42.58317" lon="2.38887">
        <ele>768</ele>
        <time>2013-08-02T13:14:30Z</time>
      </trkpt>
      <trkpt lat="42.58319" lon="2.38888">
        <ele>768</ele>
        <time>2013-08-02T13:14:32Z</time>
      </trkpt>
      <trkpt lat="42.58324" lon="2.38889">
        <ele>768</ele>
        <time>2013-08-02T13:14:36Z</time>
      </trkpt>
      <trkpt lat="42.58328" lon="2.38889">
        <ele>768</ele>
        <time>2013-08-02T13:14:38Z</time>
      </trkpt>
      <trkpt lat="42.58331" lon="2.38888">
        <ele>768</ele>
        <time>2013-08-02T13:14:44Z</time>
      </trkpt>
      <trkpt lat="42.58333" lon="2.38889">
        <ele>768</ele>
        <time>2013-08-02T13:14:47Z</time>
      </trkpt>
      <trkpt lat="42.58338" lon="2.38889">
        <ele>768</ele>
        <time>2013-08-02T13:14:51Z</time>
      </trkpt>
      <trkpt lat="42.58342" lon="2.38889">
        <ele>768</ele>
        <time>2013-08-02T13:14:53Z</time>
      </trkpt>
      <trkpt lat="42.58345" lon="2.38889">
        <ele>768</ele>
        <time>2013-08-02T13:14:56Z</time>
      </trkpt>
      <trkpt lat="42.58348" lon="2.38889">
        <ele>768</ele>
        <time>2013-08-02T13:14:59Z</time>
      </trkpt>
      <trkpt lat="42.5835" lon="2.38889">
        <ele>768</ele>
        <time>2013-08-02T13:15:02Z</time>
      </trkpt>
      <trkpt lat="42.58355" lon="2.38889">
        <ele>768</ele>
        <time>2013-08-02T13:15:06Z</time>
      </trkpt>
      <trkpt lat="42.58359" lon="2.38889">
        <ele>768</ele>
        <time>2013-08-02T13:15:10Z</time>
      </trkpt>
      <trkpt lat="42.58366" lon="2.38889">
        <ele>768</ele>
        <time>2013-08-02T13:15:15Z</time>
      </trkpt>
      <trkpt lat="42.5837" lon="2.38889">
        <ele>768</ele>
        <time>2013-08-02T13:15:19Z</time>
      </trkpt>
      <trkpt lat="42.58376" lon="2.38889">
        <ele>768</ele>
        <time>2013-08-02T13:15:24Z</time>
      </trkpt>
      <trkpt lat="42.58381" lon="2.38887">
        <ele>768</ele>
        <time>2013-08-02T13:15:28Z</time>
      </trkpt>
      <trkpt lat="42.58387" lon="2.38884">
        <ele>768</ele>
        <time>2013-08-02T13:15:33Z</time>
      </trkpt>
      <trkpt lat="42.58393" lon="2.38881">
        <ele>768</ele>
        <time>2013-08-02T13:15:38Z</time>
      </trkpt>
      <trkpt lat="42.58394" lon="2.38879">
        <ele>768</ele>
        <time>2013-08-02T13:15:40Z</time>
      </trkpt>
      <trkpt lat="42.58397" lon="2.38877">
        <ele>768</ele>
        <time>2013-08-02T13:15:43Z</time>
      </trkpt>
      <trkpt lat="42.58401" lon="2.38873">
        <ele>768</ele>
        <time>2013-08-02T13:15:48Z</time>
      </trkpt>
      <trkpt lat="42.58404" lon="2.38869">
        <ele>768</ele>
        <time>2013-08-02T13:15:50Z</time>
      </trkpt>
      <trkpt lat="42.58405" lon="2.38868">
        <ele>768</ele>
        <time>2013-08-02T13:15:53Z</time>
      </trkpt>
      <trkpt lat="42.58411" lon="2.38856">
        <ele>768</ele>
        <time>2013-08-02T13:16:00Z</time>
      </trkpt>
      <trkpt lat="42.58414" lon="2.38852">
        <ele>768</ele>
        <time>2013-08-02T13:16:05Z</time>
      </trkpt>
      <trkpt lat="42.58415" lon="2.38846">
        <ele>768</ele>
        <time>2013-08-02T13:16:07Z</time>
      </trkpt>
      <trkpt lat="42.58416" lon="2.38841">
        <ele>768</ele>
        <time>2013-08-02T13:16:11Z</time>
      </trkpt>
      <trkpt lat="42.58418" lon="2.38837">
        <ele>768</ele>
        <time>2013-08-02T13:16:13Z</time>
      </trkpt>
      <trkpt lat="42.58419" lon="2.38834">
        <ele>768</ele>
        <time>2013-08-02T13:16:16Z</time>
      </trkpt>
      <trkpt lat="42.58422" lon="2.38829">
        <ele>768</ele>
        <time>2013-08-02T13:16:20Z</time>
      </trkpt>
      <trkpt lat="42.58425" lon="2.38823">
        <ele>768</ele>
        <time>2013-08-02T13:16:24Z</time>
      </trkpt>
      <trkpt lat="42.58427" lon="2.38818">
        <ele>768</ele>
        <time>2013-08-02T13:16:28Z</time>
      </trkpt>
      <trkpt lat="42.5843" lon="2.38814">
        <ele>768</ele>
        <time>2013-08-02T13:16:30Z</time>
      </trkpt>
      <trkpt lat="42.5843" lon="2.38811">
        <ele>768</ele>
        <time>2013-08-02T13:16:33Z</time>
      </trkpt>
      <trkpt lat="42.58432" lon="2.38807">
        <ele>768</ele>
        <time>2013-08-02T13:16:35Z</time>
      </trkpt>
      <trkpt lat="42.58435" lon="2.38803">
        <ele>768</ele>
        <time>2013-08-02T13:16:39Z</time>
      </trkpt>
      <trkpt lat="42.58438" lon="2.38798">
        <ele>768</ele>
        <time>2013-08-02T13:16:43Z</time>
      </trkpt>
      <trkpt lat="42.5844" lon="2.38795">
        <ele>768</ele>
        <time>2013-08-02T13:16:45Z</time>
      </trkpt>
      <trkpt lat="42.58442" lon="2.38791">
        <ele>768</ele>
        <time>2013-08-02T13:16:48Z</time>
      </trkpt>
      <trkpt lat="42.58445" lon="2.38785">
        <ele>768</ele>
        <time>2013-08-02T13:16:51Z</time>
      </trkpt>
      <trkpt lat="42.58443" lon="2.38777">
        <ele>768</ele>
        <time>2013-08-02T13:16:56Z</time>
      </trkpt>
      <trkpt lat="42.58445" lon="2.38775">
        <ele>768</ele>
        <time>2013-08-02T13:16:59Z</time>
      </trkpt>
      <trkpt lat="42.58448" lon="2.3877">
        <ele>768</ele>
        <time>2013-08-02T13:17:05Z</time>
      </trkpt>
      <trkpt lat="42.58451" lon="2.38764">
        <ele>768</ele>
        <time>2013-08-02T13:17:09Z</time>
      </trkpt>
      <trkpt lat="42.58455" lon="2.38758">
        <ele>768</ele>
        <time>2013-08-02T13:17:14Z</time>
      </trkpt>
      <trkpt lat="42.58457" lon="2.38753">
        <ele>768</ele>
        <time>2013-08-02T13:17:20Z</time>
      </trkpt>
      <trkpt lat="42.5846" lon="2.38745">
        <ele>768</ele>
        <time>2013-08-02T13:17:24Z</time>
      </trkpt>
      <trkpt lat="42.58462" lon="2.38741">
        <ele>768</ele>
        <time>2013-08-02T13:17:26Z</time>
      </trkpt>
      <trkpt lat="42.58462" lon="2.38737">
        <ele>768</ele>
        <time>2013-08-02T13:17:29Z</time>
      </trkpt>
      <trkpt lat="42.58464" lon="2.38731">
        <ele>768</ele>
        <time>2013-08-02T13:17:32Z</time>
      </trkpt>
      <trkpt lat="42.58466" lon="2.38728">
        <ele>768</ele>
        <time>2013-08-02T13:17:36Z</time>
      </trkpt>
      <trkpt lat="42.58468" lon="2.3872">
        <ele>768</ele>
        <time>2013-08-02T13:17:41Z</time>
      </trkpt>
      <trkpt lat="42.58468" lon="2.38712">
        <ele>767</ele>
        <time>2013-08-02T13:17:43Z</time>
      </trkpt>
      <trkpt lat="42.58469" lon="2.38709">
        <ele>767</ele>
        <time>2013-08-02T13:17:46Z</time>
      </trkpt>
      <trkpt lat="42.58469" lon="2.38703">
        <ele>767</ele>
        <time>2013-08-02T13:17:50Z</time>
      </trkpt>
      <trkpt lat="42.5847" lon="2.38693">
        <ele>767</ele>
        <time>2013-08-02T13:17:55Z</time>
      </trkpt>
      <trkpt lat="42.5847" lon="2.38686">
        <ele>767</ele>
        <time>2013-08-02T13:17:59Z</time>
      </trkpt>
      <trkpt lat="42.5847" lon="2.38678">
        <ele>767</ele>
        <time>2013-08-02T13:18:04Z</time>
      </trkpt>
      <trkpt lat="42.58469" lon="2.38673">
        <ele>767</ele>
        <time>2013-08-02T13:18:06Z</time>
      </trkpt>
      <trkpt lat="42.58469" lon="2.3867">
        <ele>767</ele>
        <time>2013-08-02T13:18:09Z</time>
      </trkpt>
      <trkpt lat="42.58469" lon="2.38664">
        <ele>767</ele>
        <time>2013-08-02T13:18:11Z</time>
      </trkpt>
      <trkpt lat="42.5847" lon="2.38657">
        <ele>767</ele>
        <time>2013-08-02T13:18:15Z</time>
      </trkpt>
      <trkpt lat="42.5847" lon="2.38652">
        <ele>767</ele>
        <time>2013-08-02T13:18:19Z</time>
      </trkpt>
      <trkpt lat="42.5847" lon="2.38643">
        <ele>767</ele>
        <time>2013-08-02T13:18:24Z</time>
      </trkpt>
      <trkpt lat="42.58469" lon="2.38631">
        <ele>767</ele>
        <time>2013-08-02T13:18:30Z</time>
      </trkpt>
      <trkpt lat="42.58469" lon="2.38626">
        <ele>767</ele>
        <time>2013-08-02T13:18:33Z</time>
      </trkpt>
      <trkpt lat="42.58468" lon="2.38623">
        <ele>767</ele>
        <time>2013-08-02T13:18:35Z</time>
      </trkpt>
      <trkpt lat="42.58468" lon="2.38619">
        <ele>767</ele>
        <time>2013-08-02T13:18:38Z</time>
      </trkpt>
      <trkpt lat="42.58468" lon="2.38615">
        <ele>767</ele>
        <time>2013-08-02T13:18:41Z</time>
      </trkpt>
      <trkpt lat="42.58468" lon="2.38611">
        <ele>767</ele>
        <time>2013-08-02T13:18:43Z</time>
      </trkpt>
      <trkpt lat="42.58468" lon="2.38607">
        <ele>767</ele>
        <time>2013-08-02T13:18:45Z</time>
      </trkpt>
      <trkpt lat="42.58467" lon="2.38602">
        <ele>767</ele>
        <time>2013-08-02T13:18:48Z</time>
      </trkpt>
      <trkpt lat="42.58467" lon="2.38598">
        <ele>767</ele>
        <time>2013-08-02T13:18:50Z</time>
      </trkpt>
      <trkpt lat="42.58466" lon="2.38595">
        <ele>767</ele>
        <time>2013-08-02T13:18:52Z</time>
      </trkpt>
      <trkpt lat="42.58466" lon="2.3859">
        <ele>767</ele>
        <time>2013-08-02T13:18:54Z</time>
      </trkpt>
      <trkpt lat="42.58466" lon="2.38587">
        <ele>767</ele>
        <time>2013-08-02T13:18:56Z</time>
      </trkpt>
      <trkpt lat="42.58465" lon="2.38582">
        <ele>767</ele>
        <time>2013-08-02T13:18:59Z</time>
      </trkpt>
      <trkpt lat="42.58465" lon="2.38578">
        <ele>767</ele>
        <time>2013-08-02T13:19:02Z</time>
      </trkpt>
      <trkpt lat="42.58465" lon="2.38573">
        <ele>767</ele>
        <time>2013-08-02T13:19:04Z</time>
      </trkpt>
      <trkpt lat="42.58465" lon="2.38569">
        <ele>767</ele>
        <time>2013-08-02T13:19:06Z</time>
      </trkpt>
      <trkpt lat="42.58464" lon="2.38565">
        <ele>767</ele>
        <time>2013-08-02T13:19:08Z</time>
      </trkpt>
      <trkpt lat="42.58463" lon="2.3856">
        <ele>767</ele>
        <time>2013-08-02T13:19:11Z</time>
      </trkpt>
      <trkpt lat="42.58462" lon="2.38556">
        <ele>767</ele>
        <time>2013-08-02T13:19:14Z</time>
      </trkpt>
      <trkpt lat="42.5846" lon="2.38551">
        <ele>767</ele>
        <time>2013-08-02T13:19:18Z</time>
      </trkpt>
      <trkpt lat="42.58459" lon="2.38548">
        <ele>767</ele>
        <time>2013-08-02T13:19:20Z</time>
      </trkpt>
      <trkpt lat="42.58459" lon="2.38545">
        <ele>767</ele>
        <time>2013-08-02T13:19:22Z</time>
      </trkpt>
      <trkpt lat="42.58459" lon="2.3854">
        <ele>767</ele>
        <time>2013-08-02T13:19:25Z</time>
      </trkpt>
      <trkpt lat="42.58458" lon="2.38536">
        <ele>767</ele>
        <time>2013-08-02T13:19:28Z</time>
      </trkpt>
      <trkpt lat="42.58458" lon="2.38533">
        <ele>767</ele>
        <time>2013-08-02T13:19:30Z</time>
      </trkpt>
      <trkpt lat="42.58459" lon="2.38531">
        <ele>767</ele>
        <time>2013-08-02T13:19:32Z</time>
      </trkpt>
      <trkpt lat="42.58457" lon="2.38526">
        <ele>767</ele>
        <time>2013-08-02T13:19:37Z</time>
      </trkpt>
      <trkpt lat="42.58455" lon="2.3852">
        <ele>767</ele>
        <time>2013-08-02T13:19:40Z</time>
      </trkpt>
      <trkpt lat="42.58454" lon="2.38517">
        <ele>766</ele>
        <time>2013-08-02T13:19:42Z</time>
      </trkpt>
      <trkpt lat="42.58454" lon="2.38515">
        <ele>766</ele>
        <time>2013-08-02T13:19:45Z</time>
      </trkpt>
      <trkpt lat="42.58452" lon="2.38509">
        <ele>765</ele>
        <time>2013-08-02T13:19:47Z</time>
      </trkpt>
      <trkpt lat="42.58452" lon="2.38506">
        <ele>765</ele>
        <time>2013-08-02T13:19:49Z</time>
      </trkpt>
      <trkpt lat="42.58452" lon="2.38503">
        <ele>765</ele>
        <time>2013-08-02T13:19:51Z</time>
      </trkpt>
      <trkpt lat="42.58451" lon="2.38499">
        <ele>764</ele>
        <time>2013-08-02T13:19:55Z</time>
      </trkpt>
      <trkpt lat="42.58451" lon="2.38494">
        <ele>764</ele>
        <time>2013-08-02T13:19:57Z</time>
      </trkpt>
      <trkpt lat="42.58451" lon="2.38492">
        <ele>763</ele>
        <time>2013-08-02T13:19:59Z</time>
      </trkpt>
      <trkpt lat="42.5845" lon="2.38489">
        <ele>763</ele>
        <time>2013-08-02T13:20:02Z</time>
      </trkpt>
      <trkpt lat="42.58448" lon="2.38483">
        <ele>761</ele>
        <time>2013-08-02T13:20:05Z</time>
      </trkpt>
      <trkpt lat="42.58448" lon="2.38477">
        <ele>760</ele>
        <time>2013-08-02T13:20:08Z</time>
      </trkpt>
      <trkpt lat="42.58447" lon="2.38472">
        <ele>759</ele>
        <time>2013-08-02T13:20:11Z</time>
      </trkpt>
      <trkpt lat="42.58447" lon="2.38469">
        <ele>758</ele>
        <time>2013-08-02T13:20:14Z</time>
      </trkpt>
      <trkpt lat="42.58448" lon="2.38466">
        <ele>758</ele>
        <time>2013-08-02T13:20:18Z</time>
      </trkpt>
      <trkpt lat="42.58446" lon="2.38465">
        <ele>758</ele>
        <time>2013-08-02T13:20:32Z</time>
      </trkpt>
      <trkpt lat="42.58445" lon="2.38464">
        <ele>758</ele>
        <time>2013-08-02T13:20:38Z</time>
      </trkpt>
      <trkpt lat="42.58444" lon="2.38465">
        <ele>758</ele>
        <time>2013-08-02T13:20:52Z</time>
      </trkpt>
      <trkpt lat="42.58441" lon="2.38467">
        <ele>757</ele>
        <time>2013-08-02T13:20:55Z</time>
      </trkpt>
      <trkpt lat="42.58441" lon="2.38465">
        <ele>754</ele>
        <time>2013-08-02T13:21:01Z</time>
      </trkpt>
      <trkpt lat="42.58443" lon="2.38463">
        <ele>754</ele>
        <time>2013-08-02T13:21:04Z</time>
      </trkpt>
      <trkpt lat="42.58444" lon="2.38462">
        <ele>754</ele>
        <time>2013-08-02T13:21:07Z</time>
      </trkpt>
      <trkpt lat="42.58446" lon="2.38461">
        <ele>754</ele>
        <time>2013-08-02T13:21:10Z</time>
      </trkpt>
      <trkpt lat="42.58447" lon="2.3846">
        <ele>755</ele>
        <time>2013-08-02T13:21:13Z</time>
      </trkpt>
      <trkpt lat="42.58449" lon="2.3846">
        <ele>757</ele>
        <time>2013-08-02T13:21:16Z</time>
      </trkpt>
      <trkpt lat="42.58452" lon="2.38459">
        <ele>759</ele>
        <time>2013-08-02T13:21:19Z</time>
      </trkpt>
      <trkpt lat="42.58451" lon="2.38459">
        <ele>760</ele>
        <time>2013-08-02T13:21:22Z</time>
      </trkpt>
      <trkpt lat="42.58449" lon="2.3846">
        <ele>760</ele>
        <time>2013-08-02T13:21:25Z</time>
      </trkpt>
      <trkpt lat="42.58448" lon="2.38461">
        <ele>761</ele>
        <time>2013-08-02T13:21:32Z</time>
      </trkpt>
      <trkpt lat="42.58447" lon="2.38461">
        <ele>761</ele>
        <time>2013-08-02T13:21:35Z</time>
      </trkpt>
      <trkpt lat="42.58447" lon="2.3846">
        <ele>761</ele>
        <time>2013-08-02T13:21:39Z</time>
      </trkpt>
      <trkpt lat="42.58446" lon="2.3846">
        <ele>762</ele>
        <time>2013-08-02T13:21:43Z</time>
      </trkpt>
      <trkpt lat="42.58447" lon="2.38461">
        <ele>762</ele>
        <time>2013-08-02T13:21:48Z</time>
      </trkpt>
      <trkpt lat="42.58448" lon="2.38461">
        <ele>763</ele>
        <time>2013-08-02T13:21:51Z</time>
      </trkpt>
      <trkpt lat="42.58449" lon="2.38459">
        <ele>763</ele>
        <time>2013-08-02T13:21:54Z</time>
      </trkpt>
      <trkpt lat="42.58448" lon="2.38454">
        <ele>763</ele>
        <time>2013-08-02T13:21:57Z</time>
      </trkpt>
      <trkpt lat="42.58448" lon="2.38449">
        <ele>763</ele>
        <time>2013-08-02T13:22:00Z</time>
      </trkpt>
      <trkpt lat="42.58447" lon="2.38446">
        <ele>763</ele>
        <time>2013-08-02T13:22:02Z</time>
      </trkpt>
      <trkpt lat="42.58447" lon="2.38444">
        <ele>763</ele>
        <time>2013-08-02T13:22:04Z</time>
      </trkpt>
      <trkpt lat="42.58446" lon="2.38442">
        <ele>763</ele>
        <time>2013-08-02T13:22:10Z</time>
      </trkpt>
      <trkpt lat="42.58445" lon="2.3844">
        <ele>763</ele>
        <time>2013-08-02T13:22:20Z</time>
      </trkpt>
      <trkpt lat="42.58444" lon="2.38443">
        <ele>763</ele>
        <time>2013-08-02T13:22:27Z</time>
      </trkpt>
      <trkpt lat="42.58446" lon="2.38442">
        <ele>763</ele>
        <time>2013-08-02T13:22:30Z</time>
      </trkpt>
      <trkpt lat="42.58446" lon="2.38444">
        <ele>763</ele>
        <time>2013-08-02T13:22:33Z</time>
      </trkpt>
      <trkpt lat="42.58443" lon="2.38445">
        <ele>764</ele>
        <time>2013-08-02T13:22:37Z</time>
      </trkpt>
      <trkpt lat="42.58443" lon="2.38447">
        <ele>765</ele>
        <time>2013-08-02T13:22:41Z</time>
      </trkpt>
      <trkpt lat="42.58443" lon="2.38446">
        <ele>765</ele>
        <time>2013-08-02T13:22:53Z</time>
      </trkpt>
      <trkpt lat="42.58445" lon="2.38442">
        <ele>765</ele>
        <time>2013-08-02T13:22:56Z</time>
      </trkpt>
      <trkpt lat="42.58447" lon="2.38438">
        <ele>765</ele>
        <time>2013-08-02T13:22:59Z</time>
      </trkpt>
      <trkpt lat="42.5845" lon="2.38433">
        <ele>765</ele>
        <time>2013-08-02T13:23:03Z</time>
      </trkpt>
      <trkpt lat="42.58452" lon="2.3843">
        <ele>765</ele>
        <time>2013-08-02T13:23:05Z</time>
      </trkpt>
      <trkpt lat="42.58454" lon="2.38428">
        <ele>765</ele>
        <time>2013-08-02T13:23:07Z</time>
      </trkpt>
      <trkpt lat="42.58456" lon="2.38426">
        <ele>765</ele>
        <time>2013-08-02T13:23:09Z</time>
      </trkpt>
      <trkpt lat="42.58458" lon="2.38425">
        <ele>765</ele>
        <time>2013-08-02T13:23:11Z</time>
      </trkpt>
      <trkpt lat="42.58461" lon="2.38424">
        <ele>765</ele>
        <time>2013-08-02T13:23:13Z</time>
      </trkpt>
      <trkpt lat="42.58463" lon="2.38423">
        <ele>764</ele>
        <time>2013-08-02T13:23:15Z</time>
      </trkpt>
      <trkpt lat="42.58465" lon="2.38424">
        <ele>763</ele>
        <time>2013-08-02T13:23:17Z</time>
      </trkpt>
      <trkpt lat="42.58468" lon="2.38423">
        <ele>762</ele>
        <time>2013-08-02T13:23:20Z</time>
      </trkpt>
      <trkpt lat="42.58471" lon="2.38423">
        <ele>762</ele>
        <time>2013-08-02T13:23:22Z</time>
      </trkpt>
      <trkpt lat="42.58473" lon="2.38422">
        <ele>761</ele>
        <time>2013-08-02T13:23:24Z</time>
      </trkpt>
      <trkpt lat="42.58476" lon="2.38421">
        <ele>761</ele>
        <time>2013-08-02T13:23:27Z</time>
      </trkpt>
      <trkpt lat="42.58479" lon="2.38421">
        <ele>761</ele>
        <time>2013-08-02T13:23:30Z</time>
      </trkpt>
      <trkpt lat="42.58482" lon="2.38422">
        <ele>761</ele>
        <time>2013-08-02T13:23:32Z</time>
      </trkpt>
      <trkpt lat="42.58483" lon="2.38422">
        <ele>761</ele>
        <time>2013-08-02T13:23:34Z</time>
      </trkpt>
      <trkpt lat="42.58484" lon="2.38422">
        <ele>759</ele>
        <time>2013-08-02T13:23:41Z</time>
      </trkpt>
      <trkpt lat="42.58487" lon="2.38422">
        <ele>758</ele>
        <time>2013-08-02T13:23:44Z</time>
      </trkpt>
      <trkpt lat="42.5849" lon="2.38423">
        <ele>758</ele>
        <time>2013-08-02T13:23:46Z</time>
      </trkpt>
      <trkpt lat="42.58492" lon="2.38423">
        <ele>758</ele>
        <time>2013-08-02T13:23:48Z</time>
      </trkpt>
      <trkpt lat="42.58495" lon="2.38424">
        <ele>757</ele>
        <time>2013-08-02T13:23:50Z</time>
      </trkpt>
      <trkpt lat="42.58497" lon="2.38425">
        <ele>757</ele>
        <time>2013-08-02T13:23:52Z</time>
      </trkpt>
      <trkpt lat="42.585" lon="2.38426">
        <ele>757</ele>
        <time>2013-08-02T13:23:54Z</time>
      </trkpt>
      <trkpt lat="42.58502" lon="2.38427">
        <ele>757</ele>
        <time>2013-08-02T13:23:57Z</time>
      </trkpt>
      <trkpt lat="42.58501" lon="2.38428">
        <ele>755</ele>
        <time>2013-08-02T13:24:10Z</time>
      </trkpt>
      <trkpt lat="42.585" lon="2.38428">
        <ele>755</ele>
        <time>2013-08-02T13:24:13Z</time>
      </trkpt>
      <trkpt lat="42.58499" lon="2.38429">
        <ele>754</ele>
        <time>2013-08-02T13:24:18Z</time>
      </trkpt>
      <trkpt lat="42.585" lon="2.3843">
        <ele>754</ele>
        <time>2013-08-02T13:24:26Z</time>
      </trkpt>
      <trkpt lat="42.58502" lon="2.38431">
        <ele>754</ele>
        <time>2013-08-02T13:24:29Z</time>
      </trkpt>
      <trkpt lat="42.58506" lon="2.38432">
        <ele>754</ele>
        <time>2013-08-02T13:24:31Z</time>
      </trkpt>
      <trkpt lat="42.58509" lon="2.38433">
        <ele>754</ele>
        <time>2013-08-02T13:24:33Z</time>
      </trkpt>
      <trkpt lat="42.58511" lon="2.38434">
        <ele>754</ele>
        <time>2013-08-02T13:24:35Z</time>
      </trkpt>
      <trkpt lat="42.58514" lon="2.38436">
        <ele>754</ele>
        <time>2013-08-02T13:24:37Z</time>
      </trkpt>
      <trkpt lat="42.58517" lon="2.38438">
        <ele>754</ele>
        <time>2013-08-02T13:24:39Z</time>
      </trkpt>
      <trkpt lat="42.5852" lon="2.3844">
        <ele>754</ele>
        <time>2013-08-02T13:24:42Z</time>
      </trkpt>
      <trkpt lat="42.58523" lon="2.38442">
        <ele>754</ele>
        <time>2013-08-02T13:24:44Z</time>
      </trkpt>
      <trkpt lat="42.58525" lon="2.38444">
        <ele>754</ele>
        <time>2013-08-02T13:24:46Z</time>
      </trkpt>
      <trkpt lat="42.58529" lon="2.38448">
        <ele>754</ele>
        <time>2013-08-02T13:24:50Z</time>
      </trkpt>
      <trkpt lat="42.58531" lon="2.3845">
        <ele>754</ele>
        <time>2013-08-02T13:24:52Z</time>
      </trkpt>
      <trkpt lat="42.58535" lon="2.38453">
        <ele>753</ele>
        <time>2013-08-02T13:24:56Z</time>
      </trkpt>
      <trkpt lat="42.58538" lon="2.38455">
        <ele>753</ele>
        <time>2013-08-02T13:24:58Z</time>
      </trkpt>
      <trkpt lat="42.58541" lon="2.38458">
        <ele>753</ele>
        <time>2013-08-02T13:25:01Z</time>
      </trkpt>
      <trkpt lat="42.58543" lon="2.3846">
        <ele>753</ele>
        <time>2013-08-02T13:25:04Z</time>
      </trkpt>
      <trkpt lat="42.58547" lon="2.38463">
        <ele>753</ele>
        <time>2013-08-02T13:25:07Z</time>
      </trkpt>
      <trkpt lat="42.58549" lon="2.38465">
        <ele>753</ele>
        <time>2013-08-02T13:25:09Z</time>
      </trkpt>
      <trkpt lat="42.58554" lon="2.38468">
        <ele>752</ele>
        <time>2013-08-02T13:25:13Z</time>
      </trkpt>
      <trkpt lat="42.5856" lon="2.38471">
        <ele>752</ele>
        <time>2013-08-02T13:25:17Z</time>
      </trkpt>
      <trkpt lat="42.58561" lon="2.38473">
        <ele>752</ele>
        <time>2013-08-02T13:25:19Z</time>
      </trkpt>
      <trkpt lat="42.58562" lon="2.38477">
        <ele>750</ele>
        <time>2013-08-02T13:25:23Z</time>
      </trkpt>
      <trkpt lat="42.5856" lon="2.38479">
        <ele>749</ele>
        <time>2013-08-02T13:25:25Z</time>
      </trkpt>
      <trkpt lat="42.58559" lon="2.3848">
        <ele>747</ele>
        <time>2013-08-02T13:25:27Z</time>
      </trkpt>
      <trkpt lat="42.58561" lon="2.38481">
        <ele>745</ele>
        <time>2013-08-02T13:25:30Z</time>
      </trkpt>
      <trkpt lat="42.58563" lon="2.38481">
        <ele>745</ele>
        <time>2013-08-02T13:25:32Z</time>
      </trkpt>
      <trkpt lat="42.58566" lon="2.38483">
        <ele>745</ele>
        <time>2013-08-02T13:25:35Z</time>
      </trkpt>
      <trkpt lat="42.58567" lon="2.38484">
        <ele>745</ele>
        <time>2013-08-02T13:25:37Z</time>
      </trkpt>
      <trkpt lat="42.5857" lon="2.38486">
        <ele>745</ele>
        <time>2013-08-02T13:25:41Z</time>
      </trkpt>
      <trkpt lat="42.58573" lon="2.38486">
        <ele>745</ele>
        <time>2013-08-02T13:25:44Z</time>
      </trkpt>
      <trkpt lat="42.58576" lon="2.38487">
        <ele>745</ele>
        <time>2013-08-02T13:25:46Z</time>
      </trkpt>
      <trkpt lat="42.58578" lon="2.38487">
        <ele>745</ele>
        <time>2013-08-02T13:25:48Z</time>
      </trkpt>
      <trkpt lat="42.58582" lon="2.38484">
        <ele>745</ele>
        <time>2013-08-02T13:25:52Z</time>
      </trkpt>
      <trkpt lat="42.58584" lon="2.38482">
        <ele>745</ele>
        <time>2013-08-02T13:25:54Z</time>
      </trkpt>
      <trkpt lat="42.58586" lon="2.38479">
        <ele>745</ele>
        <time>2013-08-02T13:25:57Z</time>
      </trkpt>
      <trkpt lat="42.58586" lon="2.38476">
        <ele>744</ele>
        <time>2013-08-02T13:25:59Z</time>
      </trkpt>
      <trkpt lat="42.58586" lon="2.38474">
        <ele>744</ele>
        <time>2013-08-02T13:26:01Z</time>
      </trkpt>
      <trkpt lat="42.58586" lon="2.38471">
        <ele>744</ele>
        <time>2013-08-02T13:26:03Z</time>
      </trkpt>
      <trkpt lat="42.58587" lon="2.38468">
        <ele>744</ele>
        <time>2013-08-02T13:26:05Z</time>
      </trkpt>
      <trkpt lat="42.58586" lon="2.38466">
        <ele>744</ele>
        <time>2013-08-02T13:26:07Z</time>
      </trkpt>
      <trkpt lat="42.58587" lon="2.38463">
        <ele>744</ele>
        <time>2013-08-02T13:26:09Z</time>
      </trkpt>
      <trkpt lat="42.58587" lon="2.3846">
        <ele>744</ele>
        <time>2013-08-02T13:26:12Z</time>
      </trkpt>
      <trkpt lat="42.58587" lon="2.38457">
        <ele>744</ele>
        <time>2013-08-02T13:26:14Z</time>
      </trkpt>
      <trkpt lat="42.58585" lon="2.38453">
        <ele>744</ele>
        <time>2013-08-02T13:26:16Z</time>
      </trkpt>
      <trkpt lat="42.58585" lon="2.38449">
        <ele>744</ele>
        <time>2013-08-02T13:26:18Z</time>
      </trkpt>
      <trkpt lat="42.58584" lon="2.38444">
        <ele>744</ele>
        <time>2013-08-02T13:26:22Z</time>
      </trkpt>
      <trkpt lat="42.58584" lon="2.38441">
        <ele>744</ele>
        <time>2013-08-02T13:26:24Z</time>
      </trkpt>
      <trkpt lat="42.58583" lon="2.38438">
        <ele>744</ele>
        <time>2013-08-02T13:26:26Z</time>
      </trkpt>
      <trkpt lat="42.58582" lon="2.38434">
        <ele>744</ele>
        <time>2013-08-02T13:26:29Z</time>
      </trkpt>
      <trkpt lat="42.58582" lon="2.38431">
        <ele>744</ele>
        <time>2013-08-02T13:26:31Z</time>
      </trkpt>
      <trkpt lat="42.58582" lon="2.38428">
        <ele>744</ele>
        <time>2013-08-02T13:26:33Z</time>
      </trkpt>
      <trkpt lat="42.58581" lon="2.38425">
        <ele>744</ele>
        <time>2013-08-02T13:26:35Z</time>
      </trkpt>
      <trkpt lat="42.58581" lon="2.38422">
        <ele>744</ele>
        <time>2013-08-02T13:26:37Z</time>
      </trkpt>
      <trkpt lat="42.58581" lon="2.3842">
        <ele>744</ele>
        <time>2013-08-02T13:26:39Z</time>
      </trkpt>
      <trkpt lat="42.5858" lon="2.38418">
        <ele>744</ele>
        <time>2013-08-02T13:26:41Z</time>
      </trkpt>
      <trkpt lat="42.58581" lon="2.38417">
        <ele>744</ele>
        <time>2013-08-02T13:26:43Z</time>
      </trkpt>
      <trkpt lat="42.5858" lon="2.38414">
        <ele>744</ele>
        <time>2013-08-02T13:26:45Z</time>
      </trkpt>
      <trkpt lat="42.58579" lon="2.38408">
        <ele>744</ele>
        <time>2013-08-02T13:26:49Z</time>
      </trkpt>
      <trkpt lat="42.58575" lon="2.38402">
        <ele>743</ele>
        <time>2013-08-02T13:26:52Z</time>
      </trkpt>
      <trkpt lat="42.58573" lon="2.38397">
        <ele>743</ele>
        <time>2013-08-02T13:26:55Z</time>
      </trkpt>
      <trkpt lat="42.58573" lon="2.38395">
        <ele>743</ele>
        <time>2013-08-02T13:26:57Z</time>
      </trkpt>
      <trkpt lat="42.58573" lon="2.38391">
        <ele>743</ele>
        <time>2013-08-02T13:27:00Z</time>
      </trkpt>
      <trkpt lat="42.58573" lon="2.38388">
        <ele>743</ele>
        <time>2013-08-02T13:27:02Z</time>
      </trkpt>
      <trkpt lat="42.58563" lon="2.38286">
        <ele>736</ele>
        <time>2013-08-02T13:28:12Z</time>
      </trkpt>
      <trkpt lat="42.58562" lon="2.3828">
        <ele>736</ele>
        <time>2013-08-02T13:28:14Z</time>
      </trkpt>
      <trkpt lat="42.58562" lon="2.38276">
        <ele>736</ele>
        <time>2013-08-02T13:28:16Z</time>
      </trkpt>
      <trkpt lat="42.58561" lon="2.38273">
        <ele>736</ele>
        <time>2013-08-02T13:28:18Z</time>
      </trkpt>
      <trkpt lat="42.58561" lon="2.38269">
        <ele>736</ele>
        <time>2013-08-02T13:28:20Z</time>
      </trkpt>
      <trkpt lat="42.58561" lon="2.38265">
        <ele>736</ele>
        <time>2013-08-02T13:28:22Z</time>
      </trkpt>
      <trkpt lat="42.5856" lon="2.3826">
        <ele>736</ele>
        <time>2013-08-02T13:28:24Z</time>
      </trkpt>
      <trkpt lat="42.5856" lon="2.38257">
        <ele>735</ele>
        <time>2013-08-02T13:28:26Z</time>
      </trkpt>
      <trkpt lat="42.5856" lon="2.38254">
        <ele>735</ele>
        <time>2013-08-02T13:28:28Z</time>
      </trkpt>
      <trkpt lat="42.5856" lon="2.3825">
        <ele>735</ele>
        <time>2013-08-02T13:28:30Z</time>
      </trkpt>
      <trkpt lat="42.58561" lon="2.38245">
        <ele>735</ele>
        <time>2013-08-02T13:28:33Z</time>
      </trkpt>
      <trkpt lat="42.58562" lon="2.38243">
        <ele>735</ele>
        <time>2013-08-02T13:28:35Z</time>
      </trkpt>
      <trkpt lat="42.58562" lon="2.38238">
        <ele>734</ele>
        <time>2013-08-02T13:28:38Z</time>
      </trkpt>
      <trkpt lat="42.58562" lon="2.38235">
        <ele>734</ele>
        <time>2013-08-02T13:28:40Z</time>
      </trkpt>
      <trkpt lat="42.58562" lon="2.38231">
        <ele>734</ele>
        <time>2013-08-02T13:28:42Z</time>
      </trkpt>
      <trkpt lat="42.58561" lon="2.38228">
        <ele>734</ele>
        <time>2013-08-02T13:28:44Z</time>
      </trkpt>
      <trkpt lat="42.58561" lon="2.38225">
        <ele>734</ele>
        <time>2013-08-02T13:28:46Z</time>
      </trkpt>
      <trkpt lat="42.58561" lon="2.38221">
        <ele>734</ele>
        <time>2013-08-02T13:28:48Z</time>
      </trkpt>
      <trkpt lat="42.58561" lon="2.38217">
        <ele>734</ele>
        <time>2013-08-02T13:28:50Z</time>
      </trkpt>
      <trkpt lat="42.5856" lon="2.38211">
        <ele>734</ele>
        <time>2013-08-02T13:28:53Z</time>
      </trkpt>
      <trkpt lat="42.5856" lon="2.38206">
        <ele>734</ele>
        <time>2013-08-02T13:28:56Z</time>
      </trkpt>
      <trkpt lat="42.58559" lon="2.38202">
        <ele>734</ele>
        <time>2013-08-02T13:28:58Z</time>
      </trkpt>
      <trkpt lat="42.58558" lon="2.38198">
        <ele>734</ele>
        <time>2013-08-02T13:29:00Z</time>
      </trkpt>
      <trkpt lat="42.58558" lon="2.38194">
        <ele>734</ele>
        <time>2013-08-02T13:29:02Z</time>
      </trkpt>
      <trkpt lat="42.58557" lon="2.3819">
        <ele>734</ele>
        <time>2013-08-02T13:29:04Z</time>
      </trkpt>
      <trkpt lat="42.58557" lon="2.38187">
        <ele>734</ele>
        <time>2013-08-02T13:29:06Z</time>
      </trkpt>
      <trkpt lat="42.58557" lon="2.38184">
        <ele>734</ele>
        <time>2013-08-02T13:29:08Z</time>
      </trkpt>
      <trkpt lat="42.58557" lon="2.3818">
        <ele>734</ele>
        <time>2013-08-02T13:29:10Z</time>
      </trkpt>
      <trkpt lat="42.5856" lon="2.3818">
        <ele>734</ele>
        <time>2013-08-02T13:29:13Z</time>
      </trkpt>
      <trkpt lat="42.5856" lon="2.38177">
        <ele>734</ele>
        <time>2013-08-02T13:29:15Z</time>
      </trkpt>
      <trkpt lat="42.5856" lon="2.38174">
        <ele>734</ele>
        <time>2013-08-02T13:29:17Z</time>
      </trkpt>
      <trkpt lat="42.5856" lon="2.38171">
        <ele>734</ele>
        <time>2013-08-02T13:29:19Z</time>
      </trkpt>
      <trkpt lat="42.5856" lon="2.38168">
        <ele>734</ele>
        <time>2013-08-02T13:29:22Z</time>
      </trkpt>
      <trkpt lat="42.58561" lon="2.38169">
        <ele>734</ele>
        <time>2013-08-02T13:29:34Z</time>
      </trkpt>
      <trkpt lat="42.58562" lon="2.3817">
        <ele>733</ele>
        <time>2013-08-02T13:29:37Z</time>
      </trkpt>
      <trkpt lat="42.58564" lon="2.38172">
        <ele>733</ele>
        <time>2013-08-02T13:29:39Z</time>
      </trkpt>
      <trkpt lat="42.58562" lon="2.38172">
        <ele>733</ele>
        <time>2013-08-02T13:29:44Z</time>
      </trkpt>
      <trkpt lat="42.58561" lon="2.38172">
        <ele>732</ele>
        <time>2013-08-02T13:29:47Z</time>
      </trkpt>
      <trkpt lat="42.58561" lon="2.3817">
        <ele>732</ele>
        <time>2013-08-02T13:29:49Z</time>
      </trkpt>
      <trkpt lat="42.58561" lon="2.38167">
        <ele>731</ele>
        <time>2013-08-02T13:29:51Z</time>
      </trkpt>
      <trkpt lat="42.58561" lon="2.38163">
        <ele>730</ele>
        <time>2013-08-02T13:29:53Z</time>
      </trkpt>
      <trkpt lat="42.58561" lon="2.3816">
        <ele>730</ele>
        <time>2013-08-02T13:29:55Z</time>
      </trkpt>
      <trkpt lat="42.5856" lon="2.38156">
        <ele>730</ele>
        <time>2013-08-02T13:29:57Z</time>
      </trkpt>
      <trkpt lat="42.58559" lon="2.38154">
        <ele>730</ele>
        <time>2013-08-02T13:30:00Z</time>
      </trkpt>
      <trkpt lat="42.58558" lon="2.38148">
        <ele>730</ele>
        <time>2013-08-02T13:30:03Z</time>
      </trkpt>
      <trkpt lat="42.58556" lon="2.38144">
        <ele>730</ele>
        <time>2013-08-02T13:30:08Z</time>
      </trkpt>
      <trkpt lat="42.58555" lon="2.38137">
        <ele>730</ele>
        <time>2013-08-02T13:30:10Z</time>
      </trkpt>
      <trkpt lat="42.58556" lon="2.38131">
        <ele>730</ele>
        <time>2013-08-02T13:30:14Z</time>
      </trkpt>
      <trkpt lat="42.58557" lon="2.38122">
        <ele>730</ele>
        <time>2013-08-02T13:30:20Z</time>
      </trkpt>
      <trkpt lat="42.58557" lon="2.38117">
        <ele>730</ele>
        <time>2013-08-02T13:30:24Z</time>
      </trkpt>
      <trkpt lat="42.58557" lon="2.38113">
        <ele>730</ele>
        <time>2013-08-02T13:30:26Z</time>
      </trkpt>
      <trkpt lat="42.58559" lon="2.38108">
        <ele>730</ele>
        <time>2013-08-02T13:30:30Z</time>
      </trkpt>
      <trkpt lat="42.58562" lon="2.38108">
        <ele>730</ele>
        <time>2013-08-02T13:30:32Z</time>
      </trkpt>
      <trkpt lat="42.58566" lon="2.38109">
        <ele>730</ele>
        <time>2013-08-02T13:30:35Z</time>
      </trkpt>
      <trkpt lat="42.58569" lon="2.3811">
        <ele>730</ele>
        <time>2013-08-02T13:30:39Z</time>
      </trkpt>
      <trkpt lat="42.58571" lon="2.38112">
        <ele>730</ele>
        <time>2013-08-02T13:30:41Z</time>
      </trkpt>
      <trkpt lat="42.58574" lon="2.38119">
        <ele>730</ele>
        <time>2013-08-02T13:30:46Z</time>
      </trkpt>
      <trkpt lat="42.58575" lon="2.38122">
        <ele>730</ele>
        <time>2013-08-02T13:30:49Z</time>
      </trkpt>
      <trkpt lat="42.58576" lon="2.38124">
        <ele>730</ele>
        <time>2013-08-02T13:30:57Z</time>
      </trkpt>
      <trkpt lat="42.58577" lon="2.38127">
        <ele>730</ele>
        <time>2013-08-02T13:31:01Z</time>
      </trkpt>
      <trkpt lat="42.58582" lon="2.3813">
        <ele>729</ele>
        <time>2013-08-02T13:31:04Z</time>
      </trkpt>
      <trkpt lat="42.58584" lon="2.38133">
        <ele>729</ele>
        <time>2013-08-02T13:31:06Z</time>
      </trkpt>
      <trkpt lat="42.58587" lon="2.38137">
        <ele>728</ele>
        <time>2013-08-02T13:31:10Z</time>
      </trkpt>
      <trkpt lat="42.5859" lon="2.38141">
        <ele>728</ele>
        <time>2013-08-02T13:31:13Z</time>
      </trkpt>
      <trkpt lat="42.58592" lon="2.38144">
        <ele>727</ele>
        <time>2013-08-02T13:31:15Z</time>
      </trkpt>
      <trkpt lat="42.58595" lon="2.38146">
        <ele>727</ele>
        <time>2013-08-02T13:31:17Z</time>
      </trkpt>
      <trkpt lat="42.58597" lon="2.38148">
        <ele>727</ele>
        <time>2013-08-02T13:31:20Z</time>
      </trkpt>
      <trkpt lat="42.58603" lon="2.38153">
        <ele>726</ele>
        <time>2013-08-02T13:31:24Z</time>
      </trkpt>
      <trkpt lat="42.58606" lon="2.38157">
        <ele>725</ele>
        <time>2013-08-02T13:31:28Z</time>
      </trkpt>
      <trkpt lat="42.5861" lon="2.3816">
        <ele>724</ele>
        <time>2013-08-02T13:31:31Z</time>
      </trkpt>
      <trkpt lat="42.58612" lon="2.38162">
        <ele>724</ele>
        <time>2013-08-02T13:31:33Z</time>
      </trkpt>
      <trkpt lat="42.58616" lon="2.38164">
        <ele>723</ele>
        <time>2013-08-02T13:31:37Z</time>
      </trkpt>
      <trkpt lat="42.58621" lon="2.38166">
        <ele>722</ele>
        <time>2013-08-02T13:31:41Z</time>
      </trkpt>
      <trkpt lat="42.58625" lon="2.38166">
        <ele>722</ele>
        <time>2013-08-02T13:31:44Z</time>
      </trkpt>
      <trkpt lat="42.58627" lon="2.38165">
        <ele>722</ele>
        <time>2013-08-02T13:31:47Z</time>
      </trkpt>
      <trkpt lat="42.5863" lon="2.38163">
        <ele>722</ele>
        <time>2013-08-02T13:31:49Z</time>
      </trkpt>
      <trkpt lat="42.58635" lon="2.38159">
        <ele>722</ele>
        <time>2013-08-02T13:31:53Z</time>
      </trkpt>
      <trkpt lat="42.58639" lon="2.38157">
        <ele>722</ele>
        <time>2013-08-02T13:31:57Z</time>
      </trkpt>
      <trkpt lat="42.58643" lon="2.38153">
        <ele>722</ele>
        <time>2013-08-02T13:32:01Z</time>
      </trkpt>
      <trkpt lat="42.58647" lon="2.38149">
        <ele>722</ele>
        <time>2013-08-02T13:32:05Z</time>
      </trkpt>
      <trkpt lat="42.5865" lon="2.38147">
        <ele>722</ele>
        <time>2013-08-02T13:32:09Z</time>
      </trkpt>
      <trkpt lat="42.58654" lon="2.38144">
        <ele>721</ele>
        <time>2013-08-02T13:32:13Z</time>
      </trkpt>
      <trkpt lat="42.58657" lon="2.38145">
        <ele>721</ele>
        <time>2013-08-02T13:32:17Z</time>
      </trkpt>
      <trkpt lat="42.58662" lon="2.38144">
        <ele>721</ele>
        <time>2013-08-02T13:32:20Z</time>
      </trkpt>
      <trkpt lat="42.58667" lon="2.38142">
        <ele>721</ele>
        <time>2013-08-02T13:32:24Z</time>
      </trkpt>
      <trkpt lat="42.58671" lon="2.3814">
        <ele>721</ele>
        <time>2013-08-02T13:32:28Z</time>
      </trkpt>
      <trkpt lat="42.58676" lon="2.38141">
        <ele>721</ele>
        <time>2013-08-02T13:32:32Z</time>
      </trkpt>
      <trkpt lat="42.58679" lon="2.38141">
        <ele>721</ele>
        <time>2013-08-02T13:32:35Z</time>
      </trkpt>
      <trkpt lat="42.58683" lon="2.38143">
        <ele>721</ele>
        <time>2013-08-02T13:32:38Z</time>
      </trkpt>
      <trkpt lat="42.58687" lon="2.38144">
        <ele>721</ele>
        <time>2013-08-02T13:32:41Z</time>
      </trkpt>
      <trkpt lat="42.58691" lon="2.38144">
        <ele>721</ele>
        <time>2013-08-02T13:32:46Z</time>
      </trkpt>
      <trkpt lat="42.58692" lon="2.38144">
        <ele>721</ele>
        <time>2013-08-02T13:32:49Z</time>
      </trkpt>
      <trkpt lat="42.58692" lon="2.38147">
        <ele>721</ele>
        <time>2013-08-02T13:32:54Z</time>
      </trkpt>
      <trkpt lat="42.58692" lon="2.38154">
        <ele>720</ele>
        <time>2013-08-02T13:32:58Z</time>
      </trkpt>
      <trkpt lat="42.58693" lon="2.38158">
        <ele>719</ele>
        <time>2013-08-02T13:33:00Z</time>
      </trkpt>
      <trkpt lat="42.58695" lon="2.38162">
        <ele>718</ele>
        <time>2013-08-02T13:33:04Z</time>
      </trkpt>
      <trkpt lat="42.58698" lon="2.38164">
        <ele>718</ele>
        <time>2013-08-02T13:33:07Z</time>
      </trkpt>
      <trkpt lat="42.58702" lon="2.38168">
        <ele>718</ele>
        <time>2013-08-02T13:33:09Z</time>
      </trkpt>
      <trkpt lat="42.58704" lon="2.38171">
        <ele>718</ele>
        <time>2013-08-02T13:33:12Z</time>
      </trkpt>
      <trkpt lat="42.58706" lon="2.38176">
        <ele>718</ele>
        <time>2013-08-02T13:33:14Z</time>
      </trkpt>
      <trkpt lat="42.58707" lon="2.38179">
        <ele>718</ele>
        <time>2013-08-02T13:33:16Z</time>
      </trkpt>
      <trkpt lat="42.5871" lon="2.38182">
        <ele>718</ele>
        <time>2013-08-02T13:33:20Z</time>
      </trkpt>
      <trkpt lat="42.58711" lon="2.38187">
        <ele>718</ele>
        <time>2013-08-02T13:33:22Z</time>
      </trkpt>
      <trkpt lat="42.58712" lon="2.38192">
        <ele>718</ele>
        <time>2013-08-02T13:33:25Z</time>
      </trkpt>
      <trkpt lat="42.58714" lon="2.38197">
        <ele>718</ele>
        <time>2013-08-02T13:33:30Z</time>
      </trkpt>
      <trkpt lat="42.58716" lon="2.38202">
        <ele>718</ele>
        <time>2013-08-02T13:33:32Z</time>
      </trkpt>
      <trkpt lat="42.58716" lon="2.38205">
        <ele>718</ele>
        <time>2013-08-02T13:33:35Z</time>
      </trkpt>
      <trkpt lat="42.58718" lon="2.3821">
        <ele>718</ele>
        <time>2013-08-02T13:33:39Z</time>
      </trkpt>
      <trkpt lat="42.58719" lon="2.38217">
        <ele>717</ele>
        <time>2013-08-02T13:33:43Z</time>
      </trkpt>
      <trkpt lat="42.5872" lon="2.38222">
        <ele>717</ele>
        <time>2013-08-02T13:33:47Z</time>
      </trkpt>
      <trkpt lat="42.58722" lon="2.3823">
        <ele>716</ele>
        <time>2013-08-02T13:33:51Z</time>
      </trkpt>
      <trkpt lat="42.58723" lon="2.38237">
        <ele>715</ele>
        <time>2013-08-02T13:33:55Z</time>
      </trkpt>
      <trkpt lat="42.58723" lon="2.38243">
        <ele>714</ele>
        <time>2013-08-02T13:33:59Z</time>
      </trkpt>
      <trkpt lat="42.58724" lon="2.3825">
        <ele>714</ele>
        <time>2013-08-02T13:34:04Z</time>
      </trkpt>
      <trkpt lat="42.58726" lon="2.38258">
        <ele>714</ele>
        <time>2013-08-02T13:34:08Z</time>
      </trkpt>
      <trkpt lat="42.58727" lon="2.38263">
        <ele>714</ele>
        <time>2013-08-02T13:34:12Z</time>
      </trkpt>
      <trkpt lat="42.58729" lon="2.38271">
        <ele>714</ele>
        <time>2013-08-02T13:34:16Z</time>
      </trkpt>
      <trkpt lat="42.58731" lon="2.38277">
        <ele>714</ele>
        <time>2013-08-02T13:34:20Z</time>
      </trkpt>
      <trkpt lat="42.58733" lon="2.38283">
        <ele>713</ele>
        <time>2013-08-02T13:34:25Z</time>
      </trkpt>
      <trkpt lat="42.58736" lon="2.38291">
        <ele>713</ele>
        <time>2013-08-02T13:34:29Z</time>
      </trkpt>
      <trkpt lat="42.58739" lon="2.38296">
        <ele>713</ele>
        <time>2013-08-02T13:34:33Z</time>
      </trkpt>
      <trkpt lat="42.58741" lon="2.38302">
        <ele>713</ele>
        <time>2013-08-02T13:34:38Z</time>
      </trkpt>
      <trkpt lat="42.58743" lon="2.38308">
        <ele>713</ele>
        <time>2013-08-02T13:34:42Z</time>
      </trkpt>
      <trkpt lat="42.58745" lon="2.38316">
        <ele>713</ele>
        <time>2013-08-02T13:34:46Z</time>
      </trkpt>
      <trkpt lat="42.58747" lon="2.38322">
        <ele>713</ele>
        <time>2013-08-02T13:34:51Z</time>
      </trkpt>
      <trkpt lat="42.58749" lon="2.38325">
        <ele>712</ele>
        <time>2013-08-02T13:34:53Z</time>
      </trkpt>
      <trkpt lat="42.58751" lon="2.3833">
        <ele>712</ele>
        <time>2013-08-02T13:34:57Z</time>
      </trkpt>
      <trkpt lat="42.58753" lon="2.38338">
        <ele>711</ele>
        <time>2013-08-02T13:35:01Z</time>
      </trkpt>
      <trkpt lat="42.58756" lon="2.38342">
        <ele>710</ele>
        <time>2013-08-02T13:35:04Z</time>
      </trkpt>
      <trkpt lat="42.58757" lon="2.38345">
        <ele>710</ele>
        <time>2013-08-02T13:35:07Z</time>
      </trkpt>
      <trkpt lat="42.58759" lon="2.38349">
        <ele>710</ele>
        <time>2013-08-02T13:35:09Z</time>
      </trkpt>
      <trkpt lat="42.5876" lon="2.38352">
        <ele>710</ele>
        <time>2013-08-02T13:35:12Z</time>
      </trkpt>
      <trkpt lat="42.58763" lon="2.38358">
        <ele>710</ele>
        <time>2013-08-02T13:35:16Z</time>
      </trkpt>
      <trkpt lat="42.58765" lon="2.38363">
        <ele>710</ele>
        <time>2013-08-02T13:35:19Z</time>
      </trkpt>
      <trkpt lat="42.58766" lon="2.38366">
        <ele>710</ele>
        <time>2013-08-02T13:35:22Z</time>
      </trkpt>
      <trkpt lat="42.5877" lon="2.38372">
        <ele>710</ele>
        <time>2013-08-02T13:35:27Z</time>
      </trkpt>
      <trkpt lat="42.5877" lon="2.38376">
        <ele>710</ele>
        <time>2013-08-02T13:35:29Z</time>
      </trkpt>
      <trkpt lat="42.58771" lon="2.38378">
        <ele>710</ele>
        <time>2013-08-02T13:35:32Z</time>
      </trkpt>
      <trkpt lat="42.58774" lon="2.38384">
        <ele>710</ele>
        <time>2013-08-02T13:35:36Z</time>
      </trkpt>
      <trkpt lat="42.58774" lon="2.38389">
        <ele>710</ele>
        <time>2013-08-02T13:35:38Z</time>
      </trkpt>
      <trkpt lat="42.58774" lon="2.38394">
        <ele>710</ele>
        <time>2013-08-02T13:35:42Z</time>
      </trkpt>
      <trkpt lat="42.58777" lon="2.38401">
        <ele>710</ele>
        <time>2013-08-02T13:35:47Z</time>
      </trkpt>
      <trkpt lat="42.58779" lon="2.38407">
        <ele>710</ele>
        <time>2013-08-02T13:35:51Z</time>
      </trkpt>
      <trkpt lat="42.58781" lon="2.38414">
        <ele>710</ele>
        <time>2013-08-02T13:35:56Z</time>
      </trkpt>
      <trkpt lat="42.58785" lon="2.3842">
        <ele>710</ele>
        <time>2013-08-02T13:36:00Z</time>
      </trkpt>
      <trkpt lat="42.58787" lon="2.38422">
        <ele>710</ele>
        <time>2013-08-02T13:36:02Z</time>
      </trkpt>
      <trkpt lat="42.58789" lon="2.38425">
        <ele>710</ele>
        <time>2013-08-02T13:36:05Z</time>
      </trkpt>
      <trkpt lat="42.58793" lon="2.38429">
        <ele>710</ele>
        <time>2013-08-02T13:36:09Z</time>
      </trkpt>
      <trkpt lat="42.58793" lon="2.38433">
        <ele>710</ele>
        <time>2013-08-02T13:36:15Z</time>
      </trkpt>
      <trkpt lat="42.58792" lon="2.38434">
        <ele>710</ele>
        <time>2013-08-02T13:36:21Z</time>
      </trkpt>
      <trkpt lat="42.58794" lon="2.38433">
        <ele>710</ele>
        <time>2013-08-02T13:36:27Z</time>
      </trkpt>
      <trkpt lat="42.58795" lon="2.38432">
        <ele>710</ele>
        <time>2013-08-02T13:36:37Z</time>
      </trkpt>
      <trkpt lat="42.58799" lon="2.38431">
        <ele>710</ele>
        <time>2013-08-02T13:36:40Z</time>
      </trkpt>
      <trkpt lat="42.58802" lon="2.38436">
        <ele>710</ele>
        <time>2013-08-02T13:36:44Z</time>
      </trkpt>
      <trkpt lat="42.58804" lon="2.38442">
        <ele>710</ele>
        <time>2013-08-02T13:36:48Z</time>
      </trkpt>
      <trkpt lat="42.58805" lon="2.38451">
        <ele>710</ele>
        <time>2013-08-02T13:36:53Z</time>
      </trkpt>
      <trkpt lat="42.58805" lon="2.38454">
        <ele>710</ele>
        <time>2013-08-02T13:36:55Z</time>
      </trkpt>
      <trkpt lat="42.58805" lon="2.38459">
        <ele>710</ele>
        <time>2013-08-02T13:36:58Z</time>
      </trkpt>
      <trkpt lat="42.58805" lon="2.38464">
        <ele>710</ele>
        <time>2013-08-02T13:37:02Z</time>
      </trkpt>
      <trkpt lat="42.58807" lon="2.3847">
        <ele>710</ele>
        <time>2013-08-02T13:37:05Z</time>
      </trkpt>
      <trkpt lat="42.58808" lon="2.38473">
        <ele>710</ele>
        <time>2013-08-02T13:37:07Z</time>
      </trkpt>
      <trkpt lat="42.58811" lon="2.38479">
        <ele>710</ele>
        <time>2013-08-02T13:37:12Z</time>
      </trkpt>
      <trkpt lat="42.58813" lon="2.3849">
        <ele>710</ele>
        <time>2013-08-02T13:37:18Z</time>
      </trkpt>
      <trkpt lat="42.58813" lon="2.38493">
        <ele>710</ele>
        <time>2013-08-02T13:37:20Z</time>
      </trkpt>
      <trkpt lat="42.58813" lon="2.38496">
        <ele>710</ele>
        <time>2013-08-02T13:37:22Z</time>
      </trkpt>
      <trkpt lat="42.58814" lon="2.38502">
        <ele>710</ele>
        <time>2013-08-02T13:37:27Z</time>
      </trkpt>
      <trkpt lat="42.58814" lon="2.3851">
        <ele>710</ele>
        <time>2013-08-02T13:37:31Z</time>
      </trkpt>
      <trkpt lat="42.58816" lon="2.38517">
        <ele>710</ele>
        <time>2013-08-02T13:37:36Z</time>
      </trkpt>
      <trkpt lat="42.58818" lon="2.38524">
        <ele>710</ele>
        <time>2013-08-02T13:37:40Z</time>
      </trkpt>
      <trkpt lat="42.58821" lon="2.38531">
        <ele>710</ele>
        <time>2013-08-02T13:37:45Z</time>
      </trkpt>
      <trkpt lat="42.58823" lon="2.38537">
        <ele>710</ele>
        <time>2013-08-02T13:37:49Z</time>
      </trkpt>
      <trkpt lat="42.58826" lon="2.38544">
        <ele>710</ele>
        <time>2013-08-02T13:37:54Z</time>
      </trkpt>
      <trkpt lat="42.58828" lon="2.3855">
        <ele>710</ele>
        <time>2013-08-02T13:37:58Z</time>
      </trkpt>
      <trkpt lat="42.58831" lon="2.38558">
        <ele>710</ele>
        <time>2013-08-02T13:38:03Z</time>
      </trkpt>
      <trkpt lat="42.58834" lon="2.38564">
        <ele>710</ele>
        <time>2013-08-02T13:38:09Z</time>
      </trkpt>
      <trkpt lat="42.58836" lon="2.38568">
        <ele>710</ele>
        <time>2013-08-02T13:38:12Z</time>
      </trkpt>
      <trkpt lat="42.58838" lon="2.38573">
        <ele>710</ele>
        <time>2013-08-02T13:38:14Z</time>
      </trkpt>
      <trkpt lat="42.58841" lon="2.3858">
        <ele>710</ele>
        <time>2013-08-02T13:38:19Z</time>
      </trkpt>
      <trkpt lat="42.58842" lon="2.38583">
        <ele>710</ele>
        <time>2013-08-02T13:38:21Z</time>
      </trkpt>
      <trkpt lat="42.58844" lon="2.38585">
        <ele>710</ele>
        <time>2013-08-02T13:38:24Z</time>
      </trkpt>
      <trkpt lat="42.58847" lon="2.38591">
        <ele>710</ele>
        <time>2013-08-02T13:38:28Z</time>
      </trkpt>
      <trkpt lat="42.5885" lon="2.38597">
        <ele>711</ele>
        <time>2013-08-02T13:38:33Z</time>
      </trkpt>
      <trkpt lat="42.58851" lon="2.38602">
        <ele>711</ele>
        <time>2013-08-02T13:38:37Z</time>
      </trkpt>
      <trkpt lat="42.58852" lon="2.38608">
        <ele>712</ele>
        <time>2013-08-02T13:38:40Z</time>
      </trkpt>
      <trkpt lat="42.58852" lon="2.38615">
        <ele>712</ele>
        <time>2013-08-02T13:38:44Z</time>
      </trkpt>
      <trkpt lat="42.58852" lon="2.38621">
        <ele>712</ele>
        <time>2013-08-02T13:38:48Z</time>
      </trkpt>
      <trkpt lat="42.58853" lon="2.38626">
        <ele>713</ele>
        <time>2013-08-02T13:38:51Z</time>
      </trkpt>
      <trkpt lat="42.58854" lon="2.38629">
        <ele>713</ele>
        <time>2013-08-02T13:38:54Z</time>
      </trkpt>
      <trkpt lat="42.58857" lon="2.38636">
        <ele>713</ele>
        <time>2013-08-02T13:38:58Z</time>
      </trkpt>
      <trkpt lat="42.58859" lon="2.38638">
        <ele>713</ele>
        <time>2013-08-02T13:39:01Z</time>
      </trkpt>
      <trkpt lat="42.58862" lon="2.38643">
        <ele>714</ele>
        <time>2013-08-02T13:39:04Z</time>
      </trkpt>
      <trkpt lat="42.58867" lon="2.38648">
        <ele>714</ele>
        <time>2013-08-02T13:39:09Z</time>
      </trkpt>
      <trkpt lat="42.58871" lon="2.38653">
        <ele>715</ele>
        <time>2013-08-02T13:39:14Z</time>
      </trkpt>
      <trkpt lat="42.58875" lon="2.38659">
        <ele>715</ele>
        <time>2013-08-02T13:39:18Z</time>
      </trkpt>
      <trkpt lat="42.58879" lon="2.38666">
        <ele>715</ele>
        <time>2013-08-02T13:39:24Z</time>
      </trkpt>
      <trkpt lat="42.58883" lon="2.38673">
        <ele>715</ele>
        <time>2013-08-02T13:39:29Z</time>
      </trkpt>
      <trkpt lat="42.58887" lon="2.38678">
        <ele>715</ele>
        <time>2013-08-02T13:39:33Z</time>
      </trkpt>
      <trkpt lat="42.58892" lon="2.38684">
        <ele>716</ele>
        <time>2013-08-02T13:39:38Z</time>
      </trkpt>
      <trkpt lat="42.58895" lon="2.38689">
        <ele>716</ele>
        <time>2013-08-02T13:39:43Z</time>
      </trkpt>
      <trkpt lat="42.58898" lon="2.38693">
        <ele>717</ele>
        <time>2013-08-02T13:39:47Z</time>
      </trkpt>
      <trkpt lat="42.58903" lon="2.38699">
        <ele>717</ele>
        <time>2013-08-02T13:39:52Z</time>
      </trkpt>
      <trkpt lat="42.58907" lon="2.38705">
        <ele>717</ele>
        <time>2013-08-02T13:39:57Z</time>
      </trkpt>
      <trkpt lat="42.58912" lon="2.38711">
        <ele>717</ele>
        <time>2013-08-02T13:40:02Z</time>
      </trkpt>
      <trkpt lat="42.58916" lon="2.38714">
        <ele>717</ele>
        <time>2013-08-02T13:40:04Z</time>
      </trkpt>
      <trkpt lat="42.58918" lon="2.38716">
        <ele>717</ele>
        <time>2013-08-02T13:40:07Z</time>
      </trkpt>
      <trkpt lat="42.58924" lon="2.38722">
        <ele>718</ele>
        <time>2013-08-02T13:40:12Z</time>
      </trkpt>
      <trkpt lat="42.58928" lon="2.38726">
        <ele>718</ele>
        <time>2013-08-02T13:40:15Z</time>
      </trkpt>
      <trkpt lat="42.5893" lon="2.38729">
        <ele>718</ele>
        <time>2013-08-02T13:40:18Z</time>
      </trkpt>
      <trkpt lat="42.58934" lon="2.38733">
        <ele>718</ele>
        <time>2013-08-02T13:40:23Z</time>
      </trkpt>
      <trkpt lat="42.58938" lon="2.38737">
        <ele>718</ele>
        <time>2013-08-02T13:40:27Z</time>
      </trkpt>
      <trkpt lat="42.58942" lon="2.38742">
        <ele>718</ele>
        <time>2013-08-02T13:40:30Z</time>
      </trkpt>
      <trkpt lat="42.58945" lon="2.38747">
        <ele>718</ele>
        <time>2013-08-02T13:40:34Z</time>
      </trkpt>
      <trkpt lat="42.58949" lon="2.38752">
        <ele>718</ele>
        <time>2013-08-02T13:40:39Z</time>
      </trkpt>
      <trkpt lat="42.58954" lon="2.38758">
        <ele>718</ele>
        <time>2013-08-02T13:40:43Z</time>
      </trkpt>
      <trkpt lat="42.58958" lon="2.38764">
        <ele>719</ele>
        <time>2013-08-02T13:40:48Z</time>
      </trkpt>
      <trkpt lat="42.58963" lon="2.3877">
        <ele>720</ele>
        <time>2013-08-02T13:40:53Z</time>
      </trkpt>
      <trkpt lat="42.58965" lon="2.38773">
        <ele>720</ele>
        <time>2013-08-02T13:40:58Z</time>
      </trkpt>
      <trkpt lat="42.58969" lon="2.38776">
        <ele>720</ele>
        <time>2013-08-02T13:41:00Z</time>
      </trkpt>
      <trkpt lat="42.58972" lon="2.38779">
        <ele>720</ele>
        <time>2013-08-02T13:41:03Z</time>
      </trkpt>
      <trkpt lat="42.58977" lon="2.38783">
        <ele>721</ele>
        <time>2013-08-02T13:41:08Z</time>
      </trkpt>
      <trkpt lat="42.58979" lon="2.38786">
        <ele>721</ele>
        <time>2013-08-02T13:41:10Z</time>
      </trkpt>
      <trkpt lat="42.58981" lon="2.38789">
        <ele>721</ele>
        <time>2013-08-02T13:41:13Z</time>
      </trkpt>
      <trkpt lat="42.58986" lon="2.38795">
        <ele>721</ele>
        <time>2013-08-02T13:41:18Z</time>
      </trkpt>
      <trkpt lat="42.58991" lon="2.388">
        <ele>721</ele>
        <time>2013-08-02T13:41:23Z</time>
      </trkpt>
      <trkpt lat="42.58996" lon="2.38804">
        <ele>721</ele>
        <time>2013-08-02T13:41:28Z</time>
      </trkpt>
      <trkpt lat="42.58999" lon="2.38806">
        <ele>721</ele>
        <time>2013-08-02T13:41:30Z</time>
      </trkpt>
      <trkpt lat="42.59002" lon="2.38808">
        <ele>721</ele>
        <time>2013-08-02T13:41:33Z</time>
      </trkpt>
      <trkpt lat="42.59004" lon="2.3881">
        <ele>721</ele>
        <time>2013-08-02T13:41:35Z</time>
      </trkpt>
      <trkpt lat="42.59007" lon="2.38813">
        <ele>721</ele>
        <time>2013-08-02T13:41:38Z</time>
      </trkpt>
      <trkpt lat="42.5901" lon="2.38815">
        <ele>721</ele>
        <time>2013-08-02T13:41:40Z</time>
      </trkpt>
      <trkpt lat="42.59012" lon="2.38818">
        <ele>721</ele>
        <time>2013-08-02T13:41:43Z</time>
      </trkpt>
      <trkpt lat="42.59015" lon="2.38822">
        <ele>721</ele>
        <time>2013-08-02T13:41:46Z</time>
      </trkpt>
      <trkpt lat="42.59017" lon="2.38826">
        <ele>721</ele>
        <time>2013-08-02T13:41:50Z</time>
      </trkpt>
      <trkpt lat="42.59023" lon="2.38834">
        <ele>721</ele>
        <time>2013-08-02T13:41:55Z</time>
      </trkpt>
      <trkpt lat="42.59024" lon="2.38839">
        <ele>721</ele>
        <time>2013-08-02T13:41:58Z</time>
      </trkpt>
      <trkpt lat="42.59025" lon="2.38841">
        <ele>721</ele>
        <time>2013-08-02T13:42:02Z</time>
      </trkpt>
      <trkpt lat="42.59031" lon="2.38847">
        <ele>721</ele>
        <time>2013-08-02T13:42:08Z</time>
      </trkpt>
      <trkpt lat="42.59035" lon="2.38852">
        <ele>721</ele>
        <time>2013-08-02T13:42:11Z</time>
      </trkpt>
      <trkpt lat="42.59039" lon="2.38855">
        <ele>721</ele>
        <time>2013-08-02T13:42:14Z</time>
      </trkpt>
      <trkpt lat="42.59044" lon="2.38858">
        <ele>721</ele>
        <time>2013-08-02T13:42:19Z</time>
      </trkpt>
      <trkpt lat="42.59049" lon="2.38863">
        <ele>721</ele>
        <time>2013-08-02T13:42:24Z</time>
      </trkpt>
      <trkpt lat="42.59051" lon="2.38866">
        <ele>721</ele>
        <time>2013-08-02T13:42:26Z</time>
      </trkpt>
      <trkpt lat="42.59053" lon="2.38868">
        <ele>721</ele>
        <time>2013-08-02T13:42:28Z</time>
      </trkpt>
      <trkpt lat="42.59055" lon="2.38871">
        <ele>721</ele>
        <time>2013-08-02T13:42:31Z</time>
      </trkpt>
      <trkpt lat="42.59057" lon="2.38874">
        <ele>721</ele>
        <time>2013-08-02T13:42:34Z</time>
      </trkpt>
      <trkpt lat="42.59061" lon="2.38878">
        <ele>720</ele>
        <time>2013-08-02T13:42:37Z</time>
      </trkpt>
      <trkpt lat="42.59063" lon="2.38882">
        <ele>718</ele>
        <time>2013-08-02T13:42:39Z</time>
      </trkpt>
      <trkpt lat="42.59065" lon="2.38885">
        <ele>717</ele>
        <time>2013-08-02T13:42:41Z</time>
      </trkpt>
      <trkpt lat="42.59065" lon="2.38887">
        <ele>717</ele>
        <time>2013-08-02T13:42:43Z</time>
      </trkpt>
      <trkpt lat="42.59066" lon="2.38889">
        <ele>717</ele>
        <time>2013-08-02T13:42:45Z</time>
      </trkpt>
      <trkpt lat="42.59068" lon="2.38894">
        <ele>717</ele>
        <time>2013-08-02T13:42:49Z</time>
      </trkpt>
      <trkpt lat="42.5907" lon="2.38896">
        <ele>717</ele>
        <time>2013-08-02T13:42:51Z</time>
      </trkpt>
      <trkpt lat="42.59071" lon="2.38898">
        <ele>717</ele>
        <time>2013-08-02T13:42:53Z</time>
      </trkpt>
      <trkpt lat="42.59073" lon="2.389">
        <ele>716</ele>
        <time>2013-08-02T13:42:55Z</time>
      </trkpt>
      <trkpt lat="42.59077" lon="2.38903">
        <ele>716</ele>
        <time>2013-08-02T13:42:59Z</time>
      </trkpt>
      <trkpt lat="42.59078" lon="2.38905">
        <ele>715</ele>
        <time>2013-08-02T13:43:01Z</time>
      </trkpt>
      <trkpt lat="42.59081" lon="2.38908">
        <ele>715</ele>
        <time>2013-08-02T13:43:04Z</time>
      </trkpt>
      <trkpt lat="42.59083" lon="2.3891">
        <ele>715</ele>
        <time>2013-08-02T13:43:06Z</time>
      </trkpt>
      <trkpt lat="42.59084" lon="2.38912">
        <ele>715</ele>
        <time>2013-08-02T13:43:08Z</time>
      </trkpt>
      <trkpt lat="42.59085" lon="2.38915">
        <ele>715</ele>
        <time>2013-08-02T13:43:10Z</time>
      </trkpt>
      <trkpt lat="42.59087" lon="2.38919">
        <ele>715</ele>
        <time>2013-08-02T13:43:13Z</time>
      </trkpt>
      <trkpt lat="42.59088" lon="2.38923">
        <ele>715</ele>
        <time>2013-08-02T13:43:16Z</time>
      </trkpt>
      <trkpt lat="42.59089" lon="2.38926">
        <ele>715</ele>
        <time>2013-08-02T13:43:18Z</time>
      </trkpt>
      <trkpt lat="42.5909" lon="2.38929">
        <ele>714</ele>
        <time>2013-08-02T13:43:20Z</time>
      </trkpt>
      <trkpt lat="42.59092" lon="2.38933">
        <ele>714</ele>
        <time>2013-08-02T13:43:23Z</time>
      </trkpt>
      <trkpt lat="42.59093" lon="2.38936">
        <ele>713</ele>
        <time>2013-08-02T13:43:25Z</time>
      </trkpt>
      <trkpt lat="42.59095" lon="2.38941">
        <ele>713</ele>
        <time>2013-08-02T13:43:28Z</time>
      </trkpt>
      <trkpt lat="42.59097" lon="2.38943">
        <ele>713</ele>
        <time>2013-08-02T13:43:30Z</time>
      </trkpt>
      <trkpt lat="42.591" lon="2.38949">
        <ele>712</ele>
        <time>2013-08-02T13:43:34Z</time>
      </trkpt>
      <trkpt lat="42.59102" lon="2.38952">
        <ele>711</ele>
        <time>2013-08-02T13:43:36Z</time>
      </trkpt>
      <trkpt lat="42.59105" lon="2.38955">
        <ele>710</ele>
        <time>2013-08-02T13:43:39Z</time>
      </trkpt>
      <trkpt lat="42.59107" lon="2.38958">
        <ele>710</ele>
        <time>2013-08-02T13:43:41Z</time>
      </trkpt>
      <trkpt lat="42.59109" lon="2.3896">
        <ele>709</ele>
        <time>2013-08-02T13:43:43Z</time>
      </trkpt>
      <trkpt lat="42.5911" lon="2.38962">
        <ele>709</ele>
        <time>2013-08-02T13:43:45Z</time>
      </trkpt>
      <trkpt lat="42.59113" lon="2.38965">
        <ele>708</ele>
        <time>2013-08-02T13:43:48Z</time>
      </trkpt>
      <trkpt lat="42.59115" lon="2.38967">
        <ele>708</ele>
        <time>2013-08-02T13:43:50Z</time>
      </trkpt>
      <trkpt lat="42.59116" lon="2.38965">
        <ele>708</ele>
        <time>2013-08-02T13:43:59Z</time>
      </trkpt>
      <trkpt lat="42.59117" lon="2.38963">
        <ele>708</ele>
        <time>2013-08-02T13:44:01Z</time>
      </trkpt>
      <trkpt lat="42.59119" lon="2.38962">
        <ele>708</ele>
        <time>2013-08-02T13:44:03Z</time>
      </trkpt>
      <trkpt lat="42.5912" lon="2.3896">
        <ele>708</ele>
        <time>2013-08-02T13:44:05Z</time>
      </trkpt>
      <trkpt lat="42.59124" lon="2.38958">
        <ele>708</ele>
        <time>2013-08-02T13:44:09Z</time>
      </trkpt>
      <trkpt lat="42.59125" lon="2.38956">
        <ele>708</ele>
        <time>2013-08-02T13:44:11Z</time>
      </trkpt>
      <trkpt lat="42.59127" lon="2.38955">
        <ele>708</ele>
        <time>2013-08-02T13:44:13Z</time>
      </trkpt>
      <trkpt lat="42.5913" lon="2.38952">
        <ele>708</ele>
        <time>2013-08-02T13:44:17Z</time>
      </trkpt>
      <trkpt lat="42.59134" lon="2.3895">
        <ele>708</ele>
        <time>2013-08-02T13:44:20Z</time>
      </trkpt>
      <trkpt lat="42.59137" lon="2.38947">
        <ele>708</ele>
        <time>2013-08-02T13:44:24Z</time>
      </trkpt>
      <trkpt lat="42.59139" lon="2.38945">
        <ele>709</ele>
        <time>2013-08-02T13:44:26Z</time>
      </trkpt>
      <trkpt lat="42.5914" lon="2.38944">
        <ele>710</ele>
        <time>2013-08-02T13:44:28Z</time>
      </trkpt>
      <trkpt lat="42.59142" lon="2.38942">
        <ele>711</ele>
        <time>2013-08-02T13:44:30Z</time>
      </trkpt>
      <trkpt lat="42.59145" lon="2.38941">
        <ele>712</ele>
        <time>2013-08-02T13:44:34Z</time>
      </trkpt>
      <trkpt lat="42.59148" lon="2.38941">
        <ele>713</ele>
        <time>2013-08-02T13:44:36Z</time>
      </trkpt>
      <trkpt lat="42.59151" lon="2.3894">
        <ele>714</ele>
        <time>2013-08-02T13:44:39Z</time>
      </trkpt>
      <trkpt lat="42.59152" lon="2.38938">
        <ele>715</ele>
        <time>2013-08-02T13:44:41Z</time>
      </trkpt>
      <trkpt lat="42.59154" lon="2.38937">
        <ele>715</ele>
        <time>2013-08-02T13:44:43Z</time>
      </trkpt>
      <trkpt lat="42.59156" lon="2.38936">
        <ele>715</ele>
        <time>2013-08-02T13:44:45Z</time>
      </trkpt>
      <trkpt lat="42.59159" lon="2.38933">
        <ele>715</ele>
        <time>2013-08-02T13:44:49Z</time>
      </trkpt>
      <trkpt lat="42.5916" lon="2.38931">
        <ele>715</ele>
        <time>2013-08-02T13:44:51Z</time>
      </trkpt>
      <trkpt lat="42.59163" lon="2.3893">
        <ele>715</ele>
        <time>2013-08-02T13:44:53Z</time>
      </trkpt>
      <trkpt lat="42.59165" lon="2.38929">
        <ele>716</ele>
        <time>2013-08-02T13:44:55Z</time>
      </trkpt>
      <trkpt lat="42.59168" lon="2.38926">
        <ele>717</ele>
        <time>2013-08-02T13:44:59Z</time>
      </trkpt>
      <trkpt lat="42.5917" lon="2.38925">
        <ele>717</ele>
        <time>2013-08-02T13:45:01Z</time>
      </trkpt>
      <trkpt lat="42.59172" lon="2.38925">
        <ele>717</ele>
        <time>2013-08-02T13:45:03Z</time>
      </trkpt>
      <trkpt lat="42.59174" lon="2.38925">
        <ele>718</ele>
        <time>2013-08-02T13:45:05Z</time>
      </trkpt>
      <trkpt lat="42.59178" lon="2.38923">
        <ele>719</ele>
        <time>2013-08-02T13:45:09Z</time>
      </trkpt>
      <trkpt lat="42.59179" lon="2.38922">
        <ele>719</ele>
        <time>2013-08-02T13:45:11Z</time>
      </trkpt>
      <trkpt lat="42.59181" lon="2.3892">
        <ele>720</ele>
        <time>2013-08-02T13:45:13Z</time>
      </trkpt>
      <trkpt lat="42.59183" lon="2.38918">
        <ele>721</ele>
        <time>2013-08-02T13:45:15Z</time>
      </trkpt>
      <trkpt lat="42.59186" lon="2.38915">
        <ele>722</ele>
        <time>2013-08-02T13:45:19Z</time>
      </trkpt>
      <trkpt lat="42.59188" lon="2.38913">
        <ele>723</ele>
        <time>2013-08-02T13:45:21Z</time>
      </trkpt>
      <trkpt lat="42.59189" lon="2.38912">
        <ele>723</ele>
        <time>2013-08-02T13:45:23Z</time>
      </trkpt>
      <trkpt lat="42.59191" lon="2.38911">
        <ele>724</ele>
        <time>2013-08-02T13:45:25Z</time>
      </trkpt>
      <trkpt lat="42.59193" lon="2.38908">
        <ele>724</ele>
        <time>2013-08-02T13:45:29Z</time>
      </trkpt>
      <trkpt lat="42.59195" lon="2.38906">
        <ele>724</ele>
        <time>2013-08-02T13:45:31Z</time>
      </trkpt>
      <trkpt lat="42.59196" lon="2.38904">
        <ele>726</ele>
        <time>2013-08-02T13:45:34Z</time>
      </trkpt>
      <trkpt lat="42.59198" lon="2.38903">
        <ele>727</ele>
        <time>2013-08-02T13:45:36Z</time>
      </trkpt>
      <trkpt lat="42.592" lon="2.38901">
        <ele>727</ele>
        <time>2013-08-02T13:45:38Z</time>
      </trkpt>
      <trkpt lat="42.59202" lon="2.38899">
        <ele>727</ele>
        <time>2013-08-02T13:45:40Z</time>
      </trkpt>
      <trkpt lat="42.59205" lon="2.38897">
        <ele>728</ele>
        <time>2013-08-02T13:45:46Z</time>
      </trkpt>
      <trkpt lat="42.59205" lon="2.38895">
        <ele>728</ele>
        <time>2013-08-02T13:45:49Z</time>
      </trkpt>
      <trkpt lat="42.59206" lon="2.38893">
        <ele>729</ele>
        <time>2013-08-02T13:45:56Z</time>
      </trkpt>
      <trkpt lat="42.5921" lon="2.38889">
        <ele>729</ele>
        <time>2013-08-02T13:46:01Z</time>
      </trkpt>
      <trkpt lat="42.59212" lon="2.38881">
        <ele>729</ele>
        <time>2013-08-02T13:46:06Z</time>
      </trkpt>
      <trkpt lat="42.59211" lon="2.38879">
        <ele>729</ele>
        <time>2013-08-02T13:46:08Z</time>
      </trkpt>
      <trkpt lat="42.59211" lon="2.38876">
        <ele>729</ele>
        <time>2013-08-02T13:46:11Z</time>
      </trkpt>
      <trkpt lat="42.59211" lon="2.38866">
        <ele>729</ele>
        <time>2013-08-02T13:46:17Z</time>
      </trkpt>
      <trkpt lat="42.59212" lon="2.38862">
        <ele>729</ele>
        <time>2013-08-02T13:46:20Z</time>
      </trkpt>
      <trkpt lat="42.59212" lon="2.38859">
        <ele>729</ele>
        <time>2013-08-02T13:46:23Z</time>
      </trkpt>
      <trkpt lat="42.59212" lon="2.38856">
        <ele>730</ele>
        <time>2013-08-02T13:46:26Z</time>
      </trkpt>
      <trkpt lat="42.59213" lon="2.38849">
        <ele>730</ele>
        <time>2013-08-02T13:46:30Z</time>
      </trkpt>
      <trkpt lat="42.59215" lon="2.38847">
        <ele>732</ele>
        <time>2013-08-02T13:46:32Z</time>
      </trkpt>
      <trkpt lat="42.59217" lon="2.38844">
        <ele>732</ele>
        <time>2013-08-02T13:46:36Z</time>
      </trkpt>
      <trkpt lat="42.5922" lon="2.38842">
        <ele>734</ele>
        <time>2013-08-02T13:46:39Z</time>
      </trkpt>
      <trkpt lat="42.59224" lon="2.3884">
        <ele>735</ele>
        <time>2013-08-02T13:46:43Z</time>
      </trkpt>
      <trkpt lat="42.59228" lon="2.38839">
        <ele>736</ele>
        <time>2013-08-02T13:46:46Z</time>
      </trkpt>
      <trkpt lat="42.59231" lon="2.38839">
        <ele>736</ele>
        <time>2013-08-02T13:46:48Z</time>
      </trkpt>
      <trkpt lat="42.59236" lon="2.38839">
        <ele>738</ele>
        <time>2013-08-02T13:46:53Z</time>
      </trkpt>
      <trkpt lat="42.59241" lon="2.38839">
        <ele>739</ele>
        <time>2013-08-02T13:46:57Z</time>
      </trkpt>
      <trkpt lat="42.59245" lon="2.38837">
        <ele>739</ele>
        <time>2013-08-02T13:47:01Z</time>
      </trkpt>
      <trkpt lat="42.59248" lon="2.38837">
        <ele>740</ele>
        <time>2013-08-02T13:47:05Z</time>
      </trkpt>
      <trkpt lat="42.59251" lon="2.38835">
        <ele>740</ele>
        <time>2013-08-02T13:47:11Z</time>
      </trkpt>
      <trkpt lat="42.59255" lon="2.38834">
        <ele>740</ele>
        <time>2013-08-02T13:47:14Z</time>
      </trkpt>
      <trkpt lat="42.59256" lon="2.38833">
        <ele>740</ele>
        <time>2013-08-02T13:47:16Z</time>
      </trkpt>
      <trkpt lat="42.59258" lon="2.3883">
        <ele>741</ele>
        <time>2013-08-02T13:47:20Z</time>
      </trkpt>
      <trkpt lat="42.59261" lon="2.38826">
        <ele>741</ele>
        <time>2013-08-02T13:47:24Z</time>
      </trkpt>
      <trkpt lat="42.59262" lon="2.38824">
        <ele>741</ele>
        <time>2013-08-02T13:47:27Z</time>
      </trkpt>
      <trkpt lat="42.59263" lon="2.3882">
        <ele>741</ele>
        <time>2013-08-02T13:47:31Z</time>
      </trkpt>
      <trkpt lat="42.59262" lon="2.38815">
        <ele>741</ele>
        <time>2013-08-02T13:47:34Z</time>
      </trkpt>
      <trkpt lat="42.59261" lon="2.3881">
        <ele>741</ele>
        <time>2013-08-02T13:47:37Z</time>
      </trkpt>
      <trkpt lat="42.59262" lon="2.38805">
        <ele>742</ele>
        <time>2013-08-02T13:47:40Z</time>
      </trkpt>
      <trkpt lat="42.59263" lon="2.38799">
        <ele>742</ele>
        <time>2013-08-02T13:47:45Z</time>
      </trkpt>
      <trkpt lat="42.59265" lon="2.38794">
        <ele>742</ele>
        <time>2013-08-02T13:47:49Z</time>
      </trkpt>
      <trkpt lat="42.59266" lon="2.38794">
        <ele>744</ele>
        <time>2013-08-02T13:47:52Z</time>
      </trkpt>
      <trkpt lat="42.59267" lon="2.38793">
        <ele>746</ele>
        <time>2013-08-02T13:48:02Z</time>
      </trkpt>
      <trkpt lat="42.59268" lon="2.38792">
        <ele>749</ele>
        <time>2013-08-02T13:48:11Z</time>
      </trkpt>
      <trkpt lat="42.59269" lon="2.38791">
        <ele>752</ele>
        <time>2013-08-02T13:48:32Z</time>
      </trkpt>
      <trkpt lat="42.59267" lon="2.38792">
        <ele>754</ele>
        <time>2013-08-02T13:48:50Z</time>
      </trkpt>
      <trkpt lat="42.59266" lon="2.38794">
        <ele>754</ele>
        <time>2013-08-02T13:49:03Z</time>
      </trkpt>
      <trkpt lat="42.59267" lon="2.38792">
        <ele>753</ele>
        <time>2013-08-02T13:49:15Z</time>
      </trkpt>
      <trkpt lat="42.5927" lon="2.38788">
        <ele>753</ele>
        <time>2013-08-02T13:49:19Z</time>
      </trkpt>
      <trkpt lat="42.59271" lon="2.38786">
        <ele>753</ele>
        <time>2013-08-02T13:49:21Z</time>
      </trkpt>
      <trkpt lat="42.59273" lon="2.38785">
        <ele>753</ele>
        <time>2013-08-02T13:49:23Z</time>
      </trkpt>
      <trkpt lat="42.59275" lon="2.38783">
        <ele>753</ele>
        <time>2013-08-02T13:49:25Z</time>
      </trkpt>
      <trkpt lat="42.59277" lon="2.38782">
        <ele>753</ele>
        <time>2013-08-02T13:49:27Z</time>
      </trkpt>
      <trkpt lat="42.5928" lon="2.38781">
        <ele>753</ele>
        <time>2013-08-02T13:49:29Z</time>
      </trkpt>
      <trkpt lat="42.59283" lon="2.38781">
        <ele>753</ele>
        <time>2013-08-02T13:49:31Z</time>
      </trkpt>
      <trkpt lat="42.59285" lon="2.3878">
        <ele>753</ele>
        <time>2013-08-02T13:49:33Z</time>
      </trkpt>
      <trkpt lat="42.59288" lon="2.38779">
        <ele>753</ele>
        <time>2013-08-02T13:49:35Z</time>
      </trkpt>
      <trkpt lat="42.5929" lon="2.38779">
        <ele>753</ele>
        <time>2013-08-02T13:49:37Z</time>
      </trkpt>
      <trkpt lat="42.59293" lon="2.38777">
        <ele>753</ele>
        <time>2013-08-02T13:49:39Z</time>
      </trkpt>
      <trkpt lat="42.59296" lon="2.38776">
        <ele>753</ele>
        <time>2013-08-02T13:49:41Z</time>
      </trkpt>
      <trkpt lat="42.59298" lon="2.38775">
        <ele>753</ele>
        <time>2013-08-02T13:49:43Z</time>
      </trkpt>
      <trkpt lat="42.59301" lon="2.38773">
        <ele>753</ele>
        <time>2013-08-02T13:49:45Z</time>
      </trkpt>
      <trkpt lat="42.59304" lon="2.38772">
        <ele>753</ele>
        <time>2013-08-02T13:49:47Z</time>
      </trkpt>
      <trkpt lat="42.59306" lon="2.38771">
        <ele>754</ele>
        <time>2013-08-02T13:49:49Z</time>
      </trkpt>
      <trkpt lat="42.59308" lon="2.3877">
        <ele>754</ele>
        <time>2013-08-02T13:49:51Z</time>
      </trkpt>
      <trkpt lat="42.5931" lon="2.38769">
        <ele>755</ele>
        <time>2013-08-02T13:49:53Z</time>
      </trkpt>
      <trkpt lat="42.59312" lon="2.38767">
        <ele>755</ele>
        <time>2013-08-02T13:49:55Z</time>
      </trkpt>
      <trkpt lat="42.59314" lon="2.38766">
        <ele>756</ele>
        <time>2013-08-02T13:49:57Z</time>
      </trkpt>
      <trkpt lat="42.59316" lon="2.38764">
        <ele>756</ele>
        <time>2013-08-02T13:49:59Z</time>
      </trkpt>
      <trkpt lat="42.59318" lon="2.38762">
        <ele>757</ele>
        <time>2013-08-02T13:50:01Z</time>
      </trkpt>
      <trkpt lat="42.59321" lon="2.38761">
        <ele>757</ele>
        <time>2013-08-02T13:50:03Z</time>
      </trkpt>
      <trkpt lat="42.59323" lon="2.3876">
        <ele>757</ele>
        <time>2013-08-02T13:50:05Z</time>
      </trkpt>
      <trkpt lat="42.59326" lon="2.38759">
        <ele>757</ele>
        <time>2013-08-02T13:50:07Z</time>
      </trkpt>
      <trkpt lat="42.59328" lon="2.38758">
        <ele>758</ele>
        <time>2013-08-02T13:50:09Z</time>
      </trkpt>
      <trkpt lat="42.5933" lon="2.38758">
        <ele>758</ele>
        <time>2013-08-02T13:50:11Z</time>
      </trkpt>
      <trkpt lat="42.59333" lon="2.38757">
        <ele>758</ele>
        <time>2013-08-02T13:50:13Z</time>
      </trkpt>
      <trkpt lat="42.59335" lon="2.38756">
        <ele>758</ele>
        <time>2013-08-02T13:50:15Z</time>
      </trkpt>
      <trkpt lat="42.59338" lon="2.38755">
        <ele>758</ele>
        <time>2013-08-02T13:50:17Z</time>
      </trkpt>
      <trkpt lat="42.59339" lon="2.38753">
        <ele>758</ele>
        <time>2013-08-02T13:50:19Z</time>
      </trkpt>
      <trkpt lat="42.59341" lon="2.38752">
        <ele>759</ele>
        <time>2013-08-02T13:50:21Z</time>
      </trkpt>
      <trkpt lat="42.59344" lon="2.38752">
        <ele>759</ele>
        <time>2013-08-02T13:50:23Z</time>
      </trkpt>
      <trkpt lat="42.59346" lon="2.3875">
        <ele>760</ele>
        <time>2013-08-02T13:50:25Z</time>
      </trkpt>
      <trkpt lat="42.59349" lon="2.3875">
        <ele>760</ele>
        <time>2013-08-02T13:50:27Z</time>
      </trkpt>
      <trkpt lat="42.59351" lon="2.3875">
        <ele>761</ele>
        <time>2013-08-02T13:50:29Z</time>
      </trkpt>
      <trkpt lat="42.59354" lon="2.3875">
        <ele>761</ele>
        <time>2013-08-02T13:50:31Z</time>
      </trkpt>
      <trkpt lat="42.59356" lon="2.38749">
        <ele>761</ele>
        <time>2013-08-02T13:50:33Z</time>
      </trkpt>
      <trkpt lat="42.59359" lon="2.38748">
        <ele>761</ele>
        <time>2013-08-02T13:50:36Z</time>
      </trkpt>
      <trkpt lat="42.59362" lon="2.38748">
        <ele>761</ele>
        <time>2013-08-02T13:50:38Z</time>
      </trkpt>
      <trkpt lat="42.59364" lon="2.38747">
        <ele>761</ele>
        <time>2013-08-02T13:50:40Z</time>
      </trkpt>
      <trkpt lat="42.59366" lon="2.38746">
        <ele>761</ele>
        <time>2013-08-02T13:50:42Z</time>
      </trkpt>
      <trkpt lat="42.59369" lon="2.38745">
        <ele>761</ele>
        <time>2013-08-02T13:50:44Z</time>
      </trkpt>
      <trkpt lat="42.59371" lon="2.38744">
        <ele>761</ele>
        <time>2013-08-02T13:50:46Z</time>
      </trkpt>
      <trkpt lat="42.59374" lon="2.38741">
        <ele>761</ele>
        <time>2013-08-02T13:50:48Z</time>
      </trkpt>
      <trkpt lat="42.59375" lon="2.38739">
        <ele>761</ele>
        <time>2013-08-02T13:50:50Z</time>
      </trkpt>
      <trkpt lat="42.59375" lon="2.38735">
        <ele>761</ele>
        <time>2013-08-02T13:50:52Z</time>
      </trkpt>
      <trkpt lat="42.59376" lon="2.38732">
        <ele>761</ele>
        <time>2013-08-02T13:50:54Z</time>
      </trkpt>
      <trkpt lat="42.59377" lon="2.38729">
        <ele>761</ele>
        <time>2013-08-02T13:50:56Z</time>
      </trkpt>
      <trkpt lat="42.59377" lon="2.38725">
        <ele>761</ele>
        <time>2013-08-02T13:50:59Z</time>
      </trkpt>
      <trkpt lat="42.59378" lon="2.38722">
        <ele>761</ele>
        <time>2013-08-02T13:51:01Z</time>
      </trkpt>
      <trkpt lat="42.59379" lon="2.38719">
        <ele>761</ele>
        <time>2013-08-02T13:51:03Z</time>
      </trkpt>
      <trkpt lat="42.59381" lon="2.38716">
        <ele>761</ele>
        <time>2013-08-02T13:51:05Z</time>
      </trkpt>
      <trkpt lat="42.59383" lon="2.38715">
        <ele>761</ele>
        <time>2013-08-02T13:51:07Z</time>
      </trkpt>
      <trkpt lat="42.59384" lon="2.38712">
        <ele>761</ele>
        <time>2013-08-02T13:51:09Z</time>
      </trkpt>
      <trkpt lat="42.59385" lon="2.38711">
        <ele>761</ele>
        <time>2013-08-02T13:51:11Z</time>
      </trkpt>
      <trkpt lat="42.59388" lon="2.38708">
        <ele>761</ele>
        <time>2013-08-02T13:51:13Z</time>
      </trkpt>
      <trkpt lat="42.5939" lon="2.38706">
        <ele>761</ele>
        <time>2013-08-02T13:51:15Z</time>
      </trkpt>
      <trkpt lat="42.59391" lon="2.38703">
        <ele>761</ele>
        <time>2013-08-02T13:51:17Z</time>
      </trkpt>
      <trkpt lat="42.59392" lon="2.387">
        <ele>761</ele>
        <time>2013-08-02T13:51:19Z</time>
      </trkpt>
      <trkpt lat="42.59395" lon="2.38696">
        <ele>761</ele>
        <time>2013-08-02T13:51:22Z</time>
      </trkpt>
      <trkpt lat="42.59396" lon="2.38693">
        <ele>761</ele>
        <time>2013-08-02T13:51:24Z</time>
      </trkpt>
      <trkpt lat="42.59397" lon="2.38691">
        <ele>761</ele>
        <time>2013-08-02T13:51:26Z</time>
      </trkpt>
      <trkpt lat="42.59398" lon="2.38688">
        <ele>760</ele>
        <time>2013-08-02T13:51:28Z</time>
      </trkpt>
      <trkpt lat="42.59399" lon="2.38686">
        <ele>759</ele>
        <time>2013-08-02T13:51:30Z</time>
      </trkpt>
      <trkpt lat="42.59401" lon="2.38684">
        <ele>758</ele>
        <time>2013-08-02T13:51:32Z</time>
      </trkpt>
      <trkpt lat="42.59402" lon="2.38682">
        <ele>757</ele>
        <time>2013-08-02T13:51:34Z</time>
      </trkpt>
      <trkpt lat="42.59404" lon="2.38679">
        <ele>756</ele>
        <time>2013-08-02T13:51:36Z</time>
      </trkpt>
      <trkpt lat="42.59407" lon="2.38675">
        <ele>756</ele>
        <time>2013-08-02T13:51:39Z</time>
      </trkpt>
      <trkpt lat="42.5941" lon="2.38671">
        <ele>756</ele>
        <time>2013-08-02T13:51:42Z</time>
      </trkpt>
      <trkpt lat="42.59411" lon="2.38668">
        <ele>756</ele>
        <time>2013-08-02T13:51:44Z</time>
      </trkpt>
      <trkpt lat="42.59413" lon="2.38664">
        <ele>756</ele>
        <time>2013-08-02T13:51:47Z</time>
      </trkpt>
      <trkpt lat="42.59414" lon="2.38661">
        <ele>756</ele>
        <time>2013-08-02T13:51:49Z</time>
      </trkpt>
      <trkpt lat="42.59415" lon="2.38658">
        <ele>756</ele>
        <time>2013-08-02T13:51:51Z</time>
      </trkpt>
      <trkpt lat="42.59417" lon="2.38654">
        <ele>756</ele>
        <time>2013-08-02T13:51:54Z</time>
      </trkpt>
      <trkpt lat="42.5942" lon="2.38648">
        <ele>756</ele>
        <time>2013-08-02T13:51:58Z</time>
      </trkpt>
      <trkpt lat="42.59423" lon="2.38643">
        <ele>756</ele>
        <time>2013-08-02T13:52:02Z</time>
      </trkpt>
      <trkpt lat="42.59424" lon="2.38638">
        <ele>757</ele>
        <time>2013-08-02T13:52:05Z</time>
      </trkpt>
      <trkpt lat="42.59426" lon="2.38635">
        <ele>757</ele>
        <time>2013-08-02T13:52:08Z</time>
      </trkpt>
      <trkpt lat="42.59429" lon="2.38629">
        <ele>757</ele>
        <time>2013-08-02T13:52:12Z</time>
      </trkpt>
      <trkpt lat="42.5943" lon="2.38625">
        <ele>757</ele>
        <time>2013-08-02T13:52:16Z</time>
      </trkpt>
      <trkpt lat="42.59432" lon="2.38618">
        <ele>757</ele>
        <time>2013-08-02T13:52:20Z</time>
      </trkpt>
      <trkpt lat="42.59434" lon="2.38613">
        <ele>757</ele>
        <time>2013-08-02T13:52:24Z</time>
      </trkpt>
      <trkpt lat="42.59437" lon="2.38608">
        <ele>757</ele>
        <time>2013-08-02T13:52:28Z</time>
      </trkpt>
      <trkpt lat="42.59437" lon="2.38605">
        <ele>757</ele>
        <time>2013-08-02T13:52:31Z</time>
      </trkpt>
      <trkpt lat="42.59441" lon="2.38599">
        <ele>757</ele>
        <time>2013-08-02T13:52:35Z</time>
      </trkpt>
      <trkpt lat="42.59442" lon="2.38598">
        <ele>757</ele>
        <time>2013-08-02T13:52:42Z</time>
      </trkpt>
      <trkpt lat="42.59443" lon="2.38599">
        <ele>757</ele>
        <time>2013-08-02T13:52:48Z</time>
      </trkpt>
      <trkpt lat="42.59444" lon="2.38595">
        <ele>757</ele>
        <time>2013-08-02T13:52:52Z</time>
      </trkpt>
      <trkpt lat="42.59445" lon="2.38591">
        <ele>757</ele>
        <time>2013-08-02T13:52:54Z</time>
      </trkpt>
      <trkpt lat="42.59447" lon="2.38587">
        <ele>757</ele>
        <time>2013-08-02T13:52:57Z</time>
      </trkpt>
      <trkpt lat="42.59447" lon="2.38583">
        <ele>757</ele>
        <time>2013-08-02T13:53:01Z</time>
      </trkpt>
      <trkpt lat="42.59448" lon="2.38578">
        <ele>757</ele>
        <time>2013-08-02T13:53:03Z</time>
      </trkpt>
      <trkpt lat="42.59449" lon="2.38574">
        <ele>757</ele>
        <time>2013-08-02T13:53:07Z</time>
      </trkpt>
      <trkpt lat="42.59452" lon="2.38567">
        <ele>757</ele>
        <time>2013-08-02T13:53:11Z</time>
      </trkpt>
      <trkpt lat="42.59454" lon="2.38562">
        <ele>759</ele>
        <time>2013-08-02T13:53:15Z</time>
      </trkpt>
      <trkpt lat="42.59455" lon="2.38558">
        <ele>761</ele>
        <time>2013-08-02T13:53:18Z</time>
      </trkpt>
      <trkpt lat="42.59455" lon="2.38555">
        <ele>761</ele>
        <time>2013-08-02T13:53:21Z</time>
      </trkpt>
      <trkpt lat="42.59454" lon="2.3855">
        <ele>761</ele>
        <time>2013-08-02T13:53:24Z</time>
      </trkpt>
      <trkpt lat="42.59454" lon="2.38547">
        <ele>761</ele>
        <time>2013-08-02T13:53:27Z</time>
      </trkpt>
      <trkpt lat="42.59454" lon="2.38543">
        <ele>761</ele>
        <time>2013-08-02T13:53:29Z</time>
      </trkpt>
      <trkpt lat="42.59453" lon="2.3854">
        <ele>762</ele>
        <time>2013-08-02T13:53:32Z</time>
      </trkpt>
      <trkpt lat="42.59452" lon="2.38533">
        <ele>763</ele>
        <time>2013-08-02T13:53:36Z</time>
      </trkpt>
      <trkpt lat="42.5945" lon="2.38526">
        <ele>763</ele>
        <time>2013-08-02T13:53:40Z</time>
      </trkpt>
      <trkpt lat="42.59449" lon="2.38522">
        <ele>764</ele>
        <time>2013-08-02T13:53:43Z</time>
      </trkpt>
      <trkpt lat="42.59449" lon="2.38519">
        <ele>764</ele>
        <time>2013-08-02T13:53:46Z</time>
      </trkpt>
      <trkpt lat="42.59448" lon="2.38512">
        <ele>765</ele>
        <time>2013-08-02T13:53:50Z</time>
      </trkpt>
      <trkpt lat="42.59447" lon="2.38506">
        <ele>765</ele>
        <time>2013-08-02T13:53:54Z</time>
      </trkpt>
      <trkpt lat="42.59446" lon="2.385">
        <ele>766</ele>
        <time>2013-08-02T13:53:59Z</time>
      </trkpt>
      <trkpt lat="42.59445" lon="2.38496">
        <ele>766</ele>
        <time>2013-08-02T13:54:01Z</time>
      </trkpt>
      <trkpt lat="42.59445" lon="2.38493">
        <ele>766</ele>
        <time>2013-08-02T13:54:03Z</time>
      </trkpt>
      <trkpt lat="42.59444" lon="2.38488">
        <ele>766</ele>
        <time>2013-08-02T13:54:07Z</time>
      </trkpt>
      <trkpt lat="42.59442" lon="2.38481">
        <ele>767</ele>
        <time>2013-08-02T13:54:12Z</time>
      </trkpt>
      <trkpt lat="42.5944" lon="2.38474">
        <ele>769</ele>
        <time>2013-08-02T13:54:16Z</time>
      </trkpt>
      <trkpt lat="42.59438" lon="2.38467">
        <ele>770</ele>
        <time>2013-08-02T13:54:21Z</time>
      </trkpt>
      <trkpt lat="42.59439" lon="2.3846">
        <ele>771</ele>
        <time>2013-08-02T13:54:27Z</time>
      </trkpt>
      <trkpt lat="42.59438" lon="2.38455">
        <ele>772</ele>
        <time>2013-08-02T13:54:31Z</time>
      </trkpt>
      <trkpt lat="42.59439" lon="2.38454">
        <ele>774</ele>
        <time>2013-08-02T13:54:39Z</time>
      </trkpt>
      <trkpt lat="42.59439" lon="2.38452">
        <ele>775</ele>
        <time>2013-08-02T13:54:43Z</time>
      </trkpt>
      <trkpt lat="42.5944" lon="2.38451">
        <ele>779</ele>
        <time>2013-08-02T13:54:50Z</time>
      </trkpt>
      <trkpt lat="42.59438" lon="2.3845">
        <ele>779</ele>
        <time>2013-08-02T13:54:52Z</time>
      </trkpt>
      <trkpt lat="42.59436" lon="2.3845">
        <ele>779</ele>
        <time>2013-08-02T13:54:55Z</time>
      </trkpt>
      <trkpt lat="42.59435" lon="2.3845">
        <ele>779</ele>
        <time>2013-08-02T13:55:01Z</time>
      </trkpt>
      <trkpt lat="42.59436" lon="2.38449">
        <ele>779</ele>
        <time>2013-08-02T13:55:14Z</time>
      </trkpt>
      <trkpt lat="42.59434" lon="2.3845">
        <ele>779</ele>
        <time>2013-08-02T13:55:20Z</time>
      </trkpt>
      <trkpt lat="42.59432" lon="2.3845">
        <ele>779</ele>
        <time>2013-08-02T13:55:22Z</time>
      </trkpt>
      <trkpt lat="42.59428" lon="2.3845">
        <ele>779</ele>
        <time>2013-08-02T13:55:25Z</time>
      </trkpt>
      <trkpt lat="42.59426" lon="2.38451">
        <ele>779</ele>
        <time>2013-08-02T13:55:27Z</time>
      </trkpt>
      <trkpt lat="42.59423" lon="2.38451">
        <ele>779</ele>
        <time>2013-08-02T13:55:30Z</time>
      </trkpt>
      <trkpt lat="42.5942" lon="2.38452">
        <ele>778</ele>
        <time>2013-08-02T13:55:34Z</time>
      </trkpt>
      <trkpt lat="42.59419" lon="2.38451">
        <ele>777</ele>
        <time>2013-08-02T13:55:40Z</time>
      </trkpt>
      <trkpt lat="42.59419" lon="2.38449">
        <ele>776</ele>
        <time>2013-08-02T13:55:45Z</time>
      </trkpt>
      <trkpt lat="42.59415" lon="2.38448">
        <ele>776</ele>
        <time>2013-08-02T13:55:51Z</time>
      </trkpt>
      <trkpt lat="42.59413" lon="2.38447">
        <ele>774</ele>
        <time>2013-08-02T13:55:53Z</time>
      </trkpt>
      <trkpt lat="42.59412" lon="2.38446">
        <ele>773</ele>
        <time>2013-08-02T13:55:56Z</time>
      </trkpt>
      <trkpt lat="42.59408" lon="2.38445">
        <ele>770</ele>
        <time>2013-08-02T13:55:59Z</time>
      </trkpt>
      <trkpt lat="42.59407" lon="2.38445">
        <ele>766</ele>
        <time>2013-08-02T13:56:03Z</time>
      </trkpt>
      <trkpt lat="42.59411" lon="2.38444">
        <ele>761</ele>
        <time>2013-08-02T13:56:08Z</time>
      </trkpt>
      <trkpt lat="42.59414" lon="2.38446">
        <ele>760</ele>
        <time>2013-08-02T13:56:12Z</time>
      </trkpt>
      <trkpt lat="42.59415" lon="2.38447">
        <ele>762</ele>
        <time>2013-08-02T13:56:16Z</time>
      </trkpt>
      <trkpt lat="42.59421" lon="2.38438">
        <ele>766</ele>
        <time>2013-08-02T13:56:23Z</time>
      </trkpt>
      <trkpt lat="42.59421" lon="2.38452">
        <ele>768</ele>
        <time>2013-08-02T13:56:42Z</time>
      </trkpt>
      <trkpt lat="42.59422" lon="2.38454">
        <ele>769</ele>
        <time>2013-08-02T13:56:45Z</time>
      </trkpt>
      <trkpt lat="42.59424" lon="2.38453">
        <ele>772</ele>
        <time>2013-08-02T13:56:48Z</time>
      </trkpt>
      <trkpt lat="42.59426" lon="2.38452">
        <ele>777</ele>
        <time>2013-08-02T13:56:59Z</time>
      </trkpt>
      <trkpt lat="42.5943" lon="2.38451">
        <ele>780</ele>
        <time>2013-08-02T13:57:04Z</time>
      </trkpt>
      <trkpt lat="42.59432" lon="2.38451">
        <ele>781</ele>
        <time>2013-08-02T13:57:06Z</time>
      </trkpt>
      <trkpt lat="42.59435" lon="2.38451">
        <ele>781</ele>
        <time>2013-08-02T13:57:09Z</time>
      </trkpt>
      <trkpt lat="42.59439" lon="2.3845">
        <ele>781</ele>
        <time>2013-08-02T13:57:14Z</time>
      </trkpt>
      <trkpt lat="42.59437" lon="2.38445">
        <ele>781</ele>
        <time>2013-08-02T13:57:16Z</time>
      </trkpt>
      <trkpt lat="42.59437" lon="2.3844">
        <ele>781</ele>
        <time>2013-08-02T13:57:21Z</time>
      </trkpt>
      <trkpt lat="42.59436" lon="2.38434">
        <ele>781</ele>
        <time>2013-08-02T13:57:24Z</time>
      </trkpt>
      <trkpt lat="42.59435" lon="2.38429">
        <ele>780</ele>
        <time>2013-08-02T13:57:27Z</time>
      </trkpt>
      <trkpt lat="42.59435" lon="2.38424">
        <ele>779</ele>
        <time>2013-08-02T13:57:30Z</time>
      </trkpt>
      <trkpt lat="42.59434" lon="2.38417">
        <ele>777</ele>
        <time>2013-08-02T13:57:34Z</time>
      </trkpt>
      <trkpt lat="42.59433" lon="2.3841">
        <ele>776</ele>
        <time>2013-08-02T13:57:39Z</time>
      </trkpt>
      <trkpt lat="42.59433" lon="2.38403">
        <ele>776</ele>
        <time>2013-08-02T13:57:43Z</time>
      </trkpt>
      <trkpt lat="42.59432" lon="2.38397">
        <ele>776</ele>
        <time>2013-08-02T13:57:48Z</time>
      </trkpt>
      <trkpt lat="42.5943" lon="2.3839">
        <ele>776</ele>
        <time>2013-08-02T13:57:52Z</time>
      </trkpt>
      <trkpt lat="42.59427" lon="2.38383">
        <ele>776</ele>
        <time>2013-08-02T13:57:56Z</time>
      </trkpt>
      <trkpt lat="42.59426" lon="2.3838">
        <ele>776</ele>
        <time>2013-08-02T13:58:10Z</time>
      </trkpt>
      <trkpt lat="42.59425" lon="2.38377">
        <ele>776</ele>
        <time>2013-08-02T13:58:15Z</time>
      </trkpt>
      <trkpt lat="42.59425" lon="2.3837">
        <ele>776</ele>
        <time>2013-08-02T13:58:20Z</time>
      </trkpt>
      <trkpt lat="42.59425" lon="2.38365">
        <ele>776</ele>
        <time>2013-08-02T13:58:24Z</time>
      </trkpt>
      <trkpt lat="42.59425" lon="2.38363">
        <ele>776</ele>
        <time>2013-08-02T13:58:28Z</time>
      </trkpt>
      <trkpt lat="42.59424" lon="2.38366">
        <ele>777</ele>
        <time>2013-08-02T13:58:42Z</time>
      </trkpt>
      <trkpt lat="42.59425" lon="2.3837">
        <ele>777</ele>
        <time>2013-08-02T13:58:45Z</time>
      </trkpt>
      <trkpt lat="42.59423" lon="2.38375">
        <ele>777</ele>
        <time>2013-08-02T13:58:48Z</time>
      </trkpt>
      <trkpt lat="42.59422" lon="2.38376">
        <ele>777</ele>
        <time>2013-08-02T13:58:50Z</time>
      </trkpt>
      <trkpt lat="42.59418" lon="2.38376">
        <ele>777</ele>
        <time>2013-08-02T13:58:54Z</time>
      </trkpt>
      <trkpt lat="42.59413" lon="2.38374">
        <ele>777</ele>
        <time>2013-08-02T13:58:59Z</time>
      </trkpt>
      <trkpt lat="42.5941" lon="2.38371">
        <ele>777</ele>
        <time>2013-08-02T13:59:03Z</time>
      </trkpt>
      <trkpt lat="42.59406" lon="2.38367">
        <ele>777</ele>
        <time>2013-08-02T13:59:08Z</time>
      </trkpt>
      <trkpt lat="42.59404" lon="2.38365">
        <ele>778</ele>
        <time>2013-08-02T13:59:10Z</time>
      </trkpt>
      <trkpt lat="42.59403" lon="2.38364">
        <ele>778</ele>
        <time>2013-08-02T13:59:13Z</time>
      </trkpt>
      <trkpt lat="42.594" lon="2.38362">
        <ele>779</ele>
        <time>2013-08-02T13:59:16Z</time>
      </trkpt>
      <trkpt lat="42.59399" lon="2.38362">
        <ele>780</ele>
        <time>2013-08-02T13:59:18Z</time>
      </trkpt>
      <trkpt lat="42.59395" lon="2.3836">
        <ele>781</ele>
        <time>2013-08-02T13:59:23Z</time>
      </trkpt>
      <trkpt lat="42.59394" lon="2.3836">
        <ele>781</ele>
        <time>2013-08-02T13:59:25Z</time>
      </trkpt>
      <trkpt lat="42.59392" lon="2.38359">
        <ele>782</ele>
        <time>2013-08-02T13:59:27Z</time>
      </trkpt>
      <trkpt lat="42.59391" lon="2.38359">
        <ele>782</ele>
        <time>2013-08-02T13:59:29Z</time>
      </trkpt>
      <trkpt lat="42.59389" lon="2.38361">
        <ele>783</ele>
        <time>2013-08-02T13:59:34Z</time>
      </trkpt>
      <trkpt lat="42.59388" lon="2.38365">
        <ele>783</ele>
        <time>2013-08-02T13:59:38Z</time>
      </trkpt>
      <trkpt lat="42.59387" lon="2.38367">
        <ele>783</ele>
        <time>2013-08-02T13:59:42Z</time>
      </trkpt>
      <trkpt lat="42.59386" lon="2.38371">
        <ele>783</ele>
        <time>2013-08-02T13:59:45Z</time>
      </trkpt>
      <trkpt lat="42.59384" lon="2.38373">
        <ele>784</ele>
        <time>2013-08-02T13:59:55Z</time>
      </trkpt>
      <trkpt lat="42.59381" lon="2.38376">
        <ele>784</ele>
        <time>2013-08-02T13:59:59Z</time>
      </trkpt>
      <trkpt lat="42.5938" lon="2.38377">
        <ele>785</ele>
        <time>2013-08-02T14:00:01Z</time>
      </trkpt>
      <trkpt lat="42.59377" lon="2.38378">
        <ele>786</ele>
        <time>2013-08-02T14:00:06Z</time>
      </trkpt>
      <trkpt lat="42.59375" lon="2.38379">
        <ele>786</ele>
        <time>2013-08-02T14:00:10Z</time>
      </trkpt>
      <trkpt lat="42.59373" lon="2.3838">
        <ele>786</ele>
        <time>2013-08-02T14:00:13Z</time>
      </trkpt>
      <trkpt lat="42.59372" lon="2.38381">
        <ele>786</ele>
        <time>2013-08-02T14:00:15Z</time>
      </trkpt>
      <trkpt lat="42.5937" lon="2.38383">
        <ele>787</ele>
        <time>2013-08-02T14:00:19Z</time>
      </trkpt>
      <trkpt lat="42.5937" lon="2.38384">
        <ele>788</ele>
        <time>2013-08-02T14:00:23Z</time>
      </trkpt>
      <trkpt lat="42.59368" lon="2.38385">
        <ele>789</ele>
        <time>2013-08-02T14:00:27Z</time>
      </trkpt>
      <trkpt lat="42.59366" lon="2.38385">
        <ele>790</ele>
        <time>2013-08-02T14:00:33Z</time>
      </trkpt>
      <trkpt lat="42.59365" lon="2.38386">
        <ele>791</ele>
        <time>2013-08-02T14:00:40Z</time>
      </trkpt>
      <trkpt lat="42.59364" lon="2.38387">
        <ele>792</ele>
        <time>2013-08-02T14:00:42Z</time>
      </trkpt>
      <trkpt lat="42.59362" lon="2.38389">
        <ele>792</ele>
        <time>2013-08-02T14:00:46Z</time>
      </trkpt>
      <trkpt lat="42.5936" lon="2.38389">
        <ele>792</ele>
        <time>2013-08-02T14:00:49Z</time>
      </trkpt>
      <trkpt lat="42.59359" lon="2.3839">
        <ele>792</ele>
        <time>2013-08-02T14:00:53Z</time>
      </trkpt>
      <trkpt lat="42.59358" lon="2.38391">
        <ele>793</ele>
        <time>2013-08-02T14:01:05Z</time>
      </trkpt>
      <trkpt lat="42.59356" lon="2.38392">
        <ele>793</ele>
        <time>2013-08-02T14:01:07Z</time>
      </trkpt>
      <trkpt lat="42.59355" lon="2.38393">
        <ele>794</ele>
        <time>2013-08-02T14:01:11Z</time>
      </trkpt>
      <trkpt lat="42.59353" lon="2.38393">
        <ele>794</ele>
        <time>2013-08-02T14:01:13Z</time>
      </trkpt>
      <trkpt lat="42.59352" lon="2.38394">
        <ele>794</ele>
        <time>2013-08-02T14:01:18Z</time>
      </trkpt>
      <trkpt lat="42.59349" lon="2.38394">
        <ele>795</ele>
        <time>2013-08-02T14:01:20Z</time>
      </trkpt>
      <trkpt lat="42.59348" lon="2.38396">
        <ele>795</ele>
        <time>2013-08-02T14:01:23Z</time>
      </trkpt>
      <trkpt lat="42.59346" lon="2.38398">
        <ele>796</ele>
        <time>2013-08-02T14:01:26Z</time>
      </trkpt>
      <trkpt lat="42.59344" lon="2.38399">
        <ele>797</ele>
        <time>2013-08-02T14:01:30Z</time>
      </trkpt>
      <trkpt lat="42.59343" lon="2.384">
        <ele>797</ele>
        <time>2013-08-02T14:01:32Z</time>
      </trkpt>
      <trkpt lat="42.59341" lon="2.384">
        <ele>797</ele>
        <time>2013-08-02T14:01:36Z</time>
      </trkpt>
      <trkpt lat="42.5934" lon="2.38399">
        <ele>798</ele>
        <time>2013-08-02T14:01:38Z</time>
      </trkpt>
      <trkpt lat="42.59339" lon="2.38398">
        <ele>799</ele>
        <time>2013-08-02T14:01:43Z</time>
      </trkpt>
      <trkpt lat="42.59337" lon="2.38399">
        <ele>800</ele>
        <time>2013-08-02T14:01:46Z</time>
      </trkpt>
      <trkpt lat="42.59336" lon="2.384">
        <ele>801</ele>
        <time>2013-08-02T14:01:49Z</time>
      </trkpt>
      <trkpt lat="42.59334" lon="2.38402">
        <ele>802</ele>
        <time>2013-08-02T14:01:53Z</time>
      </trkpt>
      <trkpt lat="42.59333" lon="2.38404">
        <ele>802</ele>
        <time>2013-08-02T14:01:59Z</time>
      </trkpt>
      <trkpt lat="42.59332" lon="2.38405">
        <ele>802</ele>
        <time>2013-08-02T14:02:03Z</time>
      </trkpt>
      <trkpt lat="42.59329" lon="2.38406">
        <ele>802</ele>
        <time>2013-08-02T14:02:06Z</time>
      </trkpt>
      <trkpt lat="42.59327" lon="2.38406">
        <ele>802</ele>
        <time>2013-08-02T14:02:10Z</time>
      </trkpt>
      <trkpt lat="42.59326" lon="2.38408">
        <ele>802</ele>
        <time>2013-08-02T14:02:12Z</time>
      </trkpt>
      <trkpt lat="42.59324" lon="2.38411">
        <ele>802</ele>
        <time>2013-08-02T14:02:17Z</time>
      </trkpt>
      <trkpt lat="42.59324" lon="2.38414">
        <ele>803</ele>
        <time>2013-08-02T14:02:35Z</time>
      </trkpt>
      <trkpt lat="42.59322" lon="2.38414">
        <ele>803</ele>
        <time>2013-08-02T14:02:38Z</time>
      </trkpt>
      <trkpt lat="42.59322" lon="2.38413">
        <ele>803</ele>
        <time>2013-08-02T14:02:48Z</time>
      </trkpt>
      <trkpt lat="42.5932" lon="2.38413">
        <ele>804</ele>
        <time>2013-08-02T14:02:56Z</time>
      </trkpt>
      <trkpt lat="42.59318" lon="2.3841">
        <ele>804</ele>
        <time>2013-08-02T14:03:00Z</time>
      </trkpt>
      <trkpt lat="42.59317" lon="2.3841">
        <ele>804</ele>
        <time>2013-08-02T14:03:04Z</time>
      </trkpt>
      <trkpt lat="42.59315" lon="2.38407">
        <ele>805</ele>
        <time>2013-08-02T14:03:08Z</time>
      </trkpt>
      <trkpt lat="42.59316" lon="2.38408">
        <ele>805</ele>
        <time>2013-08-02T14:03:22Z</time>
      </trkpt>
      <trkpt lat="42.59313" lon="2.3841">
        <ele>805</ele>
        <time>2013-08-02T14:03:29Z</time>
      </trkpt>
      <trkpt lat="42.59312" lon="2.38409">
        <ele>805</ele>
        <time>2013-08-02T14:03:31Z</time>
      </trkpt>
      <trkpt lat="42.59311" lon="2.38406">
        <ele>805</ele>
        <time>2013-08-02T14:03:35Z</time>
      </trkpt>
      <trkpt lat="42.59307" lon="2.38408">
        <ele>805</ele>
        <time>2013-08-02T14:03:52Z</time>
      </trkpt>
      <trkpt lat="42.59311" lon="2.38408">
        <ele>805</ele>
        <time>2013-08-02T14:03:55Z</time>
      </trkpt>
      <trkpt lat="42.59312" lon="2.38409">
        <ele>805</ele>
        <time>2013-08-02T14:03:57Z</time>
      </trkpt>
      <trkpt lat="42.59311" lon="2.38414">
        <ele>805</ele>
        <time>2013-08-02T14:04:02Z</time>
      </trkpt>
      <trkpt lat="42.59311" lon="2.38416">
        <ele>805</ele>
        <time>2013-08-02T14:04:04Z</time>
      </trkpt>
      <trkpt lat="42.5931" lon="2.38419">
        <ele>805</ele>
        <time>2013-08-02T14:04:09Z</time>
      </trkpt>
      <trkpt lat="42.59311" lon="2.38422">
        <ele>805</ele>
        <time>2013-08-02T14:04:24Z</time>
      </trkpt>
      <trkpt lat="42.5931" lon="2.38425">
        <ele>805</ele>
        <time>2013-08-02T14:04:28Z</time>
      </trkpt>
      <trkpt lat="42.59308" lon="2.38425">
        <ele>805</ele>
        <time>2013-08-02T14:04:30Z</time>
      </trkpt>
      <trkpt lat="42.59307" lon="2.38428">
        <ele>805</ele>
        <time>2013-08-02T14:04:35Z</time>
      </trkpt>
      <trkpt lat="42.59305" lon="2.38429">
        <ele>805</ele>
        <time>2013-08-02T14:04:42Z</time>
      </trkpt>
      <trkpt lat="42.59302" lon="2.38429">
        <ele>805</ele>
        <time>2013-08-02T14:04:50Z</time>
      </trkpt>
      <trkpt lat="42.59303" lon="2.38431">
        <ele>805</ele>
        <time>2013-08-02T14:05:12Z</time>
      </trkpt>
      <trkpt lat="42.59303" lon="2.38429">
        <ele>805</ele>
        <time>2013-08-02T14:05:30Z</time>
      </trkpt>
      <trkpt lat="42.59302" lon="2.38427">
        <ele>805</ele>
        <time>2013-08-02T14:05:56Z</time>
      </trkpt>
      <trkpt lat="42.59301" lon="2.38428">
        <ele>805</ele>
        <time>2013-08-02T14:05:58Z</time>
      </trkpt>
      <trkpt lat="42.59302" lon="2.38429">
        <ele>805</ele>
        <time>2013-08-02T14:06:19Z</time>
      </trkpt>
      <trkpt lat="42.59303" lon="2.38429">
        <ele>805</ele>
        <time>2013-08-02T14:06:40Z</time>
      </trkpt>
      <trkpt lat="42.59302" lon="2.38429">
        <ele>806</ele>
        <time>2013-08-02T14:07:10Z</time>
      </trkpt>
      <trkpt lat="42.59303" lon="2.3843">
        <ele>806</ele>
        <time>2013-08-02T14:07:50Z</time>
      </trkpt>
      <trkpt lat="42.59303" lon="2.38431">
        <ele>806</ele>
        <time>2013-08-02T14:08:08Z</time>
      </trkpt>
      <trkpt lat="42.59303" lon="2.38433">
        <ele>806</ele>
        <time>2013-08-02T14:08:21Z</time>
      </trkpt>
      <trkpt lat="42.59302" lon="2.38432">
        <ele>806</ele>
        <time>2013-08-02T14:08:51Z</time>
      </trkpt>
      <trkpt lat="42.59302" lon="2.38429">
        <ele>806</ele>
        <time>2013-08-02T14:08:55Z</time>
      </trkpt>
      <trkpt lat="42.59302" lon="2.38428">
        <ele>806</ele>
        <time>2013-08-02T14:08:59Z</time>
      </trkpt>
      <trkpt lat="42.59301" lon="2.38429">
        <ele>806</ele>
        <time>2013-08-02T14:09:21Z</time>
      </trkpt>
      <trkpt lat="42.59302" lon="2.38427">
        <ele>806</ele>
        <time>2013-08-02T14:09:29Z</time>
      </trkpt>
      <trkpt lat="42.59302" lon="2.38428">
        <ele>806</ele>
        <time>2013-08-02T14:09:45Z</time>
      </trkpt>
      <trkpt lat="42.59302" lon="2.38427">
        <ele>806</ele>
        <time>2013-08-02T14:09:53Z</time>
      </trkpt>
      <trkpt lat="42.59301" lon="2.38425">
        <ele>807</ele>
        <time>2013-08-02T14:10:36Z</time>
      </trkpt>
      <trkpt lat="42.59301" lon="2.38424">
        <ele>807</ele>
        <time>2013-08-02T14:10:41Z</time>
      </trkpt>
      <trkpt lat="42.59301" lon="2.38424">
        <ele>811</ele>
        <time>2013-08-02T14:11:00Z</time>
      </trkpt>
      <trkpt lat="42.59301" lon="2.38426">
        <ele>811</ele>
        <time>2013-08-02T14:11:18Z</time>
      </trkpt>
      <trkpt lat="42.59301" lon="2.38428">
        <ele>810</ele>
        <time>2013-08-02T14:11:51Z</time>
      </trkpt>
      <trkpt lat="42.59302" lon="2.3843">
        <ele>810</ele>
        <time>2013-08-02T14:11:57Z</time>
      </trkpt>
      <trkpt lat="42.59301" lon="2.38428">
        <ele>809</ele>
        <time>2013-08-02T14:12:12Z</time>
      </trkpt>
      <trkpt lat="42.593" lon="2.38427">
        <ele>808</ele>
        <time>2013-08-02T14:12:30Z</time>
      </trkpt>
      <trkpt lat="42.593" lon="2.38428">
        <ele>808</ele>
        <time>2013-08-02T14:12:49Z</time>
      </trkpt>
      <trkpt lat="42.593" lon="2.3843">
        <ele>807</ele>
        <time>2013-08-02T14:13:17Z</time>
      </trkpt>
      <trkpt lat="42.59301" lon="2.38429">
        <ele>807</ele>
        <time>2013-08-02T14:13:23Z</time>
      </trkpt>
      <trkpt lat="42.59303" lon="2.38429">
        <ele>806</ele>
        <time>2013-08-02T14:13:32Z</time>
      </trkpt>
      <trkpt lat="42.59302" lon="2.3843">
        <ele>806</ele>
        <time>2013-08-02T14:14:07Z</time>
      </trkpt>
      <trkpt lat="42.59301" lon="2.38429">
        <ele>806</ele>
        <time>2013-08-02T14:14:36Z</time>
      </trkpt>
      <trkpt lat="42.593" lon="2.38427">
        <ele>806</ele>
        <time>2013-08-02T14:14:52Z</time>
      </trkpt>
      <trkpt lat="42.593" lon="2.38429">
        <ele>807</ele>
        <time>2013-08-02T14:15:18Z</time>
      </trkpt>
      <trkpt lat="42.59301" lon="2.3843">
        <ele>806</ele>
        <time>2013-08-02T14:15:48Z</time>
      </trkpt>
      <trkpt lat="42.59302" lon="2.3843">
        <ele>806</ele>
        <time>2013-08-02T14:15:51Z</time>
      </trkpt>
      <trkpt lat="42.59304" lon="2.38429">
        <ele>806</ele>
        <time>2013-08-02T14:15:53Z</time>
      </trkpt>
      <trkpt lat="42.59306" lon="2.38428">
        <ele>806</ele>
        <time>2013-08-02T14:15:55Z</time>
      </trkpt>
      <trkpt lat="42.59307" lon="2.38427">
        <ele>806</ele>
        <time>2013-08-02T14:15:57Z</time>
      </trkpt>
      <trkpt lat="42.59308" lon="2.38424">
        <ele>806</ele>
        <time>2013-08-02T14:15:59Z</time>
      </trkpt>
      <trkpt lat="42.59308" lon="2.3842">
        <ele>806</ele>
        <time>2013-08-02T14:16:02Z</time>
      </trkpt>
      <trkpt lat="42.59308" lon="2.38418">
        <ele>806</ele>
        <time>2013-08-02T14:16:04Z</time>
      </trkpt>
      <trkpt lat="42.59308" lon="2.38416">
        <ele>806</ele>
        <time>2013-08-02T14:16:06Z</time>
      </trkpt>
      <trkpt lat="42.5931" lon="2.38414">
        <ele>806</ele>
        <time>2013-08-02T14:16:08Z</time>
      </trkpt>
      <trkpt lat="42.5931" lon="2.38412">
        <ele>806</ele>
        <time>2013-08-02T14:16:10Z</time>
      </trkpt>
      <trkpt lat="42.59312" lon="2.38411">
        <ele>806</ele>
        <time>2013-08-02T14:16:12Z</time>
      </trkpt>
      <trkpt lat="42.59314" lon="2.38412">
        <ele>806</ele>
        <time>2013-08-02T14:16:14Z</time>
      </trkpt>
      <trkpt lat="42.59315" lon="2.38411">
        <ele>806</ele>
        <time>2013-08-02T14:16:16Z</time>
      </trkpt>
      <trkpt lat="42.59317" lon="2.38412">
        <ele>806</ele>
        <time>2013-08-02T14:16:18Z</time>
      </trkpt>
      <trkpt lat="42.59319" lon="2.38412">
        <ele>806</ele>
        <time>2013-08-02T14:16:20Z</time>
      </trkpt>
      <trkpt lat="42.59321" lon="2.38412">
        <ele>806</ele>
        <time>2013-08-02T14:16:22Z</time>
      </trkpt>
      <trkpt lat="42.59322" lon="2.38412">
        <ele>806</ele>
        <time>2013-08-02T14:16:24Z</time>
      </trkpt>
      <trkpt lat="42.59323" lon="2.3841">
        <ele>806</ele>
        <time>2013-08-02T14:16:27Z</time>
      </trkpt>
      <trkpt lat="42.59324" lon="2.38408">
        <ele>806</ele>
        <time>2013-08-02T14:16:32Z</time>
      </trkpt>
      <trkpt lat="42.59324" lon="2.38407">
        <ele>807</ele>
        <time>2013-08-02T14:16:43Z</time>
      </trkpt>
      <trkpt lat="42.59325" lon="2.38405">
        <ele>807</ele>
        <time>2013-08-02T14:16:48Z</time>
      </trkpt>
      <trkpt lat="42.59325" lon="2.38403">
        <ele>807</ele>
        <time>2013-08-02T14:16:50Z</time>
      </trkpt>
      <trkpt lat="42.59325" lon="2.38401">
        <ele>807</ele>
        <time>2013-08-02T14:16:52Z</time>
      </trkpt>
      <trkpt lat="42.59325" lon="2.384">
        <ele>807</ele>
        <time>2013-08-02T14:16:54Z</time>
      </trkpt>
      <trkpt lat="42.59326" lon="2.38401">
        <ele>807</ele>
        <time>2013-08-02T14:17:22Z</time>
      </trkpt>
      <trkpt lat="42.59326" lon="2.38403">
        <ele>807</ele>
        <time>2013-08-02T14:17:26Z</time>
      </trkpt>
      <trkpt lat="42.59327" lon="2.38405">
        <ele>807</ele>
        <time>2013-08-02T14:17:29Z</time>
      </trkpt>
      <trkpt lat="42.59327" lon="2.38407">
        <ele>807</ele>
        <time>2013-08-02T14:17:31Z</time>
      </trkpt>
      <trkpt lat="42.59328" lon="2.38407">
        <ele>807</ele>
        <time>2013-08-02T14:17:33Z</time>
      </trkpt>
      <trkpt lat="42.5933" lon="2.38406">
        <ele>807</ele>
        <time>2013-08-02T14:17:35Z</time>
      </trkpt>
      <trkpt lat="42.59331" lon="2.38405">
        <ele>807</ele>
        <time>2013-08-02T14:17:37Z</time>
      </trkpt>
      <trkpt lat="42.59333" lon="2.38404">
        <ele>807</ele>
        <time>2013-08-02T14:17:39Z</time>
      </trkpt>
      <trkpt lat="42.59334" lon="2.38401">
        <ele>807</ele>
        <time>2013-08-02T14:17:41Z</time>
      </trkpt>
      <trkpt lat="42.59335" lon="2.384">
        <ele>807</ele>
        <time>2013-08-02T14:17:43Z</time>
      </trkpt>
      <trkpt lat="42.59337" lon="2.38398">
        <ele>807</ele>
        <time>2013-08-02T14:17:45Z</time>
      </trkpt>
      <trkpt lat="42.59338" lon="2.38397">
        <ele>807</ele>
        <time>2013-08-02T14:17:47Z</time>
      </trkpt>
      <trkpt lat="42.59339" lon="2.38395">
        <ele>807</ele>
        <time>2013-08-02T14:17:49Z</time>
      </trkpt>
      <trkpt lat="42.59339" lon="2.38392">
        <ele>807</ele>
        <time>2013-08-02T14:17:51Z</time>
      </trkpt>
      <trkpt lat="42.59339" lon="2.38389">
        <ele>807</ele>
        <time>2013-08-02T14:17:53Z</time>
      </trkpt>
      <trkpt lat="42.59339" lon="2.38387">
        <ele>807</ele>
        <time>2013-08-02T14:17:55Z</time>
      </trkpt>
      <trkpt lat="42.59339" lon="2.38383">
        <ele>807</ele>
        <time>2013-08-02T14:17:58Z</time>
      </trkpt>
      <trkpt lat="42.59339" lon="2.3838">
        <ele>807</ele>
        <time>2013-08-02T14:18:00Z</time>
      </trkpt>
      <trkpt lat="42.59339" lon="2.38377">
        <ele>807</ele>
        <time>2013-08-02T14:18:02Z</time>
      </trkpt>
      <trkpt lat="42.59338" lon="2.38374">
        <ele>807</ele>
        <time>2013-08-02T14:18:05Z</time>
      </trkpt>
      <trkpt lat="42.59337" lon="2.38371">
        <ele>807</ele>
        <time>2013-08-02T14:18:07Z</time>
      </trkpt>
      <trkpt lat="42.59336" lon="2.3837">
        <ele>806</ele>
        <time>2013-08-02T14:18:09Z</time>
      </trkpt>
      <trkpt lat="42.59336" lon="2.38367">
        <ele>805</ele>
        <time>2013-08-02T14:18:11Z</time>
      </trkpt>
      <trkpt lat="42.59337" lon="2.38364">
        <ele>804</ele>
        <time>2013-08-02T14:18:13Z</time>
      </trkpt>
      <trkpt lat="42.59338" lon="2.38363">
        <ele>804</ele>
        <time>2013-08-02T14:18:15Z</time>
      </trkpt>
      <trkpt lat="42.5934" lon="2.38363">
        <ele>804</ele>
        <time>2013-08-02T14:18:17Z</time>
      </trkpt>
      <trkpt lat="42.59341" lon="2.38364">
        <ele>803</ele>
        <time>2013-08-02T14:18:23Z</time>
      </trkpt>
      <trkpt lat="42.59343" lon="2.38365">
        <ele>803</ele>
        <time>2013-08-02T14:18:25Z</time>
      </trkpt>
      <trkpt lat="42.59346" lon="2.38366">
        <ele>803</ele>
        <time>2013-08-02T14:18:27Z</time>
      </trkpt>
      <trkpt lat="42.59348" lon="2.38367">
        <ele>802</ele>
        <time>2013-08-02T14:18:29Z</time>
      </trkpt>
      <trkpt lat="42.5935" lon="2.38368">
        <ele>802</ele>
        <time>2013-08-02T14:18:31Z</time>
      </trkpt>
      <trkpt lat="42.59353" lon="2.38369">
        <ele>801</ele>
        <time>2013-08-02T14:18:33Z</time>
      </trkpt>
      <trkpt lat="42.59356" lon="2.3837">
        <ele>800</ele>
        <time>2013-08-02T14:18:36Z</time>
      </trkpt>
      <trkpt lat="42.59358" lon="2.38371">
        <ele>800</ele>
        <time>2013-08-02T14:18:38Z</time>
      </trkpt>
      <trkpt lat="42.5936" lon="2.38372">
        <ele>799</ele>
        <time>2013-08-02T14:18:40Z</time>
      </trkpt>
      <trkpt lat="42.59362" lon="2.38372">
        <ele>799</ele>
        <time>2013-08-02T14:18:42Z</time>
      </trkpt>
      <trkpt lat="42.59363" lon="2.38373">
        <ele>798</ele>
        <time>2013-08-02T14:18:44Z</time>
      </trkpt>
      <trkpt lat="42.59366" lon="2.38374">
        <ele>798</ele>
        <time>2013-08-02T14:18:53Z</time>
      </trkpt>
      <trkpt lat="42.5937" lon="2.38373">
        <ele>795</ele>
        <time>2013-08-02T14:18:58Z</time>
      </trkpt>
      <trkpt lat="42.59369" lon="2.3837">
        <ele>794</ele>
        <time>2013-08-02T14:19:00Z</time>
      </trkpt>
      <trkpt lat="42.59367" lon="2.38366">
        <ele>793</ele>
        <time>2013-08-02T14:19:03Z</time>
      </trkpt>
      <trkpt lat="42.59363" lon="2.3836">
        <ele>792</ele>
        <time>2013-08-02T14:19:08Z</time>
      </trkpt>
      <trkpt lat="42.5936" lon="2.38356">
        <ele>791</ele>
        <time>2013-08-02T14:19:12Z</time>
      </trkpt>
      <trkpt lat="42.59358" lon="2.38353">
        <ele>789</ele>
        <time>2013-08-02T14:19:18Z</time>
      </trkpt>
      <trkpt lat="42.59357" lon="2.38353">
        <ele>788</ele>
        <time>2013-08-02T14:19:38Z</time>
      </trkpt>
      <trkpt lat="42.59355" lon="2.38351">
        <ele>788</ele>
        <time>2013-08-02T14:19:43Z</time>
      </trkpt>
      <trkpt lat="42.59355" lon="2.38348">
        <ele>788</ele>
        <time>2013-08-02T14:19:50Z</time>
      </trkpt>
      <trkpt lat="42.59357" lon="2.38345">
        <ele>788</ele>
        <time>2013-08-02T14:19:53Z</time>
      </trkpt>
      <trkpt lat="42.59359" lon="2.38345">
        <ele>788</ele>
        <time>2013-08-02T14:19:56Z</time>
      </trkpt>
      <trkpt lat="42.59364" lon="2.38345">
        <ele>788</ele>
        <time>2013-08-02T14:19:59Z</time>
      </trkpt>
      <trkpt lat="42.59366" lon="2.38344">
        <ele>788</ele>
        <time>2013-08-02T14:20:02Z</time>
      </trkpt>
      <trkpt lat="42.59373" lon="2.38343">
        <ele>786</ele>
        <time>2013-08-02T14:20:06Z</time>
      </trkpt>
      <trkpt lat="42.59377" lon="2.38342">
        <ele>786</ele>
        <time>2013-08-02T14:20:11Z</time>
      </trkpt>
      <trkpt lat="42.59384" lon="2.3834">
        <ele>786</ele>
        <time>2013-08-02T14:20:16Z</time>
      </trkpt>
      <trkpt lat="42.59387" lon="2.3834">
        <ele>786</ele>
        <time>2013-08-02T14:20:18Z</time>
      </trkpt>
      <trkpt lat="42.5939" lon="2.3834">
        <ele>785</ele>
        <time>2013-08-02T14:20:21Z</time>
      </trkpt>
      <trkpt lat="42.59393" lon="2.38339">
        <ele>785</ele>
        <time>2013-08-02T14:20:24Z</time>
      </trkpt>
      <trkpt lat="42.59396" lon="2.38338">
        <ele>785</ele>
        <time>2013-08-02T14:20:27Z</time>
      </trkpt>
      <trkpt lat="42.59401" lon="2.38336">
        <ele>785</ele>
        <time>2013-08-02T14:20:32Z</time>
      </trkpt>
      <trkpt lat="42.59405" lon="2.38336">
        <ele>785</ele>
        <time>2013-08-02T14:20:35Z</time>
      </trkpt>
      <trkpt lat="42.59408" lon="2.38336">
        <ele>785</ele>
        <time>2013-08-02T14:20:38Z</time>
      </trkpt>
      <trkpt lat="42.59413" lon="2.38335">
        <ele>785</ele>
        <time>2013-08-02T14:20:44Z</time>
      </trkpt>
      <trkpt lat="42.59415" lon="2.38333">
        <ele>783</ele>
        <time>2013-08-02T14:20:57Z</time>
      </trkpt>
      <trkpt lat="42.59414" lon="2.38331">
        <ele>783</ele>
        <time>2013-08-02T14:21:03Z</time>
      </trkpt>
      <trkpt lat="42.59413" lon="2.38332">
        <ele>783</ele>
        <time>2013-08-02T14:21:12Z</time>
      </trkpt>
      <trkpt lat="42.59412" lon="2.38333">
        <ele>783</ele>
        <time>2013-08-02T14:21:16Z</time>
      </trkpt>
      <trkpt lat="42.5941" lon="2.38331">
        <ele>782</ele>
        <time>2013-08-02T14:21:18Z</time>
      </trkpt>
      <trkpt lat="42.59409" lon="2.38329">
        <ele>781</ele>
        <time>2013-08-02T14:21:21Z</time>
      </trkpt>
      <trkpt lat="42.59406" lon="2.38325">
        <ele>780</ele>
        <time>2013-08-02T14:21:27Z</time>
      </trkpt>
      <trkpt lat="42.59403" lon="2.3832">
        <ele>779</ele>
        <time>2013-08-02T14:21:33Z</time>
      </trkpt>
      <trkpt lat="42.594" lon="2.38315">
        <ele>779</ele>
        <time>2013-08-02T14:21:37Z</time>
      </trkpt>
      <trkpt lat="42.59397" lon="2.38312">
        <ele>779</ele>
        <time>2013-08-02T14:21:40Z</time>
      </trkpt>
      <trkpt lat="42.59394" lon="2.3831">
        <ele>778</ele>
        <time>2013-08-02T14:21:43Z</time>
      </trkpt>
      <trkpt lat="42.5939" lon="2.38307">
        <ele>778</ele>
        <time>2013-08-02T14:21:48Z</time>
      </trkpt>
      <trkpt lat="42.59386" lon="2.38307">
        <ele>777</ele>
        <time>2013-08-02T14:21:52Z</time>
      </trkpt>
      <trkpt lat="42.59381" lon="2.38304">
        <ele>776</ele>
        <time>2013-08-02T14:21:57Z</time>
      </trkpt>
      <trkpt lat="42.59375" lon="2.38301">
        <ele>774</ele>
        <time>2013-08-02T14:22:02Z</time>
      </trkpt>
      <trkpt lat="42.59372" lon="2.38299">
        <ele>774</ele>
        <time>2013-08-02T14:22:06Z</time>
      </trkpt>
      <trkpt lat="42.59365" lon="2.38297">
        <ele>773</ele>
        <time>2013-08-02T14:22:12Z</time>
      </trkpt>
      <trkpt lat="42.59361" lon="2.38295">
        <ele>772</ele>
        <time>2013-08-02T14:22:17Z</time>
      </trkpt>
      <trkpt lat="42.59355" lon="2.38293">
        <ele>771</ele>
        <time>2013-08-02T14:22:22Z</time>
      </trkpt>
      <trkpt lat="42.5935" lon="2.38291">
        <ele>769</ele>
        <time>2013-08-02T14:22:27Z</time>
      </trkpt>
      <trkpt lat="42.59351" lon="2.38288">
        <ele>767</ele>
        <time>2013-08-02T14:22:30Z</time>
      </trkpt>
      <trkpt lat="42.59356" lon="2.38286">
        <ele>767</ele>
        <time>2013-08-02T14:22:34Z</time>
      </trkpt>
      <trkpt lat="42.5936" lon="2.38284">
        <ele>767</ele>
        <time>2013-08-02T14:22:38Z</time>
      </trkpt>
      <trkpt lat="42.59366" lon="2.38281">
        <ele>767</ele>
        <time>2013-08-02T14:22:43Z</time>
      </trkpt>
      <trkpt lat="42.59371" lon="2.38279">
        <ele>767</ele>
        <time>2013-08-02T14:22:48Z</time>
      </trkpt>
      <trkpt lat="42.59376" lon="2.38277">
        <ele>767</ele>
        <time>2013-08-02T14:22:53Z</time>
      </trkpt>
      <trkpt lat="42.59381" lon="2.38275">
        <ele>767</ele>
        <time>2013-08-02T14:22:58Z</time>
      </trkpt>
      <trkpt lat="42.59382" lon="2.38274">
        <ele>767</ele>
        <time>2013-08-02T14:23:00Z</time>
      </trkpt>
      <trkpt lat="42.59384" lon="2.38273">
        <ele>767</ele>
        <time>2013-08-02T14:23:06Z</time>
      </trkpt>
      <trkpt lat="42.59389" lon="2.38271">
        <ele>767</ele>
        <time>2013-08-02T14:23:10Z</time>
      </trkpt>
      <trkpt lat="42.59393" lon="2.38269">
        <ele>767</ele>
        <time>2013-08-02T14:23:14Z</time>
      </trkpt>
      <trkpt lat="42.59398" lon="2.38267">
        <ele>767</ele>
        <time>2013-08-02T14:23:19Z</time>
      </trkpt>
      <trkpt lat="42.59403" lon="2.38267">
        <ele>766</ele>
        <time>2013-08-02T14:23:25Z</time>
      </trkpt>
      <trkpt lat="42.594" lon="2.38265">
        <ele>764</ele>
        <time>2013-08-02T14:23:32Z</time>
      </trkpt>
      <trkpt lat="42.59398" lon="2.38264">
        <ele>762</ele>
        <time>2013-08-02T14:23:34Z</time>
      </trkpt>
      <trkpt lat="42.59396" lon="2.38264">
        <ele>761</ele>
        <time>2013-08-02T14:23:37Z</time>
      </trkpt>
      <trkpt lat="42.5939" lon="2.38264">
        <ele>759</ele>
        <time>2013-08-02T14:23:40Z</time>
      </trkpt>
      <trkpt lat="42.59387" lon="2.38262">
        <ele>758</ele>
        <time>2013-08-02T14:23:43Z</time>
      </trkpt>
      <trkpt lat="42.59385" lon="2.38262">
        <ele>757</ele>
        <time>2013-08-02T14:23:46Z</time>
      </trkpt>
      <trkpt lat="42.59382" lon="2.38261">
        <ele>756</ele>
        <time>2013-08-02T14:23:50Z</time>
      </trkpt>
      <trkpt lat="42.59377" lon="2.3826">
        <ele>755</ele>
        <time>2013-08-02T14:23:54Z</time>
      </trkpt>
      <trkpt lat="42.59374" lon="2.38259">
        <ele>755</ele>
        <time>2013-08-02T14:23:57Z</time>
      </trkpt>
      <trkpt lat="42.59371" lon="2.38258">
        <ele>755</ele>
        <time>2013-08-02T14:24:00Z</time>
      </trkpt>
      <trkpt lat="42.5937" lon="2.38257">
        <ele>755</ele>
        <time>2013-08-02T14:24:02Z</time>
      </trkpt>
      <trkpt lat="42.59367" lon="2.38257">
        <ele>754</ele>
        <time>2013-08-02T14:24:07Z</time>
      </trkpt>
      <trkpt lat="42.5936" lon="2.38256">
        <ele>754</ele>
        <time>2013-08-02T14:24:12Z</time>
      </trkpt>
      <trkpt lat="42.59357" lon="2.38253">
        <ele>754</ele>
        <time>2013-08-02T14:24:15Z</time>
      </trkpt>
      <trkpt lat="42.59354" lon="2.38253">
        <ele>754</ele>
        <time>2013-08-02T14:24:18Z</time>
      </trkpt>
      <trkpt lat="42.59351" lon="2.38251">
        <ele>754</ele>
        <time>2013-08-02T14:24:23Z</time>
      </trkpt>
      <trkpt lat="42.59352" lon="2.38249">
        <ele>754</ele>
        <time>2013-08-02T14:24:25Z</time>
      </trkpt>
      <trkpt lat="42.59355" lon="2.38249">
        <ele>754</ele>
        <time>2013-08-02T14:24:35Z</time>
      </trkpt>
      <trkpt lat="42.5936" lon="2.38246">
        <ele>753</ele>
        <time>2013-08-02T14:24:40Z</time>
      </trkpt>
      <trkpt lat="42.59365" lon="2.38246">
        <ele>753</ele>
        <time>2013-08-02T14:24:46Z</time>
      </trkpt>
      <trkpt lat="42.59366" lon="2.38244">
        <ele>753</ele>
        <time>2013-08-02T14:24:53Z</time>
      </trkpt>
      <trkpt lat="42.59366" lon="2.38242">
        <ele>753</ele>
        <time>2013-08-02T14:25:01Z</time>
      </trkpt>
      <trkpt lat="42.59369" lon="2.38242">
        <ele>753</ele>
        <time>2013-08-02T14:25:05Z</time>
      </trkpt>
      <trkpt lat="42.59375" lon="2.3824">
        <ele>753</ele>
        <time>2013-08-02T14:25:11Z</time>
      </trkpt>
      <trkpt lat="42.59375" lon="2.38236">
        <ele>753</ele>
        <time>2013-08-02T14:25:18Z</time>
      </trkpt>
      <trkpt lat="42.59375" lon="2.38234">
        <ele>753</ele>
        <time>2013-08-02T14:25:23Z</time>
      </trkpt>
      <trkpt lat="42.59372" lon="2.3823">
        <ele>753</ele>
        <time>2013-08-02T14:25:29Z</time>
      </trkpt>
      <trkpt lat="42.5937" lon="2.38231">
        <ele>752</ele>
        <time>2013-08-02T14:25:31Z</time>
      </trkpt>
      <trkpt lat="42.59366" lon="2.38231">
        <ele>751</ele>
        <time>2013-08-02T14:25:35Z</time>
      </trkpt>
      <trkpt lat="42.5936" lon="2.38232">
        <ele>749</ele>
        <time>2013-08-02T14:25:39Z</time>
      </trkpt>
      <trkpt lat="42.59356" lon="2.38232">
        <ele>746</ele>
        <time>2013-08-02T14:25:42Z</time>
      </trkpt>
      <trkpt lat="42.59353" lon="2.38233">
        <ele>745</ele>
        <time>2013-08-02T14:25:45Z</time>
      </trkpt>
      <trkpt lat="42.59348" lon="2.38234">
        <ele>742</ele>
        <time>2013-08-02T14:25:50Z</time>
      </trkpt>
      <trkpt lat="42.59343" lon="2.38235">
        <ele>739</ele>
        <time>2013-08-02T14:25:55Z</time>
      </trkpt>
      <trkpt lat="42.59338" lon="2.38234">
        <ele>735</ele>
        <time>2013-08-02T14:26:01Z</time>
      </trkpt>
      <trkpt lat="42.59334" lon="2.38234">
        <ele>735</ele>
        <time>2013-08-02T14:26:04Z</time>
      </trkpt>
      <trkpt lat="42.59331" lon="2.38234">
        <ele>735</ele>
        <time>2013-08-02T14:26:07Z</time>
      </trkpt>
      <trkpt lat="42.59326" lon="2.38233">
        <ele>735</ele>
        <time>2013-08-02T14:26:12Z</time>
      </trkpt>
      <trkpt lat="42.59321" lon="2.38231">
        <ele>735</ele>
        <time>2013-08-02T14:26:20Z</time>
      </trkpt>
      <trkpt lat="42.59319" lon="2.3823">
        <ele>735</ele>
        <time>2013-08-02T14:26:24Z</time>
      </trkpt>
      <trkpt lat="42.59317" lon="2.38232">
        <ele>735</ele>
        <time>2013-08-02T14:26:31Z</time>
      </trkpt>
      <trkpt lat="42.59316" lon="2.3823">
        <ele>735</ele>
        <time>2013-08-02T14:26:37Z</time>
      </trkpt>
      <trkpt lat="42.59317" lon="2.38227">
        <ele>735</ele>
        <time>2013-08-02T14:26:39Z</time>
      </trkpt>
      <trkpt lat="42.59318" lon="2.38223">
        <ele>735</ele>
        <time>2013-08-02T14:26:43Z</time>
      </trkpt>
      <trkpt lat="42.5932" lon="2.38222">
        <ele>735</ele>
        <time>2013-08-02T14:26:45Z</time>
      </trkpt>
      <trkpt lat="42.59322" lon="2.38222">
        <ele>735</ele>
        <time>2013-08-02T14:26:49Z</time>
      </trkpt>
      <trkpt lat="42.59324" lon="2.38219">
        <ele>735</ele>
        <time>2013-08-02T14:26:53Z</time>
      </trkpt>
      <trkpt lat="42.59326" lon="2.38218">
        <ele>735</ele>
        <time>2013-08-02T14:26:56Z</time>
      </trkpt>
      <trkpt lat="42.5933" lon="2.38218">
        <ele>735</ele>
        <time>2013-08-02T14:27:01Z</time>
      </trkpt>
      <trkpt lat="42.59333" lon="2.38216">
        <ele>735</ele>
        <time>2013-08-02T14:27:04Z</time>
      </trkpt>
      <trkpt lat="42.59335" lon="2.38214">
        <ele>735</ele>
        <time>2013-08-02T14:27:07Z</time>
      </trkpt>
      <trkpt lat="42.59339" lon="2.38212">
        <ele>735</ele>
        <time>2013-08-02T14:27:12Z</time>
      </trkpt>
      <trkpt lat="42.59345" lon="2.38208">
        <ele>735</ele>
        <time>2013-08-02T14:27:18Z</time>
      </trkpt>
      <trkpt lat="42.59347" lon="2.38206">
        <ele>734</ele>
        <time>2013-08-02T14:27:20Z</time>
      </trkpt>
      <trkpt lat="42.59351" lon="2.38203">
        <ele>734</ele>
        <time>2013-08-02T14:27:24Z</time>
      </trkpt>
      <trkpt lat="42.59356" lon="2.382">
        <ele>733</ele>
        <time>2013-08-02T14:27:29Z</time>
      </trkpt>
      <trkpt lat="42.59359" lon="2.382">
        <ele>732</ele>
        <time>2013-08-02T14:27:31Z</time>
      </trkpt>
      <trkpt lat="42.59361" lon="2.38198">
        <ele>731</ele>
        <time>2013-08-02T14:27:34Z</time>
      </trkpt>
      <trkpt lat="42.59366" lon="2.38194">
        <ele>729</ele>
        <time>2013-08-02T14:27:39Z</time>
      </trkpt>
      <trkpt lat="42.59371" lon="2.38191">
        <ele>728</ele>
        <time>2013-08-02T14:27:45Z</time>
      </trkpt>
      <trkpt lat="42.59376" lon="2.38187">
        <ele>728</ele>
        <time>2013-08-02T14:27:49Z</time>
      </trkpt>
      <trkpt lat="42.5938" lon="2.38185">
        <ele>726</ele>
        <time>2013-08-02T14:27:52Z</time>
      </trkpt>
      <trkpt lat="42.59382" lon="2.38183">
        <ele>726</ele>
        <time>2013-08-02T14:27:55Z</time>
      </trkpt>
      <trkpt lat="42.59384" lon="2.38181">
        <ele>725</ele>
        <time>2013-08-02T14:27:57Z</time>
      </trkpt>
      <trkpt lat="42.59389" lon="2.38178">
        <ele>725</ele>
        <time>2013-08-02T14:28:02Z</time>
      </trkpt>
      <trkpt lat="42.59393" lon="2.38175">
        <ele>723</ele>
        <time>2013-08-02T14:28:08Z</time>
      </trkpt>
      <trkpt lat="42.59393" lon="2.38173">
        <ele>723</ele>
        <time>2013-08-02T14:28:13Z</time>
      </trkpt>
      <trkpt lat="42.59395" lon="2.38173">
        <ele>724</ele>
        <time>2013-08-02T14:28:22Z</time>
      </trkpt>
      <trkpt lat="42.59398" lon="2.38171">
        <ele>724</ele>
        <time>2013-08-02T14:28:25Z</time>
      </trkpt>
      <trkpt lat="42.59403" lon="2.38168">
        <ele>724</ele>
        <time>2013-08-02T14:28:30Z</time>
      </trkpt>
      <trkpt lat="42.59407" lon="2.38166">
        <ele>724</ele>
        <time>2013-08-02T14:28:35Z</time>
      </trkpt>
      <trkpt lat="42.59411" lon="2.38163">
        <ele>724</ele>
        <time>2013-08-02T14:28:40Z</time>
      </trkpt>
      <trkpt lat="42.59414" lon="2.38162">
        <ele>724</ele>
        <time>2013-08-02T14:28:43Z</time>
      </trkpt>
      <trkpt lat="42.59416" lon="2.38162">
        <ele>724</ele>
        <time>2013-08-02T14:28:47Z</time>
      </trkpt>
      <trkpt lat="42.59415" lon="2.38161">
        <ele>722</ele>
        <time>2013-08-02T14:28:49Z</time>
      </trkpt>
      <trkpt lat="42.59411" lon="2.38162">
        <ele>721</ele>
        <time>2013-08-02T14:28:53Z</time>
      </trkpt>
      <trkpt lat="42.59406" lon="2.38161">
        <ele>718</ele>
        <time>2013-08-02T14:28:57Z</time>
      </trkpt>
      <trkpt lat="42.59403" lon="2.38162">
        <ele>717</ele>
        <time>2013-08-02T14:29:00Z</time>
      </trkpt>
      <trkpt lat="42.59398" lon="2.38163">
        <ele>715</ele>
        <time>2013-08-02T14:29:05Z</time>
      </trkpt>
      <trkpt lat="42.59392" lon="2.38163">
        <ele>713</ele>
        <time>2013-08-02T14:29:11Z</time>
      </trkpt>
      <trkpt lat="42.59387" lon="2.38162">
        <ele>712</ele>
        <time>2013-08-02T14:29:15Z</time>
      </trkpt>
      <trkpt lat="42.59382" lon="2.38161">
        <ele>711</ele>
        <time>2013-08-02T14:29:22Z</time>
      </trkpt>
      <trkpt lat="42.59377" lon="2.3816">
        <ele>711</ele>
        <time>2013-08-02T14:29:27Z</time>
      </trkpt>
      <trkpt lat="42.59376" lon="2.3816">
        <ele>711</ele>
        <time>2013-08-02T14:29:37Z</time>
      </trkpt>
      <trkpt lat="42.59373" lon="2.38162">
        <ele>711</ele>
        <time>2013-08-02T14:29:40Z</time>
      </trkpt>
      <trkpt lat="42.59369" lon="2.38162">
        <ele>711</ele>
        <time>2013-08-02T14:29:45Z</time>
      </trkpt>
      <trkpt lat="42.59364" lon="2.38162">
        <ele>710</ele>
        <time>2013-08-02T14:29:50Z</time>
      </trkpt>
      <trkpt lat="42.5936" lon="2.38162">
        <ele>710</ele>
        <time>2013-08-02T14:29:55Z</time>
      </trkpt>
      <trkpt lat="42.59357" lon="2.38162">
        <ele>709</ele>
        <time>2013-08-02T14:29:58Z</time>
      </trkpt>
      <trkpt lat="42.59355" lon="2.38162">
        <ele>709</ele>
        <time>2013-08-02T14:30:01Z</time>
      </trkpt>
      <trkpt lat="42.59351" lon="2.38162">
        <ele>707</ele>
        <time>2013-08-02T14:30:04Z</time>
      </trkpt>
      <trkpt lat="42.59349" lon="2.38163">
        <ele>707</ele>
        <time>2013-08-02T14:30:07Z</time>
      </trkpt>
      <trkpt lat="42.59346" lon="2.38163">
        <ele>706</ele>
        <time>2013-08-02T14:30:10Z</time>
      </trkpt>
      <trkpt lat="42.59345" lon="2.38163">
        <ele>706</ele>
        <time>2013-08-02T14:30:13Z</time>
      </trkpt>
      <trkpt lat="42.59343" lon="2.38163">
        <ele>706</ele>
        <time>2013-08-02T14:30:19Z</time>
      </trkpt>
      <trkpt lat="42.59341" lon="2.38164">
        <ele>706</ele>
        <time>2013-08-02T14:30:21Z</time>
      </trkpt>
      <trkpt lat="42.59338" lon="2.38165">
        <ele>705</ele>
        <time>2013-08-02T14:30:24Z</time>
      </trkpt>
      <trkpt lat="42.59336" lon="2.38165">
        <ele>705</ele>
        <time>2013-08-02T14:30:27Z</time>
      </trkpt>
      <trkpt lat="42.59333" lon="2.38164">
        <ele>705</ele>
        <time>2013-08-02T14:30:30Z</time>
      </trkpt>
      <trkpt lat="42.5933" lon="2.38164">
        <ele>705</ele>
        <time>2013-08-02T14:30:33Z</time>
      </trkpt>
      <trkpt lat="42.59328" lon="2.38166">
        <ele>704</ele>
        <time>2013-08-02T14:30:35Z</time>
      </trkpt>
      <trkpt lat="42.59325" lon="2.38166">
        <ele>704</ele>
        <time>2013-08-02T14:30:37Z</time>
      </trkpt>
      <trkpt lat="42.59321" lon="2.38165">
        <ele>704</ele>
        <time>2013-08-02T14:30:39Z</time>
      </trkpt>
      <trkpt lat="42.59318" lon="2.38166">
        <ele>704</ele>
        <time>2013-08-02T14:30:42Z</time>
      </trkpt>
      <trkpt lat="42.59316" lon="2.38166">
        <ele>703</ele>
        <time>2013-08-02T14:30:44Z</time>
      </trkpt>
      <trkpt lat="42.59314" lon="2.38165">
        <ele>703</ele>
        <time>2013-08-02T14:30:46Z</time>
      </trkpt>
      <trkpt lat="42.59312" lon="2.38165">
        <ele>703</ele>
        <time>2013-08-02T14:30:48Z</time>
      </trkpt>
      <trkpt lat="42.5931" lon="2.38164">
        <ele>703</ele>
        <time>2013-08-02T14:30:50Z</time>
      </trkpt>
      <trkpt lat="42.59306" lon="2.38166">
        <ele>703</ele>
        <time>2013-08-02T14:30:53Z</time>
      </trkpt>
      <trkpt lat="42.59303" lon="2.38165">
        <ele>703</ele>
        <time>2013-08-02T14:30:56Z</time>
      </trkpt>
      <trkpt lat="42.59302" lon="2.38165">
        <ele>703</ele>
        <time>2013-08-02T14:30:58Z</time>
      </trkpt>
      <trkpt lat="42.593" lon="2.38166">
        <ele>702</ele>
        <time>2013-08-02T14:31:00Z</time>
      </trkpt>
      <trkpt lat="42.59297" lon="2.38166">
        <ele>702</ele>
        <time>2013-08-02T14:31:02Z</time>
      </trkpt>
      <trkpt lat="42.59296" lon="2.38166">
        <ele>702</ele>
        <time>2013-08-02T14:31:04Z</time>
      </trkpt>
      <trkpt lat="42.59294" lon="2.38166">
        <ele>701</ele>
        <time>2013-08-02T14:31:06Z</time>
      </trkpt>
      <trkpt lat="42.59292" lon="2.38166">
        <ele>701</ele>
        <time>2013-08-02T14:31:08Z</time>
      </trkpt>
      <trkpt lat="42.59291" lon="2.38166">
        <ele>701</ele>
        <time>2013-08-02T14:31:10Z</time>
      </trkpt>
      <trkpt lat="42.59289" lon="2.38166">
        <ele>701</ele>
        <time>2013-08-02T14:31:12Z</time>
      </trkpt>
      <trkpt lat="42.59287" lon="2.38166">
        <ele>701</ele>
        <time>2013-08-02T14:31:14Z</time>
      </trkpt>
      <trkpt lat="42.59284" lon="2.38165">
        <ele>701</ele>
        <time>2013-08-02T14:31:17Z</time>
      </trkpt>
      <trkpt lat="42.59281" lon="2.38165">
        <ele>701</ele>
        <time>2013-08-02T14:31:20Z</time>
      </trkpt>
      <trkpt lat="42.59279" lon="2.38166">
        <ele>700</ele>
        <time>2013-08-02T14:31:22Z</time>
      </trkpt>
      <trkpt lat="42.59279" lon="2.38164">
        <ele>700</ele>
        <time>2013-08-02T14:31:25Z</time>
      </trkpt>
      <trkpt lat="42.59278" lon="2.38161">
        <ele>700</ele>
        <time>2013-08-02T14:31:31Z</time>
      </trkpt>
      <trkpt lat="42.59275" lon="2.38161">
        <ele>700</ele>
        <time>2013-08-02T14:31:34Z</time>
      </trkpt>
      <trkpt lat="42.59273" lon="2.38161">
        <ele>700</ele>
        <time>2013-08-02T14:31:37Z</time>
      </trkpt>
      <trkpt lat="42.59267" lon="2.3816">
        <ele>700</ele>
        <time>2013-08-02T14:31:42Z</time>
      </trkpt>
      <trkpt lat="42.59266" lon="2.38159">
        <ele>700</ele>
        <time>2013-08-02T14:31:50Z</time>
      </trkpt>
      <trkpt lat="42.59263" lon="2.38159">
        <ele>700</ele>
        <time>2013-08-02T14:31:53Z</time>
      </trkpt>
      <trkpt lat="42.59259" lon="2.38159">
        <ele>700</ele>
        <time>2013-08-02T14:31:57Z</time>
      </trkpt>
      <trkpt lat="42.59256" lon="2.38158">
        <ele>700</ele>
        <time>2013-08-02T14:32:01Z</time>
      </trkpt>
      <trkpt lat="42.59253" lon="2.38158">
        <ele>700</ele>
        <time>2013-08-02T14:32:04Z</time>
      </trkpt>
      <trkpt lat="42.59251" lon="2.38158">
        <ele>700</ele>
        <time>2013-08-02T14:32:07Z</time>
      </trkpt>
      <trkpt lat="42.59247" lon="2.38156">
        <ele>699</ele>
        <time>2013-08-02T14:32:10Z</time>
      </trkpt>
      <trkpt lat="42.59243" lon="2.38156">
        <ele>698</ele>
        <time>2013-08-02T14:32:14Z</time>
      </trkpt>
      <trkpt lat="42.59247" lon="2.38151">
        <ele>696</ele>
        <time>2013-08-02T14:32:20Z</time>
      </trkpt>
      <trkpt lat="42.59252" lon="2.38151">
        <ele>696</ele>
        <time>2013-08-02T14:32:23Z</time>
      </trkpt>
      <trkpt lat="42.59254" lon="2.38149">
        <ele>696</ele>
        <time>2013-08-02T14:32:27Z</time>
      </trkpt>
      <trkpt lat="42.59261" lon="2.38148">
        <ele>696</ele>
        <time>2013-08-02T14:32:32Z</time>
      </trkpt>
      <trkpt lat="42.59265" lon="2.38148">
        <ele>696</ele>
        <time>2013-08-02T14:32:37Z</time>
      </trkpt>
      <trkpt lat="42.59267" lon="2.38146">
        <ele>696</ele>
        <time>2013-08-02T14:32:39Z</time>
      </trkpt>
      <trkpt lat="42.59272" lon="2.38145">
        <ele>696</ele>
        <time>2013-08-02T14:32:44Z</time>
      </trkpt>
      <trkpt lat="42.59276" lon="2.38145">
        <ele>694</ele>
        <time>2013-08-02T14:32:47Z</time>
      </trkpt>
      <trkpt lat="42.59279" lon="2.38144">
        <ele>693</ele>
        <time>2013-08-02T14:32:50Z</time>
      </trkpt>
      <trkpt lat="42.59284" lon="2.38145">
        <ele>692</ele>
        <time>2013-08-02T14:32:56Z</time>
      </trkpt>
      <trkpt lat="42.59289" lon="2.38142">
        <ele>689</ele>
        <time>2013-08-02T14:33:01Z</time>
      </trkpt>
      <trkpt lat="42.59292" lon="2.38138">
        <ele>689</ele>
        <time>2013-08-02T14:33:04Z</time>
      </trkpt>
      <trkpt lat="42.59294" lon="2.38137">
        <ele>689</ele>
        <time>2013-08-02T14:33:07Z</time>
      </trkpt>
      <trkpt lat="42.59299" lon="2.38134">
        <ele>689</ele>
        <time>2013-08-02T14:33:12Z</time>
      </trkpt>
      <trkpt lat="42.59305" lon="2.38133">
        <ele>689</ele>
        <time>2013-08-02T14:33:17Z</time>
      </trkpt>
      <trkpt lat="42.5931" lon="2.38131">
        <ele>689</ele>
        <time>2013-08-02T14:33:22Z</time>
      </trkpt>
      <trkpt lat="42.59318" lon="2.38128">
        <ele>689</ele>
        <time>2013-08-02T14:33:28Z</time>
      </trkpt>
      <trkpt lat="42.59319" lon="2.38125">
        <ele>689</ele>
        <time>2013-08-02T14:33:30Z</time>
      </trkpt>
      <trkpt lat="42.59322" lon="2.38118">
        <ele>689</ele>
        <time>2013-08-02T14:33:35Z</time>
      </trkpt>
      <trkpt lat="42.59327" lon="2.38117">
        <ele>689</ele>
        <time>2013-08-02T14:33:38Z</time>
      </trkpt>
      <trkpt lat="42.59329" lon="2.38117">
        <ele>689</ele>
        <time>2013-08-02T14:33:42Z</time>
      </trkpt>
      <trkpt lat="42.59334" lon="2.38113">
        <ele>689</ele>
        <time>2013-08-02T14:33:48Z</time>
      </trkpt>
      <trkpt lat="42.59338" lon="2.38108">
        <ele>689</ele>
        <time>2013-08-02T14:33:51Z</time>
      </trkpt>
      <trkpt lat="42.5934" lon="2.38105">
        <ele>689</ele>
        <time>2013-08-02T14:33:53Z</time>
      </trkpt>
      <trkpt lat="42.59344" lon="2.381">
        <ele>689</ele>
        <time>2013-08-02T14:33:58Z</time>
      </trkpt>
      <trkpt lat="42.59347" lon="2.381">
        <ele>689</ele>
        <time>2013-08-02T14:34:01Z</time>
      </trkpt>
      <trkpt lat="42.5935" lon="2.38097">
        <ele>689</ele>
        <time>2013-08-02T14:34:04Z</time>
      </trkpt>
      <trkpt lat="42.59353" lon="2.38094">
        <ele>689</ele>
        <time>2013-08-02T14:34:08Z</time>
      </trkpt>
      <trkpt lat="42.59357" lon="2.38092">
        <ele>689</ele>
        <time>2013-08-02T14:34:12Z</time>
      </trkpt>
      <trkpt lat="42.59361" lon="2.3809">
        <ele>689</ele>
        <time>2013-08-02T14:34:19Z</time>
      </trkpt>
      <trkpt lat="42.59363" lon="2.38086">
        <ele>688</ele>
        <time>2013-08-02T14:34:22Z</time>
      </trkpt>
      <trkpt lat="42.59364" lon="2.38082">
        <ele>688</ele>
        <time>2013-08-02T14:34:41Z</time>
      </trkpt>
      <trkpt lat="42.59365" lon="2.38081">
        <ele>689</ele>
        <time>2013-08-02T14:34:47Z</time>
      </trkpt>
      <trkpt lat="42.5937" lon="2.38079">
        <ele>689</ele>
        <time>2013-08-02T14:34:51Z</time>
      </trkpt>
      <trkpt lat="42.59374" lon="2.38076">
        <ele>689</ele>
        <time>2013-08-02T14:34:55Z</time>
      </trkpt>
      <trkpt lat="42.59377" lon="2.38075">
        <ele>689</ele>
        <time>2013-08-02T14:34:58Z</time>
      </trkpt>
      <trkpt lat="42.5938" lon="2.38074">
        <ele>689</ele>
        <time>2013-08-02T14:35:00Z</time>
      </trkpt>
      <trkpt lat="42.59384" lon="2.38072">
        <ele>689</ele>
        <time>2013-08-02T14:35:05Z</time>
      </trkpt>
      <trkpt lat="42.59386" lon="2.3807">
        <ele>688</ele>
        <time>2013-08-02T14:35:07Z</time>
      </trkpt>
      <trkpt lat="42.59391" lon="2.38071">
        <ele>687</ele>
        <time>2013-08-02T14:35:11Z</time>
      </trkpt>
      <trkpt lat="42.59396" lon="2.38069">
        <ele>685</ele>
        <time>2013-08-02T14:35:16Z</time>
      </trkpt>
      <trkpt lat="42.59401" lon="2.38067">
        <ele>683</ele>
        <time>2013-08-02T14:35:19Z</time>
      </trkpt>
      <trkpt lat="42.59405" lon="2.38065">
        <ele>683</ele>
        <time>2013-08-02T14:35:23Z</time>
      </trkpt>
      <trkpt lat="42.59409" lon="2.38068">
        <ele>682</ele>
        <time>2013-08-02T14:35:27Z</time>
      </trkpt>
      <trkpt lat="42.59413" lon="2.38065">
        <ele>679</ele>
        <time>2013-08-02T14:35:31Z</time>
      </trkpt>
      <trkpt lat="42.59416" lon="2.38059">
        <ele>677</ele>
        <time>2013-08-02T14:35:35Z</time>
      </trkpt>
      <trkpt lat="42.59418" lon="2.38059">
        <ele>677</ele>
        <time>2013-08-02T14:35:37Z</time>
      </trkpt>
      <trkpt lat="42.59416" lon="2.3806">
        <ele>677</ele>
        <time>2013-08-02T14:35:43Z</time>
      </trkpt>
      <trkpt lat="42.59415" lon="2.3806">
        <ele>677</ele>
        <time>2013-08-02T14:35:46Z</time>
      </trkpt>
      <trkpt lat="42.5941" lon="2.38063">
        <ele>675</ele>
        <time>2013-08-02T14:35:51Z</time>
      </trkpt>
      <trkpt lat="42.59404" lon="2.38062">
        <ele>674</ele>
        <time>2013-08-02T14:35:54Z</time>
      </trkpt>
      <trkpt lat="42.59399" lon="2.38061">
        <ele>672</ele>
        <time>2013-08-02T14:36:00Z</time>
      </trkpt>
      <trkpt lat="42.59395" lon="2.38062">
        <ele>670</ele>
        <time>2013-08-02T14:36:04Z</time>
      </trkpt>
      <trkpt lat="42.59396" lon="2.38061">
        <ele>669</ele>
        <time>2013-08-02T14:36:10Z</time>
      </trkpt>
      <trkpt lat="42.59395" lon="2.38061">
        <ele>669</ele>
        <time>2013-08-02T14:36:12Z</time>
      </trkpt>
      <trkpt lat="42.59391" lon="2.38061">
        <ele>669</ele>
        <time>2013-08-02T14:36:16Z</time>
      </trkpt>
      <trkpt lat="42.59387" lon="2.38061">
        <ele>667</ele>
        <time>2013-08-02T14:36:19Z</time>
      </trkpt>
      <trkpt lat="42.59384" lon="2.3806">
        <ele>667</ele>
        <time>2013-08-02T14:36:22Z</time>
      </trkpt>
      <trkpt lat="42.5938" lon="2.3806">
        <ele>667</ele>
        <time>2013-08-02T14:36:27Z</time>
      </trkpt>
      <trkpt lat="42.59374" lon="2.38058">
        <ele>667</ele>
        <time>2013-08-02T14:36:31Z</time>
      </trkpt>
      <trkpt lat="42.5937" lon="2.38058">
        <ele>667</ele>
        <time>2013-08-02T14:36:36Z</time>
      </trkpt>
      <trkpt lat="42.59367" lon="2.38058">
        <ele>667</ele>
        <time>2013-08-02T14:36:38Z</time>
      </trkpt>
      <trkpt lat="42.59363" lon="2.38058">
        <ele>666</ele>
        <time>2013-08-02T14:36:42Z</time>
      </trkpt>
      <trkpt lat="42.59361" lon="2.38059">
        <ele>665</ele>
        <time>2013-08-02T14:36:44Z</time>
      </trkpt>
      <trkpt lat="42.59354" lon="2.3806">
        <ele>664</ele>
        <time>2013-08-02T14:36:49Z</time>
      </trkpt>
      <trkpt lat="42.59351" lon="2.3806">
        <ele>664</ele>
        <time>2013-08-02T14:36:53Z</time>
      </trkpt>
      <trkpt lat="42.59349" lon="2.38061">
        <ele>664</ele>
        <time>2013-08-02T14:36:55Z</time>
      </trkpt>
      <trkpt lat="42.59344" lon="2.38063">
        <ele>664</ele>
        <time>2013-08-02T14:36:59Z</time>
      </trkpt>
      <trkpt lat="42.5934" lon="2.38064">
        <ele>664</ele>
        <time>2013-08-02T14:37:03Z</time>
      </trkpt>
      <trkpt lat="42.59335" lon="2.38067">
        <ele>664</ele>
        <time>2013-08-02T14:37:09Z</time>
      </trkpt>
      <trkpt lat="42.5933" lon="2.38072">
        <ele>664</ele>
        <time>2013-08-02T14:37:15Z</time>
      </trkpt>
      <trkpt lat="42.59327" lon="2.38073">
        <ele>663</ele>
        <time>2013-08-02T14:37:18Z</time>
      </trkpt>
      <trkpt lat="42.59323" lon="2.38073">
        <ele>662</ele>
        <time>2013-08-02T14:37:21Z</time>
      </trkpt>
      <trkpt lat="42.59321" lon="2.38074">
        <ele>662</ele>
        <time>2013-08-02T14:37:24Z</time>
      </trkpt>
      <trkpt lat="42.59318" lon="2.38077">
        <ele>662</ele>
        <time>2013-08-02T14:37:28Z</time>
      </trkpt>
      <trkpt lat="42.59315" lon="2.38079">
        <ele>662</ele>
        <time>2013-08-02T14:37:32Z</time>
      </trkpt>
      <trkpt lat="42.59312" lon="2.3808">
        <ele>661</ele>
        <time>2013-08-02T14:37:35Z</time>
      </trkpt>
      <trkpt lat="42.59308" lon="2.3808">
        <ele>661</ele>
        <time>2013-08-02T14:37:38Z</time>
      </trkpt>
      <trkpt lat="42.59305" lon="2.38082">
        <ele>661</ele>
        <time>2013-08-02T14:37:41Z</time>
      </trkpt>
      <trkpt lat="42.59303" lon="2.38082">
        <ele>661</ele>
        <time>2013-08-02T14:37:43Z</time>
      </trkpt>
      <trkpt lat="42.593" lon="2.38084">
        <ele>661</ele>
        <time>2013-08-02T14:37:46Z</time>
      </trkpt>
      <trkpt lat="42.59295" lon="2.38083">
        <ele>661</ele>
        <time>2013-08-02T14:37:50Z</time>
      </trkpt>
      <trkpt lat="42.59292" lon="2.38083">
        <ele>660</ele>
        <time>2013-08-02T14:37:55Z</time>
      </trkpt>
      <trkpt lat="42.59289" lon="2.38083">
        <ele>660</ele>
        <time>2013-08-02T14:37:57Z</time>
      </trkpt>
      <trkpt lat="42.59286" lon="2.38081">
        <ele>660</ele>
        <time>2013-08-02T14:38:01Z</time>
      </trkpt>
      <trkpt lat="42.59284" lon="2.38081">
        <ele>660</ele>
        <time>2013-08-02T14:38:04Z</time>
      </trkpt>
      <trkpt lat="42.59279" lon="2.38084">
        <ele>660</ele>
        <time>2013-08-02T14:38:09Z</time>
      </trkpt>
      <trkpt lat="42.59275" lon="2.38086">
        <ele>659</ele>
        <time>2013-08-02T14:38:13Z</time>
      </trkpt>
      <trkpt lat="42.5927" lon="2.38087">
        <ele>658</ele>
        <time>2013-08-02T14:38:17Z</time>
      </trkpt>
      <trkpt lat="42.59266" lon="2.38087">
        <ele>657</ele>
        <time>2013-08-02T14:38:21Z</time>
      </trkpt>
      <trkpt lat="42.59264" lon="2.38087">
        <ele>657</ele>
        <time>2013-08-02T14:38:23Z</time>
      </trkpt>
      <trkpt lat="42.59259" lon="2.38088">
        <ele>657</ele>
        <time>2013-08-02T14:38:26Z</time>
      </trkpt>
      <trkpt lat="42.59257" lon="2.38089">
        <ele>657</ele>
        <time>2013-08-02T14:38:29Z</time>
      </trkpt>
      <trkpt lat="42.59254" lon="2.38089">
        <ele>657</ele>
        <time>2013-08-02T14:38:32Z</time>
      </trkpt>
      <trkpt lat="42.59251" lon="2.38088">
        <ele>657</ele>
        <time>2013-08-02T14:38:36Z</time>
      </trkpt>
      <trkpt lat="42.59247" lon="2.38087">
        <ele>657</ele>
        <time>2013-08-02T14:38:41Z</time>
      </trkpt>
      <trkpt lat="42.59243" lon="2.38086">
        <ele>657</ele>
        <time>2013-08-02T14:38:44Z</time>
      </trkpt>
      <trkpt lat="42.5924" lon="2.38085">
        <ele>658</ele>
        <time>2013-08-02T14:38:46Z</time>
      </trkpt>
      <trkpt lat="42.59236" lon="2.38082">
        <ele>658</ele>
        <time>2013-08-02T14:38:50Z</time>
      </trkpt>
      <trkpt lat="42.59235" lon="2.3808">
        <ele>660</ele>
        <time>2013-08-02T14:38:52Z</time>
      </trkpt>
      <trkpt lat="42.59231" lon="2.38078">
        <ele>662</ele>
        <time>2013-08-02T14:38:55Z</time>
      </trkpt>
      <trkpt lat="42.59227" lon="2.38076">
        <ele>664</ele>
        <time>2013-08-02T14:38:59Z</time>
      </trkpt>
      <trkpt lat="42.59225" lon="2.38076">
        <ele>664</ele>
        <time>2013-08-02T14:39:01Z</time>
      </trkpt>
      <trkpt lat="42.59223" lon="2.38077">
        <ele>664</ele>
        <time>2013-08-02T14:39:03Z</time>
      </trkpt>
      <trkpt lat="42.59219" lon="2.38078">
        <ele>664</ele>
        <time>2013-08-02T14:39:07Z</time>
      </trkpt>
      <trkpt lat="42.59215" lon="2.38079">
        <ele>664</ele>
        <time>2013-08-02T14:39:11Z</time>
      </trkpt>
      <trkpt lat="42.59211" lon="2.38079">
        <ele>660</ele>
        <time>2013-08-02T14:39:17Z</time>
      </trkpt>
      <trkpt lat="42.59205" lon="2.38081">
        <ele>660</ele>
        <time>2013-08-02T14:39:20Z</time>
      </trkpt>
      <trkpt lat="42.59203" lon="2.38081">
        <ele>660</ele>
        <time>2013-08-02T14:39:23Z</time>
      </trkpt>
      <trkpt lat="42.59201" lon="2.38081">
        <ele>660</ele>
        <time>2013-08-02T14:39:26Z</time>
      </trkpt>
      <trkpt lat="42.59199" lon="2.38083">
        <ele>660</ele>
        <time>2013-08-02T14:39:28Z</time>
      </trkpt>
      <trkpt lat="42.59197" lon="2.38083">
        <ele>660</ele>
        <time>2013-08-02T14:39:31Z</time>
      </trkpt>
      <trkpt lat="42.59194" lon="2.38084">
        <ele>660</ele>
        <time>2013-08-02T14:39:36Z</time>
      </trkpt>
      <trkpt lat="42.59192" lon="2.38083">
        <ele>662</ele>
        <time>2013-08-02T14:39:42Z</time>
      </trkpt>
      <trkpt lat="42.59188" lon="2.38083">
        <ele>665</ele>
        <time>2013-08-02T14:39:45Z</time>
      </trkpt>
      <trkpt lat="42.5919" lon="2.38086">
        <ele>667</ele>
        <time>2013-08-02T14:39:49Z</time>
      </trkpt>
      <trkpt lat="42.59188" lon="2.38083">
        <ele>668</ele>
        <time>2013-08-02T14:39:53Z</time>
      </trkpt>
      <trkpt lat="42.59187" lon="2.38078">
        <ele>671</ele>
        <time>2013-08-02T14:39:59Z</time>
      </trkpt>
      <trkpt lat="42.59186" lon="2.38074">
        <ele>674</ele>
        <time>2013-08-02T14:40:04Z</time>
      </trkpt>
      <trkpt lat="42.59186" lon="2.38072">
        <ele>681</ele>
        <time>2013-08-02T14:40:16Z</time>
      </trkpt>
      <trkpt lat="42.59187" lon="2.38074">
        <ele>685</ele>
        <time>2013-08-02T14:40:22Z</time>
      </trkpt>
      <trkpt lat="42.59188" lon="2.38072">
        <ele>686</ele>
        <time>2013-08-02T14:40:35Z</time>
      </trkpt>
      <trkpt lat="42.59189" lon="2.38067">
        <ele>689</ele>
        <time>2013-08-02T14:40:38Z</time>
      </trkpt>
      <trkpt lat="42.5919" lon="2.38067">
        <ele>690</ele>
        <time>2013-08-02T14:40:40Z</time>
      </trkpt>
      <trkpt lat="42.59193" lon="2.38072">
        <ele>691</ele>
        <time>2013-08-02T14:40:46Z</time>
      </trkpt>
      <trkpt lat="42.59195" lon="2.38076">
        <ele>689</ele>
        <time>2013-08-02T14:40:49Z</time>
      </trkpt>
      <trkpt lat="42.59196" lon="2.38079">
        <ele>687</ele>
        <time>2013-08-02T14:40:53Z</time>
      </trkpt>
      <trkpt lat="42.59195" lon="2.38081">
        <ele>681</ele>
        <time>2013-08-02T14:41:03Z</time>
      </trkpt>
      <trkpt lat="42.59196" lon="2.38084">
        <ele>679</ele>
        <time>2013-08-02T14:41:10Z</time>
      </trkpt>
      <trkpt lat="42.59197" lon="2.38087">
        <ele>677</ele>
        <time>2013-08-02T14:41:14Z</time>
      </trkpt>
      <trkpt lat="42.592" lon="2.38089">
        <ele>672</ele>
        <time>2013-08-02T14:41:20Z</time>
      </trkpt>
      <trkpt lat="42.59201" lon="2.38092">
        <ele>668</ele>
        <time>2013-08-02T14:41:26Z</time>
      </trkpt>
      <trkpt lat="42.59199" lon="2.38089">
        <ele>664</ele>
        <time>2013-08-02T14:41:32Z</time>
      </trkpt>
      <trkpt lat="42.592" lon="2.38089">
        <ele>664</ele>
        <time>2013-08-02T14:41:35Z</time>
      </trkpt>
      <trkpt lat="42.59199" lon="2.38088">
        <ele>664</ele>
        <time>2013-08-02T14:41:43Z</time>
      </trkpt>
      <trkpt lat="42.59199" lon="2.38089">
        <ele>664</ele>
        <time>2013-08-02T14:41:52Z</time>
      </trkpt>
      <trkpt lat="42.592" lon="2.3809">
        <ele>664</ele>
        <time>2013-08-02T14:41:55Z</time>
      </trkpt>
      <trkpt lat="42.59201" lon="2.38091">
        <ele>664</ele>
        <time>2013-08-02T14:41:57Z</time>
      </trkpt>
      <trkpt lat="42.59203" lon="2.38092">
        <ele>664</ele>
        <time>2013-08-02T14:42:00Z</time>
      </trkpt>
      <trkpt lat="42.59203" lon="2.3809">
        <ele>664</ele>
        <time>2013-08-02T14:42:03Z</time>
      </trkpt>
      <trkpt lat="42.59202" lon="2.38088">
        <ele>664</ele>
        <time>2013-08-02T14:42:06Z</time>
      </trkpt>
      <trkpt lat="42.592" lon="2.38083">
        <ele>666</ele>
        <time>2013-08-02T14:42:11Z</time>
      </trkpt>
      <trkpt lat="42.59199" lon="2.38082">
        <ele>671</ele>
        <time>2013-08-02T14:42:18Z</time>
      </trkpt>
      <trkpt lat="42.59199" lon="2.38084">
        <ele>673</ele>
        <time>2013-08-02T14:42:21Z</time>
      </trkpt>
      <trkpt lat="42.59199" lon="2.38082">
        <ele>673</ele>
        <time>2013-08-02T14:42:26Z</time>
      </trkpt>
      <trkpt lat="42.59197" lon="2.38079">
        <ele>673</ele>
        <time>2013-08-02T14:42:29Z</time>
      </trkpt>
      <trkpt lat="42.59196" lon="2.38077">
        <ele>677</ele>
        <time>2013-08-02T14:42:35Z</time>
      </trkpt>
      <trkpt lat="42.59197" lon="2.38079">
        <ele>678</ele>
        <time>2013-08-02T14:42:42Z</time>
      </trkpt>
      <trkpt lat="42.59197" lon="2.3808">
        <ele>678</ele>
        <time>2013-08-02T14:42:46Z</time>
      </trkpt>
      <trkpt lat="42.59197" lon="2.38079">
        <ele>678</ele>
        <time>2013-08-02T14:42:51Z</time>
      </trkpt>
      <trkpt lat="42.59196" lon="2.38077">
        <ele>677</ele>
        <time>2013-08-02T14:42:57Z</time>
      </trkpt>
      <trkpt lat="42.59196" lon="2.38075">
        <ele>677</ele>
        <time>2013-08-02T14:42:59Z</time>
      </trkpt>
      <trkpt lat="42.59197" lon="2.38078">
        <ele>676</ele>
        <time>2013-08-02T14:43:03Z</time>
      </trkpt>
      <trkpt lat="42.59198" lon="2.38082">
        <ele>673</ele>
        <time>2013-08-02T14:43:07Z</time>
      </trkpt>
      <trkpt lat="42.59199" lon="2.38086">
        <ele>669</ele>
        <time>2013-08-02T14:43:13Z</time>
      </trkpt>
      <trkpt lat="42.592" lon="2.3809">
        <ele>663</ele>
        <time>2013-08-02T14:43:18Z</time>
      </trkpt>
      <trkpt lat="42.59201" lon="2.38092">
        <ele>660</ele>
        <time>2013-08-02T14:43:23Z</time>
      </trkpt>
      <trkpt lat="42.592" lon="2.38093">
        <ele>658</ele>
        <time>2013-08-02T14:43:25Z</time>
      </trkpt>
      <trkpt lat="42.59199" lon="2.38095">
        <ele>656</ele>
        <time>2013-08-02T14:43:28Z</time>
      </trkpt>
      <trkpt lat="42.59198" lon="2.38097">
        <ele>655</ele>
        <time>2013-08-02T14:43:45Z</time>
      </trkpt>
      <trkpt lat="42.59198" lon="2.38095">
        <ele>654</ele>
        <time>2013-08-02T14:43:52Z</time>
      </trkpt>
      <trkpt lat="42.59198" lon="2.38093">
        <ele>653</ele>
        <time>2013-08-02T14:43:56Z</time>
      </trkpt>
      <trkpt lat="42.59199" lon="2.38093">
        <ele>647</ele>
        <time>2013-08-02T14:44:04Z</time>
      </trkpt>
      <trkpt lat="42.59199" lon="2.38096">
        <ele>647</ele>
        <time>2013-08-02T14:44:07Z</time>
      </trkpt>
      <trkpt lat="42.59197" lon="2.38097">
        <ele>647</ele>
        <time>2013-08-02T14:44:13Z</time>
      </trkpt>
      <trkpt lat="42.59196" lon="2.38096">
        <ele>648</ele>
        <time>2013-08-02T14:44:16Z</time>
      </trkpt>
      <trkpt lat="42.59193" lon="2.38085">
        <ele>649</ele>
        <time>2013-08-02T14:44:18Z</time>
      </trkpt>
      <trkpt lat="42.59195" lon="2.38085">
        <ele>653</ele>
        <time>2013-08-02T14:44:21Z</time>
      </trkpt>
      <trkpt lat="42.59199" lon="2.38087">
        <ele>656</ele>
        <time>2013-08-02T14:44:24Z</time>
      </trkpt>
      <trkpt lat="42.59201" lon="2.38087">
        <ele>664</ele>
        <time>2013-08-02T14:44:27Z</time>
      </trkpt>
      <trkpt lat="42.59204" lon="2.38085">
        <ele>666</ele>
        <time>2013-08-02T14:44:30Z</time>
      </trkpt>
      <trkpt lat="42.59205" lon="2.38086">
        <ele>672</ele>
        <time>2013-08-02T14:44:33Z</time>
      </trkpt>
      <trkpt lat="42.59203" lon="2.38087">
        <ele>677</ele>
        <time>2013-08-02T14:44:41Z</time>
      </trkpt>
      <trkpt lat="42.592" lon="2.3809">
        <ele>678</ele>
        <time>2013-08-02T14:44:44Z</time>
      </trkpt>
      <trkpt lat="42.59199" lon="2.3809">
        <ele>678</ele>
        <time>2013-08-02T14:44:46Z</time>
      </trkpt>
      <trkpt lat="42.59197" lon="2.38089">
        <ele>678</ele>
        <time>2013-08-02T14:44:49Z</time>
      </trkpt>
      <trkpt lat="42.59196" lon="2.38087">
        <ele>677</ele>
        <time>2013-08-02T14:44:52Z</time>
      </trkpt>
      <trkpt lat="42.59194" lon="2.38084">
        <ele>674</ele>
        <time>2013-08-02T14:45:05Z</time>
      </trkpt>
      <trkpt lat="42.59192" lon="2.38078">
        <ele>676</ele>
        <time>2013-08-02T14:45:16Z</time>
      </trkpt>
      <trkpt lat="42.5919" lon="2.38077">
        <ele>679</ele>
        <time>2013-08-02T14:45:21Z</time>
      </trkpt>
      <trkpt lat="42.59188" lon="2.38079">
        <ele>682</ele>
        <time>2013-08-02T14:45:26Z</time>
      </trkpt>
      <trkpt lat="42.59189" lon="2.38082">
        <ele>682</ele>
        <time>2013-08-02T14:45:28Z</time>
      </trkpt>
      <trkpt lat="42.59189" lon="2.38084">
        <ele>682</ele>
        <time>2013-08-02T14:45:32Z</time>
      </trkpt>
      <trkpt lat="42.59189" lon="2.38085">
        <ele>682</ele>
        <time>2013-08-02T14:45:39Z</time>
      </trkpt>
      <trkpt lat="42.59191" lon="2.38102">
        <ele>679</ele>
        <time>2013-08-02T14:47:28Z</time>
      </trkpt>
      <trkpt lat="42.59188" lon="2.38081">
        <ele>666</ele>
        <time>2013-08-02T14:47:35Z</time>
      </trkpt>
      <trkpt lat="42.59182" lon="2.38087">
        <ele>662</ele>
        <time>2013-08-02T14:47:44Z</time>
      </trkpt>
      <trkpt lat="42.59179" lon="2.38083">
        <ele>660</ele>
        <time>2013-08-02T14:47:47Z</time>
      </trkpt>
      <trkpt lat="42.5918" lon="2.38081">
        <ele>658</ele>
        <time>2013-08-02T14:47:49Z</time>
      </trkpt>
      <trkpt lat="42.59185" lon="2.3808">
        <ele>656</ele>
        <time>2013-08-02T14:47:53Z</time>
      </trkpt>
      <trkpt lat="42.5919" lon="2.38085">
        <ele>650</ele>
        <time>2013-08-02T14:47:55Z</time>
      </trkpt>
      <trkpt lat="42.59195" lon="2.38088">
        <ele>648</ele>
        <time>2013-08-02T14:47:58Z</time>
      </trkpt>
      <trkpt lat="42.59194" lon="2.38093">
        <ele>646</ele>
        <time>2013-08-02T14:48:03Z</time>
      </trkpt>
      <trkpt lat="42.59195" lon="2.38096">
        <ele>643</ele>
        <time>2013-08-02T14:48:06Z</time>
      </trkpt>
      <trkpt lat="42.59196" lon="2.38098">
        <ele>643</ele>
        <time>2013-08-02T14:48:10Z</time>
      </trkpt>
      <trkpt lat="42.59198" lon="2.38094">
        <ele>643</ele>
        <time>2013-08-02T14:48:12Z</time>
      </trkpt>
      <trkpt lat="42.59195" lon="2.38085">
        <ele>647</ele>
        <time>2013-08-02T14:48:18Z</time>
      </trkpt>
      <trkpt lat="42.59191" lon="2.38079">
        <ele>651</ele>
        <time>2013-08-02T14:48:21Z</time>
      </trkpt>
      <trkpt lat="42.59192" lon="2.38078">
        <ele>653</ele>
        <time>2013-08-02T14:48:24Z</time>
      </trkpt>
      <trkpt lat="42.59194" lon="2.3808">
        <ele>657</ele>
        <time>2013-08-02T14:48:31Z</time>
      </trkpt>
      <trkpt lat="42.59192" lon="2.38086">
        <ele>660</ele>
        <time>2013-08-02T14:48:33Z</time>
      </trkpt>
      <trkpt lat="42.59188" lon="2.38091">
        <ele>661</ele>
        <time>2013-08-02T14:48:37Z</time>
      </trkpt>
      <trkpt lat="42.59194" lon="2.38088">
        <ele>661</ele>
        <time>2013-08-02T14:48:43Z</time>
      </trkpt>
      <trkpt lat="42.59187" lon="2.38088">
        <ele>660</ele>
        <time>2013-08-02T14:49:42Z</time>
      </trkpt>
      <trkpt lat="42.59183" lon="2.38077">
        <ele>662</ele>
        <time>2013-08-02T14:49:48Z</time>
      </trkpt>
      <trkpt lat="42.59181" lon="2.3807">
        <ele>669</ele>
        <time>2013-08-02T14:49:51Z</time>
      </trkpt>
      <trkpt lat="42.59178" lon="2.38064">
        <ele>672</ele>
        <time>2013-08-02T14:49:54Z</time>
      </trkpt>
      <trkpt lat="42.59181" lon="2.38068">
        <ele>687</ele>
        <time>2013-08-02T14:50:00Z</time>
      </trkpt>
      <trkpt lat="42.59179" lon="2.38065">
        <ele>696</ele>
        <time>2013-08-02T14:50:05Z</time>
      </trkpt>
      <trkpt lat="42.59176" lon="2.38061">
        <ele>701</ele>
        <time>2013-08-02T14:50:11Z</time>
      </trkpt>
      <trkpt lat="42.59173" lon="2.38051">
        <ele>707</ele>
        <time>2013-08-02T14:50:13Z</time>
      </trkpt>
      <trkpt lat="42.59172" lon="2.38049">
        <ele>713</ele>
        <time>2013-08-02T14:50:17Z</time>
      </trkpt>
      <trkpt lat="42.59171" lon="2.38049">
        <ele>720</ele>
        <time>2013-08-02T14:50:19Z</time>
      </trkpt>
      <trkpt lat="42.5917" lon="2.38054">
        <ele>722</ele>
        <time>2013-08-02T14:50:22Z</time>
      </trkpt>
      <trkpt lat="42.5917" lon="2.38056">
        <ele>725</ele>
        <time>2013-08-02T14:50:24Z</time>
      </trkpt>
      <trkpt lat="42.5917" lon="2.38059">
        <ele>726</ele>
        <time>2013-08-02T14:50:28Z</time>
      </trkpt>
      <trkpt lat="42.59168" lon="2.38064">
        <ele>729</ele>
        <time>2013-08-02T14:50:32Z</time>
      </trkpt>
      <trkpt lat="42.59165" lon="2.38067">
        <ele>731</ele>
        <time>2013-08-02T14:50:36Z</time>
      </trkpt>
      <trkpt lat="42.59161" lon="2.38068">
        <ele>732</ele>
        <time>2013-08-02T14:50:42Z</time>
      </trkpt>
      <trkpt lat="42.59162" lon="2.38068">
        <ele>734</ele>
        <time>2013-08-02T14:50:48Z</time>
      </trkpt>
      <trkpt lat="42.59161" lon="2.38068">
        <ele>735</ele>
        <time>2013-08-02T14:50:51Z</time>
      </trkpt>
      <trkpt lat="42.59159" lon="2.38069">
        <ele>735</ele>
        <time>2013-08-02T14:50:53Z</time>
      </trkpt>
      <trkpt lat="42.59157" lon="2.38071">
        <ele>735</ele>
        <time>2013-08-02T14:50:56Z</time>
      </trkpt>
      <trkpt lat="42.59155" lon="2.38077">
        <ele>735</ele>
        <time>2013-08-02T14:50:59Z</time>
      </trkpt>
      <trkpt lat="42.59154" lon="2.3808">
        <ele>735</ele>
        <time>2013-08-02T14:51:01Z</time>
      </trkpt>
      <trkpt lat="42.59152" lon="2.38086">
        <ele>731</ele>
        <time>2013-08-02T14:51:05Z</time>
      </trkpt>
      <trkpt lat="42.59151" lon="2.38088">
        <ele>729</ele>
        <time>2013-08-02T14:51:07Z</time>
      </trkpt>
      <trkpt lat="42.5915" lon="2.38093">
        <ele>726</ele>
        <time>2013-08-02T14:51:10Z</time>
      </trkpt>
      <trkpt lat="42.59147" lon="2.38099">
        <ele>723</ele>
        <time>2013-08-02T14:51:14Z</time>
      </trkpt>
      <trkpt lat="42.59146" lon="2.38101">
        <ele>717</ele>
        <time>2013-08-02T14:51:16Z</time>
      </trkpt>
      <trkpt lat="42.59143" lon="2.381">
        <ele>716</ele>
        <time>2013-08-02T14:51:20Z</time>
      </trkpt>
      <trkpt lat="42.59142" lon="2.381">
        <ele>714</ele>
        <time>2013-08-02T14:51:23Z</time>
      </trkpt>
      <trkpt lat="42.59139" lon="2.381">
        <ele>714</ele>
        <time>2013-08-02T14:51:26Z</time>
      </trkpt>
      <trkpt lat="42.59138" lon="2.38097">
        <ele>714</ele>
        <time>2013-08-02T14:51:33Z</time>
      </trkpt>
      <trkpt lat="42.59138" lon="2.38092">
        <ele>714</ele>
        <time>2013-08-02T14:51:37Z</time>
      </trkpt>
      <trkpt lat="42.59136" lon="2.38089">
        <ele>714</ele>
        <time>2013-08-02T14:51:43Z</time>
      </trkpt>
      <trkpt lat="42.59133" lon="2.38089">
        <ele>714</ele>
        <time>2013-08-02T14:51:48Z</time>
      </trkpt>
      <trkpt lat="42.59135" lon="2.38089">
        <ele>714</ele>
        <time>2013-08-02T14:51:50Z</time>
      </trkpt>
      <trkpt lat="42.59136" lon="2.38088">
        <ele>715</ele>
        <time>2013-08-02T14:51:55Z</time>
      </trkpt>
      <trkpt lat="42.5913" lon="2.3808">
        <ele>718</ele>
        <time>2013-08-02T14:52:02Z</time>
      </trkpt>
      <trkpt lat="42.59142" lon="2.38091">
        <ele>723</ele>
        <time>2013-08-02T14:52:07Z</time>
      </trkpt>
      <trkpt lat="42.5914" lon="2.38097">
        <ele>727</ele>
        <time>2013-08-02T14:52:13Z</time>
      </trkpt>
      <trkpt lat="42.59138" lon="2.38099">
        <ele>723</ele>
        <time>2013-08-02T14:52:16Z</time>
      </trkpt>
      <trkpt lat="42.59138" lon="2.38101">
        <ele>721</ele>
        <time>2013-08-02T14:52:20Z</time>
      </trkpt>
      <trkpt lat="42.59136" lon="2.381">
        <ele>708</ele>
        <time>2013-08-02T14:52:28Z</time>
      </trkpt>
      <trkpt lat="42.59131" lon="2.38098">
        <ele>705</ele>
        <time>2013-08-02T14:52:31Z</time>
      </trkpt>
      <trkpt lat="42.59128" lon="2.38099">
        <ele>703</ele>
        <time>2013-08-02T14:52:33Z</time>
      </trkpt>
      <trkpt lat="42.59127" lon="2.38101">
        <ele>697</ele>
        <time>2013-08-02T14:52:39Z</time>
      </trkpt>
      <trkpt lat="42.59129" lon="2.38105">
        <ele>693</ele>
        <time>2013-08-02T14:52:45Z</time>
      </trkpt>
      <trkpt lat="42.59131" lon="2.38104">
        <ele>690</ele>
        <time>2013-08-02T14:52:48Z</time>
      </trkpt>
      <trkpt lat="42.59132" lon="2.38104">
        <ele>689</ele>
        <time>2013-08-02T14:52:51Z</time>
      </trkpt>
      <trkpt lat="42.59139" lon="2.38101">
        <ele>688</ele>
        <time>2013-08-02T14:52:54Z</time>
      </trkpt>
      <trkpt lat="42.59145" lon="2.38099">
        <ele>688</ele>
        <time>2013-08-02T14:52:57Z</time>
      </trkpt>
      <trkpt lat="42.59152" lon="2.38095">
        <ele>687</ele>
        <time>2013-08-02T14:53:01Z</time>
      </trkpt>
      <trkpt lat="42.59155" lon="2.38091">
        <ele>686</ele>
        <time>2013-08-02T14:53:04Z</time>
      </trkpt>
      <trkpt lat="42.59159" lon="2.38085">
        <ele>686</ele>
        <time>2013-08-02T14:53:08Z</time>
      </trkpt>
      <trkpt lat="42.5916" lon="2.3808">
        <ele>686</ele>
        <time>2013-08-02T14:53:10Z</time>
      </trkpt>
      <trkpt lat="42.59162" lon="2.38077">
        <ele>686</ele>
        <time>2013-08-02T14:53:13Z</time>
      </trkpt>
      <trkpt lat="42.59164" lon="2.38073">
        <ele>686</ele>
        <time>2013-08-02T14:53:17Z</time>
      </trkpt>
      <trkpt lat="42.59164" lon="2.38071">
        <ele>686</ele>
        <time>2013-08-02T14:53:23Z</time>
      </trkpt>
      <trkpt lat="42.59165" lon="2.38067">
        <ele>686</ele>
        <time>2013-08-02T14:53:29Z</time>
      </trkpt>
      <trkpt lat="42.59167" lon="2.38061">
        <ele>686</ele>
        <time>2013-08-02T14:53:33Z</time>
      </trkpt>
      <trkpt lat="42.59168" lon="2.38058">
        <ele>684</ele>
        <time>2013-08-02T14:53:37Z</time>
      </trkpt>
      <trkpt lat="42.59171" lon="2.38056">
        <ele>683</ele>
        <time>2013-08-02T14:53:40Z</time>
      </trkpt>
      <trkpt lat="42.59171" lon="2.38052">
        <ele>679</ele>
        <time>2013-08-02T14:53:43Z</time>
      </trkpt>
      <trkpt lat="42.59171" lon="2.38049">
        <ele>677</ele>
        <time>2013-08-02T14:53:45Z</time>
      </trkpt>
      <trkpt lat="42.5917" lon="2.38046">
        <ele>674</ele>
        <time>2013-08-02T14:53:48Z</time>
      </trkpt>
      <trkpt lat="42.5917" lon="2.38043">
        <ele>672</ele>
        <time>2013-08-02T14:53:51Z</time>
      </trkpt>
      <trkpt lat="42.5917" lon="2.3804">
        <ele>670</ele>
        <time>2013-08-02T14:53:54Z</time>
      </trkpt>
      <trkpt lat="42.59171" lon="2.38034">
        <ele>668</ele>
        <time>2013-08-02T14:53:58Z</time>
      </trkpt>
      <trkpt lat="42.59171" lon="2.38028">
        <ele>666</ele>
        <time>2013-08-02T14:54:01Z</time>
      </trkpt>
      <trkpt lat="42.59172" lon="2.38023">
        <ele>666</ele>
        <time>2013-08-02T14:54:03Z</time>
      </trkpt>
      <trkpt lat="42.59175" lon="2.38017">
        <ele>666</ele>
        <time>2013-08-02T14:54:07Z</time>
      </trkpt>
      <trkpt lat="42.59176" lon="2.38013">
        <ele>666</ele>
        <time>2013-08-02T14:54:10Z</time>
      </trkpt>
      <trkpt lat="42.59179" lon="2.38006">
        <ele>666</ele>
        <time>2013-08-02T14:54:14Z</time>
      </trkpt>
      <trkpt lat="42.5918" lon="2.38005">
        <ele>666</ele>
        <time>2013-08-02T14:54:22Z</time>
      </trkpt>
      <trkpt lat="42.59179" lon="2.38007">
        <ele>666</ele>
        <time>2013-08-02T14:54:24Z</time>
      </trkpt>
      <trkpt lat="42.59179" lon="2.38009">
        <ele>666</ele>
        <time>2013-08-02T14:54:27Z</time>
      </trkpt>
      <trkpt lat="42.59181" lon="2.38013">
        <ele>667</ele>
        <time>2013-08-02T14:54:40Z</time>
      </trkpt>
      <trkpt lat="42.5918" lon="2.38016">
        <ele>667</ele>
        <time>2013-08-02T14:54:42Z</time>
      </trkpt>
      <trkpt lat="42.59181" lon="2.38019">
        <ele>668</ele>
        <time>2013-08-02T14:54:46Z</time>
      </trkpt>
      <trkpt lat="42.59179" lon="2.38026">
        <ele>669</ele>
        <time>2013-08-02T14:54:49Z</time>
      </trkpt>
      <trkpt lat="42.59177" lon="2.38031">
        <ele>670</ele>
        <time>2013-08-02T14:54:54Z</time>
      </trkpt>
      <trkpt lat="42.59179" lon="2.3804">
        <ele>672</ele>
        <time>2013-08-02T14:54:58Z</time>
      </trkpt>
      <trkpt lat="42.59176" lon="2.38044">
        <ele>674</ele>
        <time>2013-08-02T14:55:02Z</time>
      </trkpt>
      <trkpt lat="42.59174" lon="2.38049">
        <ele>674</ele>
        <time>2013-08-02T14:55:05Z</time>
      </trkpt>
      <trkpt lat="42.59171" lon="2.38053">
        <ele>674</ele>
        <time>2013-08-02T14:55:08Z</time>
      </trkpt>
      <trkpt lat="42.59167" lon="2.3806">
        <ele>674</ele>
        <time>2013-08-02T14:55:13Z</time>
      </trkpt>
      <trkpt lat="42.59163" lon="2.38065">
        <ele>674</ele>
        <time>2013-08-02T14:55:17Z</time>
      </trkpt>
      <trkpt lat="42.59159" lon="2.38068">
        <ele>671</ele>
        <time>2013-08-02T14:55:20Z</time>
      </trkpt>
      <trkpt lat="42.59158" lon="2.38072">
        <ele>670</ele>
        <time>2013-08-02T14:55:23Z</time>
      </trkpt>
      <trkpt lat="42.59157" lon="2.38072">
        <ele>669</ele>
        <time>2013-08-02T14:55:25Z</time>
      </trkpt>
      <trkpt lat="42.59156" lon="2.38073">
        <ele>668</ele>
        <time>2013-08-02T14:55:32Z</time>
      </trkpt>
      <trkpt lat="42.59155" lon="2.38075">
        <ele>668</ele>
        <time>2013-08-02T14:55:39Z</time>
      </trkpt>
      <trkpt lat="42.59154" lon="2.38079">
        <ele>668</ele>
        <time>2013-08-02T14:55:43Z</time>
      </trkpt>
      <trkpt lat="42.59154" lon="2.38082">
        <ele>668</ele>
        <time>2013-08-02T14:55:45Z</time>
      </trkpt>
      <trkpt lat="42.59152" lon="2.38086">
        <ele>668</ele>
        <time>2013-08-02T14:55:48Z</time>
      </trkpt>
      <trkpt lat="42.59151" lon="2.3809">
        <ele>668</ele>
        <time>2013-08-02T14:55:51Z</time>
      </trkpt>
      <trkpt lat="42.59154" lon="2.38093">
        <ele>668</ele>
        <time>2013-08-02T14:55:54Z</time>
      </trkpt>
      <trkpt lat="42.59156" lon="2.38099">
        <ele>671</ele>
        <time>2013-08-02T14:55:56Z</time>
      </trkpt>
      <trkpt lat="42.59158" lon="2.38103">
        <ele>672</ele>
        <time>2013-08-02T14:55:59Z</time>
      </trkpt>
      <trkpt lat="42.59158" lon="2.38107">
        <ele>674</ele>
        <time>2013-08-02T14:56:01Z</time>
      </trkpt>
      <trkpt lat="42.59152" lon="2.3811">
        <ele>677</ele>
        <time>2013-08-02T14:56:06Z</time>
      </trkpt>
      <trkpt lat="42.59144" lon="2.38111">
        <ele>678</ele>
        <time>2013-08-02T14:56:08Z</time>
      </trkpt>
      <trkpt lat="42.59143" lon="2.38114">
        <ele>678</ele>
        <time>2013-08-02T14:56:12Z</time>
      </trkpt>
      <trkpt lat="42.59141" lon="2.3812">
        <ele>678</ele>
        <time>2013-08-02T14:56:16Z</time>
      </trkpt>
      <trkpt lat="42.59138" lon="2.38123">
        <ele>681</ele>
        <time>2013-08-02T14:56:18Z</time>
      </trkpt>
      <trkpt lat="42.59134" lon="2.38125">
        <ele>682</ele>
        <time>2013-08-02T14:56:22Z</time>
      </trkpt>
      <trkpt lat="42.59134" lon="2.38127">
        <ele>684</ele>
        <time>2013-08-02T14:56:25Z</time>
      </trkpt>
      <trkpt lat="42.59132" lon="2.3813">
        <ele>685</ele>
        <time>2013-08-02T14:56:28Z</time>
      </trkpt>
      <trkpt lat="42.59129" lon="2.38136">
        <ele>687</ele>
        <time>2013-08-02T14:56:31Z</time>
      </trkpt>
      <trkpt lat="42.59126" lon="2.38138">
        <ele>689</ele>
        <time>2013-08-02T14:56:33Z</time>
      </trkpt>
      <trkpt lat="42.5912" lon="2.38141">
        <ele>691</ele>
        <time>2013-08-02T14:56:38Z</time>
      </trkpt>
      <trkpt lat="42.59118" lon="2.38146">
        <ele>692</ele>
        <time>2013-08-02T14:56:40Z</time>
      </trkpt>
      <trkpt lat="42.59116" lon="2.38149">
        <ele>692</ele>
        <time>2013-08-02T14:56:43Z</time>
      </trkpt>
      <trkpt lat="42.59113" lon="2.38152">
        <ele>692</ele>
        <time>2013-08-02T14:56:46Z</time>
      </trkpt>
      <trkpt lat="42.5911" lon="2.38157">
        <ele>692</ele>
        <time>2013-08-02T14:56:50Z</time>
      </trkpt>
      <trkpt lat="42.59106" lon="2.3816">
        <ele>692</ele>
        <time>2013-08-02T14:56:53Z</time>
      </trkpt>
      <trkpt lat="42.59104" lon="2.38162">
        <ele>692</ele>
        <time>2013-08-02T14:56:56Z</time>
      </trkpt>
      <trkpt lat="42.59102" lon="2.38166">
        <ele>692</ele>
        <time>2013-08-02T14:57:00Z</time>
      </trkpt>
      <trkpt lat="42.591" lon="2.38173">
        <ele>692</ele>
        <time>2013-08-02T14:57:04Z</time>
      </trkpt>
      <trkpt lat="42.59099" lon="2.38176">
        <ele>694</ele>
        <time>2013-08-02T14:57:07Z</time>
      </trkpt>
      <trkpt lat="42.59095" lon="2.3818">
        <ele>697</ele>
        <time>2013-08-02T14:57:11Z</time>
      </trkpt>
      <trkpt lat="42.5909" lon="2.38182">
        <ele>699</ele>
        <time>2013-08-02T14:57:13Z</time>
      </trkpt>
      <trkpt lat="42.59085" lon="2.38186">
        <ele>700</ele>
        <time>2013-08-02T14:57:17Z</time>
      </trkpt>
      <trkpt lat="42.59085" lon="2.3819">
        <ele>702</ele>
        <time>2013-08-02T14:57:20Z</time>
      </trkpt>
      <trkpt lat="42.5908" lon="2.38192">
        <ele>703</ele>
        <time>2013-08-02T14:57:23Z</time>
      </trkpt>
      <trkpt lat="42.59077" lon="2.38193">
        <ele>703</ele>
        <time>2013-08-02T14:57:26Z</time>
      </trkpt>
      <trkpt lat="42.59075" lon="2.38196">
        <ele>703</ele>
        <time>2013-08-02T14:57:30Z</time>
      </trkpt>
      <trkpt lat="42.59075" lon="2.38201">
        <ele>703</ele>
        <time>2013-08-02T14:57:32Z</time>
      </trkpt>
      <trkpt lat="42.59073" lon="2.38203">
        <ele>703</ele>
        <time>2013-08-02T14:57:35Z</time>
      </trkpt>
      <trkpt lat="42.59071" lon="2.38207">
        <ele>701</ele>
        <time>2013-08-02T14:57:38Z</time>
      </trkpt>
      <trkpt lat="42.59069" lon="2.38214">
        <ele>701</ele>
        <time>2013-08-02T14:57:41Z</time>
      </trkpt>
      <trkpt lat="42.59068" lon="2.38216">
        <ele>699</ele>
        <time>2013-08-02T14:57:44Z</time>
      </trkpt>
      <trkpt lat="42.59067" lon="2.38217">
        <ele>698</ele>
        <time>2013-08-02T14:57:47Z</time>
      </trkpt>
      <trkpt lat="42.59061" lon="2.38224">
        <ele>697</ele>
        <time>2013-08-02T14:57:51Z</time>
      </trkpt>
      <trkpt lat="42.59057" lon="2.38227">
        <ele>695</ele>
        <time>2013-08-02T14:57:55Z</time>
      </trkpt>
      <trkpt lat="42.59055" lon="2.3823">
        <ele>695</ele>
        <time>2013-08-02T14:58:00Z</time>
      </trkpt>
      <trkpt lat="42.5905" lon="2.38235">
        <ele>695</ele>
        <time>2013-08-02T14:58:05Z</time>
      </trkpt>
      <trkpt lat="42.59045" lon="2.38237">
        <ele>695</ele>
        <time>2013-08-02T14:58:09Z</time>
      </trkpt>
      <trkpt lat="42.59042" lon="2.38238">
        <ele>695</ele>
        <time>2013-08-02T14:58:12Z</time>
      </trkpt>
      <trkpt lat="42.5904" lon="2.38241">
        <ele>695</ele>
        <time>2013-08-02T14:58:15Z</time>
      </trkpt>
      <trkpt lat="42.59035" lon="2.38246">
        <ele>695</ele>
        <time>2013-08-02T14:58:21Z</time>
      </trkpt>
      <trkpt lat="42.59035" lon="2.38251">
        <ele>695</ele>
        <time>2013-08-02T14:58:23Z</time>
      </trkpt>
      <trkpt lat="42.59033" lon="2.38253">
        <ele>695</ele>
        <time>2013-08-02T14:58:26Z</time>
      </trkpt>
      <trkpt lat="42.59029" lon="2.38255">
        <ele>695</ele>
        <time>2013-08-02T14:58:30Z</time>
      </trkpt>
      <trkpt lat="42.59026" lon="2.38261">
        <ele>695</ele>
        <time>2013-08-02T14:58:33Z</time>
      </trkpt>
      <trkpt lat="42.59023" lon="2.38261">
        <ele>695</ele>
        <time>2013-08-02T14:58:37Z</time>
      </trkpt>
      <trkpt lat="42.59021" lon="2.38262">
        <ele>695</ele>
        <time>2013-08-02T14:58:39Z</time>
      </trkpt>
      <trkpt lat="42.59018" lon="2.38266">
        <ele>695</ele>
        <time>2013-08-02T14:58:43Z</time>
      </trkpt>
      <trkpt lat="42.59015" lon="2.38266">
        <ele>695</ele>
        <time>2013-08-02T14:58:47Z</time>
      </trkpt>
      <trkpt lat="42.59012" lon="2.38267">
        <ele>695</ele>
        <time>2013-08-02T14:58:50Z</time>
      </trkpt>
      <trkpt lat="42.59012" lon="2.38271">
        <ele>695</ele>
        <time>2013-08-02T14:58:56Z</time>
      </trkpt>
      <trkpt lat="42.59007" lon="2.38278">
        <ele>695</ele>
        <time>2013-08-02T14:59:00Z</time>
      </trkpt>
      <trkpt lat="42.59004" lon="2.3828">
        <ele>695</ele>
        <time>2013-08-02T14:59:02Z</time>
      </trkpt>
      <trkpt lat="42.59001" lon="2.38281">
        <ele>696</ele>
        <time>2013-08-02T14:59:06Z</time>
      </trkpt>
      <trkpt lat="42.58997" lon="2.38285">
        <ele>696</ele>
        <time>2013-08-02T14:59:09Z</time>
      </trkpt>
      <trkpt lat="42.58993" lon="2.38288">
        <ele>696</ele>
        <time>2013-08-02T14:59:12Z</time>
      </trkpt>
      <trkpt lat="42.58991" lon="2.3829">
        <ele>696</ele>
        <time>2013-08-02T14:59:15Z</time>
      </trkpt>
      <trkpt lat="42.58987" lon="2.38292">
        <ele>696</ele>
        <time>2013-08-02T14:59:17Z</time>
      </trkpt>
      <trkpt lat="42.58985" lon="2.38292">
        <ele>696</ele>
        <time>2013-08-02T14:59:20Z</time>
      </trkpt>
      <trkpt lat="42.58978" lon="2.38296">
        <ele>696</ele>
        <time>2013-08-02T14:59:24Z</time>
      </trkpt>
      <trkpt lat="42.58975" lon="2.38302">
        <ele>696</ele>
        <time>2013-08-02T14:59:30Z</time>
      </trkpt>
      <trkpt lat="42.58974" lon="2.38303">
        <ele>697</ele>
        <time>2013-08-02T14:59:33Z</time>
      </trkpt>
      <trkpt lat="42.58972" lon="2.38305">
        <ele>698</ele>
        <time>2013-08-02T14:59:36Z</time>
      </trkpt>
      <trkpt lat="42.58966" lon="2.3831">
        <ele>700</ele>
        <time>2013-08-02T14:59:43Z</time>
      </trkpt>
      <trkpt lat="42.58955" lon="2.3832">
        <ele>707</ele>
        <time>2013-08-02T14:59:53Z</time>
      </trkpt>
      <trkpt lat="42.58954" lon="2.38322">
        <ele>707</ele>
        <time>2013-08-02T14:59:56Z</time>
      </trkpt>
      <trkpt lat="42.58952" lon="2.38323">
        <ele>707</ele>
        <time>2013-08-02T14:59:58Z</time>
      </trkpt>
      <trkpt lat="42.5895" lon="2.38325">
        <ele>707</ele>
        <time>2013-08-02T15:00:00Z</time>
      </trkpt>
      <trkpt lat="42.58948" lon="2.38325">
        <ele>707</ele>
        <time>2013-08-02T15:00:02Z</time>
      </trkpt>
      <trkpt lat="42.58945" lon="2.38326">
        <ele>707</ele>
        <time>2013-08-02T15:00:04Z</time>
      </trkpt>
      <trkpt lat="42.58944" lon="2.38327">
        <ele>706</ele>
        <time>2013-08-02T15:00:06Z</time>
      </trkpt>
      <trkpt lat="42.58941" lon="2.38329">
        <ele>705</ele>
        <time>2013-08-02T15:00:08Z</time>
      </trkpt>
      <trkpt lat="42.5894" lon="2.3833">
        <ele>704</ele>
        <time>2013-08-02T15:00:10Z</time>
      </trkpt>
      <trkpt lat="42.58937" lon="2.38333">
        <ele>703</ele>
        <time>2013-08-02T15:00:12Z</time>
      </trkpt>
      <trkpt lat="42.58936" lon="2.38336">
        <ele>702</ele>
        <time>2013-08-02T15:00:14Z</time>
      </trkpt>
      <trkpt lat="42.58933" lon="2.38339">
        <ele>702</ele>
        <time>2013-08-02T15:00:16Z</time>
      </trkpt>
      <trkpt lat="42.58931" lon="2.38341">
        <ele>701</ele>
        <time>2013-08-02T15:00:18Z</time>
      </trkpt>
      <trkpt lat="42.58929" lon="2.38342">
        <ele>701</ele>
        <time>2013-08-02T15:00:20Z</time>
      </trkpt>
      <trkpt lat="42.58926" lon="2.38344">
        <ele>700</ele>
        <time>2013-08-02T15:00:22Z</time>
      </trkpt>
      <trkpt lat="42.58924" lon="2.38345">
        <ele>699</ele>
        <time>2013-08-02T15:00:24Z</time>
      </trkpt>
      <trkpt lat="42.58922" lon="2.38347">
        <ele>699</ele>
        <time>2013-08-02T15:00:26Z</time>
      </trkpt>
      <trkpt lat="42.5892" lon="2.3835">
        <ele>699</ele>
        <time>2013-08-02T15:00:28Z</time>
      </trkpt>
      <trkpt lat="42.58919" lon="2.38352">
        <ele>699</ele>
        <time>2013-08-02T15:00:30Z</time>
      </trkpt>
      <trkpt lat="42.58915" lon="2.38354">
        <ele>699</ele>
        <time>2013-08-02T15:00:32Z</time>
      </trkpt>
      <trkpt lat="42.58912" lon="2.38356">
        <ele>699</ele>
        <time>2013-08-02T15:00:35Z</time>
      </trkpt>
      <trkpt lat="42.58911" lon="2.38356">
        <ele>699</ele>
        <time>2013-08-02T15:00:37Z</time>
      </trkpt>
      <trkpt lat="42.58907" lon="2.38358">
        <ele>699</ele>
        <time>2013-08-02T15:00:41Z</time>
      </trkpt>
      <trkpt lat="42.58905" lon="2.3836">
        <ele>699</ele>
        <time>2013-08-02T15:00:43Z</time>
      </trkpt>
      <trkpt lat="42.58902" lon="2.38362">
        <ele>699</ele>
        <time>2013-08-02T15:00:45Z</time>
      </trkpt>
      <trkpt lat="42.589" lon="2.38364">
        <ele>699</ele>
        <time>2013-08-02T15:00:47Z</time>
      </trkpt>
      <trkpt lat="42.58897" lon="2.38366">
        <ele>699</ele>
        <time>2013-08-02T15:00:50Z</time>
      </trkpt>
      <trkpt lat="42.58896" lon="2.38368">
        <ele>699</ele>
        <time>2013-08-02T15:00:52Z</time>
      </trkpt>
      <trkpt lat="42.58892" lon="2.38373">
        <ele>699</ele>
        <time>2013-08-02T15:00:55Z</time>
      </trkpt>
      <trkpt lat="42.58889" lon="2.38374">
        <ele>699</ele>
        <time>2013-08-02T15:00:57Z</time>
      </trkpt>
      <trkpt lat="42.58887" lon="2.38374">
        <ele>699</ele>
        <time>2013-08-02T15:00:59Z</time>
      </trkpt>
      <trkpt lat="42.58883" lon="2.38375">
        <ele>699</ele>
        <time>2013-08-02T15:01:02Z</time>
      </trkpt>
      <trkpt lat="42.58881" lon="2.38377">
        <ele>699</ele>
        <time>2013-08-02T15:01:05Z</time>
      </trkpt>
      <trkpt lat="42.58881" lon="2.38381">
        <ele>699</ele>
        <time>2013-08-02T15:01:09Z</time>
      </trkpt>
      <trkpt lat="42.5888" lon="2.3838">
        <ele>701</ele>
        <time>2013-08-02T15:01:12Z</time>
      </trkpt>
      <trkpt lat="42.58878" lon="2.3838">
        <ele>702</ele>
        <time>2013-08-02T15:01:14Z</time>
      </trkpt>
      <trkpt lat="42.58876" lon="2.3838">
        <ele>702</ele>
        <time>2013-08-02T15:01:16Z</time>
      </trkpt>
      <trkpt lat="42.58875" lon="2.38381">
        <ele>702</ele>
        <time>2013-08-02T15:01:18Z</time>
      </trkpt>
      <trkpt lat="42.58875" lon="2.38382">
        <ele>703</ele>
        <time>2013-08-02T15:01:21Z</time>
      </trkpt>
      <trkpt lat="42.58874" lon="2.38383">
        <ele>704</ele>
        <time>2013-08-02T15:01:28Z</time>
      </trkpt>
      <trkpt lat="42.58874" lon="2.38381">
        <ele>705</ele>
        <time>2013-08-02T15:01:31Z</time>
      </trkpt>
      <trkpt lat="42.58872" lon="2.3838">
        <ele>705</ele>
        <time>2013-08-02T15:01:35Z</time>
      </trkpt>
      <trkpt lat="42.58873" lon="2.38378">
        <ele>705</ele>
        <time>2013-08-02T15:01:43Z</time>
      </trkpt>
      <trkpt lat="42.58872" lon="2.38379">
        <ele>705</ele>
        <time>2013-08-02T15:01:47Z</time>
      </trkpt>
      <trkpt lat="42.58876" lon="2.3838">
        <ele>704</ele>
        <time>2013-08-02T15:01:50Z</time>
      </trkpt>
      <trkpt lat="42.58874" lon="2.38381">
        <ele>703</ele>
        <time>2013-08-02T15:01:55Z</time>
      </trkpt>
      <trkpt lat="42.58868" lon="2.38383">
        <ele>703</ele>
        <time>2013-08-02T15:02:00Z</time>
      </trkpt>
      <trkpt lat="42.58864" lon="2.38385">
        <ele>703</ele>
        <time>2013-08-02T15:02:05Z</time>
      </trkpt>
      <trkpt lat="42.58861" lon="2.38387">
        <ele>703</ele>
        <time>2013-08-02T15:02:09Z</time>
      </trkpt>
      <trkpt lat="42.58857" lon="2.38388">
        <ele>703</ele>
        <time>2013-08-02T15:02:11Z</time>
      </trkpt>
      <trkpt lat="42.58851" lon="2.38388">
        <ele>703</ele>
        <time>2013-08-02T15:02:16Z</time>
      </trkpt>
      <trkpt lat="42.58849" lon="2.38389">
        <ele>703</ele>
        <time>2013-08-02T15:02:19Z</time>
      </trkpt>
      <trkpt lat="42.58846" lon="2.38391">
        <ele>703</ele>
        <time>2013-08-02T15:02:22Z</time>
      </trkpt>
      <trkpt lat="42.58843" lon="2.38391">
        <ele>703</ele>
        <time>2013-08-02T15:02:25Z</time>
      </trkpt>
      <trkpt lat="42.58839" lon="2.38391">
        <ele>703</ele>
        <time>2013-08-02T15:02:27Z</time>
      </trkpt>
      <trkpt lat="42.58834" lon="2.38394">
        <ele>703</ele>
        <time>2013-08-02T15:02:31Z</time>
      </trkpt>
      <trkpt lat="42.58831" lon="2.38397">
        <ele>703</ele>
        <time>2013-08-02T15:02:33Z</time>
      </trkpt>
      <trkpt lat="42.5883" lon="2.38399">
        <ele>703</ele>
        <time>2013-08-02T15:02:37Z</time>
      </trkpt>
      <trkpt lat="42.58829" lon="2.384">
        <ele>703</ele>
        <time>2013-08-02T15:02:40Z</time>
      </trkpt>
      <trkpt lat="42.58826" lon="2.38403">
        <ele>703</ele>
        <time>2013-08-02T15:02:44Z</time>
      </trkpt>
      <trkpt lat="42.58822" lon="2.38406">
        <ele>703</ele>
        <time>2013-08-02T15:02:47Z</time>
      </trkpt>
      <trkpt lat="42.58821" lon="2.38408">
        <ele>703</ele>
        <time>2013-08-02T15:02:49Z</time>
      </trkpt>
      <trkpt lat="42.58818" lon="2.38411">
        <ele>703</ele>
        <time>2013-08-02T15:02:53Z</time>
      </trkpt>
      <trkpt lat="42.58816" lon="2.38412">
        <ele>703</ele>
        <time>2013-08-02T15:02:55Z</time>
      </trkpt>
      <trkpt lat="42.58812" lon="2.38416">
        <ele>703</ele>
        <time>2013-08-02T15:02:59Z</time>
      </trkpt>
      <trkpt lat="42.58809" lon="2.3842">
        <ele>703</ele>
        <time>2013-08-02T15:03:02Z</time>
      </trkpt>
      <trkpt lat="42.58805" lon="2.38423">
        <ele>703</ele>
        <time>2013-08-02T15:03:06Z</time>
      </trkpt>
      <trkpt lat="42.58801" lon="2.38426">
        <ele>703</ele>
        <time>2013-08-02T15:03:10Z</time>
      </trkpt>
      <trkpt lat="42.58798" lon="2.38427">
        <ele>703</ele>
        <time>2013-08-02T15:03:13Z</time>
      </trkpt>
      <trkpt lat="42.58794" lon="2.38427">
        <ele>703</ele>
        <time>2013-08-02T15:03:16Z</time>
      </trkpt>
      <trkpt lat="42.58791" lon="2.38427">
        <ele>703</ele>
        <time>2013-08-02T15:03:20Z</time>
      </trkpt>
      <trkpt lat="42.58786" lon="2.38422">
        <ele>703</ele>
        <time>2013-08-02T15:03:25Z</time>
      </trkpt>
      <trkpt lat="42.58782" lon="2.38418">
        <ele>703</ele>
        <time>2013-08-02T15:03:29Z</time>
      </trkpt>
      <trkpt lat="42.58778" lon="2.38412">
        <ele>703</ele>
        <time>2013-08-02T15:03:34Z</time>
      </trkpt>
      <trkpt lat="42.58775" lon="2.38405">
        <ele>703</ele>
        <time>2013-08-02T15:03:38Z</time>
      </trkpt>
      <trkpt lat="42.58773" lon="2.38398">
        <ele>703</ele>
        <time>2013-08-02T15:03:42Z</time>
      </trkpt>
      <trkpt lat="42.58772" lon="2.38393">
        <ele>703</ele>
        <time>2013-08-02T15:03:47Z</time>
      </trkpt>
      <trkpt lat="42.5877" lon="2.38385">
        <ele>703</ele>
        <time>2013-08-02T15:03:51Z</time>
      </trkpt>
      <trkpt lat="42.58769" lon="2.38382">
        <ele>703</ele>
        <time>2013-08-02T15:03:53Z</time>
      </trkpt>
      <trkpt lat="42.58768" lon="2.38379">
        <ele>703</ele>
        <time>2013-08-02T15:03:56Z</time>
      </trkpt>
      <trkpt lat="42.58767" lon="2.38373">
        <ele>703</ele>
        <time>2013-08-02T15:04:00Z</time>
      </trkpt>
      <trkpt lat="42.58765" lon="2.38369">
        <ele>703</ele>
        <time>2013-08-02T15:04:02Z</time>
      </trkpt>
      <trkpt lat="42.58764" lon="2.38367">
        <ele>703</ele>
        <time>2013-08-02T15:04:05Z</time>
      </trkpt>
      <trkpt lat="42.58761" lon="2.38361">
        <ele>703</ele>
        <time>2013-08-02T15:04:09Z</time>
      </trkpt>
      <trkpt lat="42.5876" lon="2.38357">
        <ele>703</ele>
        <time>2013-08-02T15:04:12Z</time>
      </trkpt>
      <trkpt lat="42.58759" lon="2.38354">
        <ele>703</ele>
        <time>2013-08-02T15:04:14Z</time>
      </trkpt>
      <trkpt lat="42.58757" lon="2.38349">
        <ele>703</ele>
        <time>2013-08-02T15:04:17Z</time>
      </trkpt>
      <trkpt lat="42.58757" lon="2.38347">
        <ele>703</ele>
        <time>2013-08-02T15:04:19Z</time>
      </trkpt>
      <trkpt lat="42.58755" lon="2.38341">
        <ele>703</ele>
        <time>2013-08-02T15:04:22Z</time>
      </trkpt>
      <trkpt lat="42.58754" lon="2.38338">
        <ele>703</ele>
        <time>2013-08-02T15:04:25Z</time>
      </trkpt>
      <trkpt lat="42.58752" lon="2.38332">
        <ele>703</ele>
        <time>2013-08-02T15:04:29Z</time>
      </trkpt>
      <trkpt lat="42.58749" lon="2.38326">
        <ele>704</ele>
        <time>2013-08-02T15:04:33Z</time>
      </trkpt>
      <trkpt lat="42.58748" lon="2.38324">
        <ele>704</ele>
        <time>2013-08-02T15:04:36Z</time>
      </trkpt>
      <trkpt lat="42.58745" lon="2.38316">
        <ele>704</ele>
        <time>2013-08-02T15:04:40Z</time>
      </trkpt>
      <trkpt lat="42.58743" lon="2.38311">
        <ele>704</ele>
        <time>2013-08-02T15:04:44Z</time>
      </trkpt>
      <trkpt lat="42.5874" lon="2.38304">
        <ele>704</ele>
        <time>2013-08-02T15:04:49Z</time>
      </trkpt>
      <trkpt lat="42.58738" lon="2.38297">
        <ele>704</ele>
        <time>2013-08-02T15:04:53Z</time>
      </trkpt>
      <trkpt lat="42.58736" lon="2.38292">
        <ele>704</ele>
        <time>2013-08-02T15:04:58Z</time>
      </trkpt>
      <trkpt lat="42.58736" lon="2.38291">
        <ele>704</ele>
        <time>2013-08-02T15:05:05Z</time>
      </trkpt>
      <trkpt lat="42.58737" lon="2.38292">
        <ele>708</ele>
        <time>2013-08-02T15:06:26Z</time>
      </trkpt>
      <trkpt lat="42.58736" lon="2.3829">
        <ele>709</ele>
        <time>2013-08-02T15:06:51Z</time>
      </trkpt>
      <trkpt lat="42.58735" lon="2.3829">
        <ele>711</ele>
        <time>2013-08-02T15:07:22Z</time>
      </trkpt>
      <trkpt lat="42.58734" lon="2.38288">
        <ele>711</ele>
        <time>2013-08-02T15:07:34Z</time>
      </trkpt>
      <trkpt lat="42.58732" lon="2.38283">
        <ele>712</ele>
        <time>2013-08-02T15:07:40Z</time>
      </trkpt>
      <trkpt lat="42.58731" lon="2.3828">
        <ele>713</ele>
        <time>2013-08-02T15:08:30Z</time>
      </trkpt>
      <trkpt lat="42.58728" lon="2.38275">
        <ele>713</ele>
        <time>2013-08-02T15:08:32Z</time>
      </trkpt>
      <trkpt lat="42.58727" lon="2.38271">
        <ele>713</ele>
        <time>2013-08-02T15:08:35Z</time>
      </trkpt>
      <trkpt lat="42.58725" lon="2.38267">
        <ele>713</ele>
        <time>2013-08-02T15:08:39Z</time>
      </trkpt>
      <trkpt lat="42.58723" lon="2.38259">
        <ele>713</ele>
        <time>2013-08-02T15:08:44Z</time>
      </trkpt>
      <trkpt lat="42.58722" lon="2.38252">
        <ele>713</ele>
        <time>2013-08-02T15:08:48Z</time>
      </trkpt>
      <trkpt lat="42.58721" lon="2.38245">
        <ele>713</ele>
        <time>2013-08-02T15:08:53Z</time>
      </trkpt>
      <trkpt lat="42.5872" lon="2.38238">
        <ele>713</ele>
        <time>2013-08-02T15:08:57Z</time>
      </trkpt>
      <trkpt lat="42.58719" lon="2.38231">
        <ele>713</ele>
        <time>2013-08-02T15:09:02Z</time>
      </trkpt>
      <trkpt lat="42.58718" lon="2.38223">
        <ele>713</ele>
        <time>2013-08-02T15:09:06Z</time>
      </trkpt>
      <trkpt lat="42.58715" lon="2.38215">
        <ele>713</ele>
        <time>2013-08-02T15:09:12Z</time>
      </trkpt>
      <trkpt lat="42.58713" lon="2.38212">
        <ele>713</ele>
        <time>2013-08-02T15:09:15Z</time>
      </trkpt>
      <trkpt lat="42.58711" lon="2.38208">
        <ele>713</ele>
        <time>2013-08-02T15:09:19Z</time>
      </trkpt>
      <trkpt lat="42.58711" lon="2.38204">
        <ele>713</ele>
        <time>2013-08-02T15:09:22Z</time>
      </trkpt>
      <trkpt lat="42.58709" lon="2.382">
        <ele>713</ele>
        <time>2013-08-02T15:09:24Z</time>
      </trkpt>
      <trkpt lat="42.58708" lon="2.38197">
        <ele>713</ele>
        <time>2013-08-02T15:09:26Z</time>
      </trkpt>
      <trkpt lat="42.58707" lon="2.38192">
        <ele>713</ele>
        <time>2013-08-02T15:09:29Z</time>
      </trkpt>
      <trkpt lat="42.58706" lon="2.38189">
        <ele>713</ele>
        <time>2013-08-02T15:09:31Z</time>
      </trkpt>
      <trkpt lat="42.58705" lon="2.38186">
        <ele>713</ele>
        <time>2013-08-02T15:09:33Z</time>
      </trkpt>
      <trkpt lat="42.58703" lon="2.38182">
        <ele>713</ele>
        <time>2013-08-02T15:09:36Z</time>
      </trkpt>
      <trkpt lat="42.58702" lon="2.3818">
        <ele>713</ele>
        <time>2013-08-02T15:09:38Z</time>
      </trkpt>
      <trkpt lat="42.587" lon="2.38174">
        <ele>713</ele>
        <time>2013-08-02T15:09:42Z</time>
      </trkpt>
      <trkpt lat="42.58697" lon="2.3817">
        <ele>713</ele>
        <time>2013-08-02T15:09:45Z</time>
      </trkpt>
      <trkpt lat="42.58695" lon="2.38166">
        <ele>713</ele>
        <time>2013-08-02T15:09:48Z</time>
      </trkpt>
      <trkpt lat="42.58693" lon="2.38161">
        <ele>713</ele>
        <time>2013-08-02T15:09:52Z</time>
      </trkpt>
      <trkpt lat="42.58691" lon="2.38157">
        <ele>713</ele>
        <time>2013-08-02T15:09:55Z</time>
      </trkpt>
      <trkpt lat="42.5869" lon="2.38154">
        <ele>713</ele>
        <time>2013-08-02T15:09:57Z</time>
      </trkpt>
      <trkpt lat="42.58691" lon="2.38149">
        <ele>713</ele>
        <time>2013-08-02T15:10:02Z</time>
      </trkpt>
      <trkpt lat="42.5869" lon="2.38145">
        <ele>713</ele>
        <time>2013-08-02T15:10:04Z</time>
      </trkpt>
      <trkpt lat="42.58688" lon="2.38145">
        <ele>713</ele>
        <time>2013-08-02T15:10:07Z</time>
      </trkpt>
      <trkpt lat="42.58685" lon="2.38145">
        <ele>713</ele>
        <time>2013-08-02T15:10:09Z</time>
      </trkpt>
      <trkpt lat="42.58682" lon="2.38144">
        <ele>713</ele>
        <time>2013-08-02T15:10:12Z</time>
      </trkpt>
      <trkpt lat="42.5868" lon="2.38143">
        <ele>713</ele>
        <time>2013-08-02T15:10:14Z</time>
      </trkpt>
      <trkpt lat="42.58677" lon="2.38142">
        <ele>713</ele>
        <time>2013-08-02T15:10:17Z</time>
      </trkpt>
      <trkpt lat="42.58675" lon="2.38142">
        <ele>713</ele>
        <time>2013-08-02T15:10:19Z</time>
      </trkpt>
      <trkpt lat="42.58673" lon="2.38141">
        <ele>713</ele>
        <time>2013-08-02T15:10:21Z</time>
      </trkpt>
      <trkpt lat="42.5867" lon="2.38141">
        <ele>713</ele>
        <time>2013-08-02T15:10:23Z</time>
      </trkpt>
      <trkpt lat="42.58666" lon="2.38141">
        <ele>713</ele>
        <time>2013-08-02T15:10:27Z</time>
      </trkpt>
      <trkpt lat="42.58664" lon="2.38142">
        <ele>713</ele>
        <time>2013-08-02T15:10:29Z</time>
      </trkpt>
      <trkpt lat="42.58662" lon="2.38142">
        <ele>713</ele>
        <time>2013-08-02T15:10:31Z</time>
      </trkpt>
      <trkpt lat="42.5866" lon="2.38142">
        <ele>713</ele>
        <time>2013-08-02T15:10:33Z</time>
      </trkpt>
      <trkpt lat="42.58657" lon="2.38142">
        <ele>713</ele>
        <time>2013-08-02T15:10:36Z</time>
      </trkpt>
      <trkpt lat="42.58654" lon="2.38143">
        <ele>713</ele>
        <time>2013-08-02T15:10:39Z</time>
      </trkpt>
      <trkpt lat="42.58651" lon="2.38144">
        <ele>713</ele>
        <time>2013-08-02T15:10:41Z</time>
      </trkpt>
      <trkpt lat="42.58647" lon="2.38145">
        <ele>713</ele>
        <time>2013-08-02T15:10:45Z</time>
      </trkpt>
      <trkpt lat="42.58645" lon="2.38146">
        <ele>713</ele>
        <time>2013-08-02T15:10:47Z</time>
      </trkpt>
      <trkpt lat="42.58643" lon="2.38147">
        <ele>713</ele>
        <time>2013-08-02T15:10:49Z</time>
      </trkpt>
      <trkpt lat="42.5864" lon="2.38147">
        <ele>713</ele>
        <time>2013-08-02T15:10:51Z</time>
      </trkpt>
      <trkpt lat="42.58636" lon="2.38146">
        <ele>713</ele>
        <time>2013-08-02T15:10:55Z</time>
      </trkpt>
      <trkpt lat="42.58634" lon="2.38146">
        <ele>713</ele>
        <time>2013-08-02T15:10:57Z</time>
      </trkpt>
      <trkpt lat="42.58632" lon="2.38146">
        <ele>713</ele>
        <time>2013-08-02T15:10:59Z</time>
      </trkpt>
      <trkpt lat="42.58629" lon="2.38146">
        <ele>713</ele>
        <time>2013-08-02T15:11:02Z</time>
      </trkpt>
      <trkpt lat="42.58627" lon="2.38147">
        <ele>713</ele>
        <time>2013-08-02T15:11:04Z</time>
      </trkpt>
      <trkpt lat="42.58624" lon="2.38147">
        <ele>713</ele>
        <time>2013-08-02T15:11:06Z</time>
      </trkpt>
      <trkpt lat="42.58622" lon="2.38149">
        <ele>713</ele>
        <time>2013-08-02T15:11:08Z</time>
      </trkpt>
      <trkpt lat="42.58618" lon="2.38151">
        <ele>713</ele>
        <time>2013-08-02T15:11:11Z</time>
      </trkpt>
      <trkpt lat="42.58615" lon="2.38153">
        <ele>713</ele>
        <time>2013-08-02T15:11:15Z</time>
      </trkpt>
      <trkpt lat="42.58611" lon="2.38155">
        <ele>713</ele>
        <time>2013-08-02T15:11:18Z</time>
      </trkpt>
      <trkpt lat="42.58606" lon="2.38157">
        <ele>713</ele>
        <time>2013-08-02T15:11:22Z</time>
      </trkpt>
      <trkpt lat="42.58605" lon="2.38156">
        <ele>713</ele>
        <time>2013-08-02T15:11:24Z</time>
      </trkpt>
      <trkpt lat="42.58601" lon="2.38154">
        <ele>714</ele>
        <time>2013-08-02T15:11:27Z</time>
      </trkpt>
      <trkpt lat="42.58598" lon="2.38151">
        <ele>714</ele>
        <time>2013-08-02T15:11:31Z</time>
      </trkpt>
      <trkpt lat="42.58596" lon="2.3815">
        <ele>714</ele>
        <time>2013-08-02T15:11:33Z</time>
      </trkpt>
      <trkpt lat="42.58594" lon="2.38148">
        <ele>715</ele>
        <time>2013-08-02T15:11:35Z</time>
      </trkpt>
      <trkpt lat="42.58592" lon="2.38145">
        <ele>715</ele>
        <time>2013-08-02T15:11:37Z</time>
      </trkpt>
      <trkpt lat="42.5859" lon="2.38144">
        <ele>716</ele>
        <time>2013-08-02T15:11:39Z</time>
      </trkpt>
      <trkpt lat="42.58588" lon="2.38142">
        <ele>716</ele>
        <time>2013-08-02T15:11:41Z</time>
      </trkpt>
      <trkpt lat="42.58587" lon="2.3814">
        <ele>716</ele>
        <time>2013-08-02T15:11:43Z</time>
      </trkpt>
      <trkpt lat="42.58585" lon="2.38139">
        <ele>717</ele>
        <time>2013-08-02T15:11:45Z</time>
      </trkpt>
      <trkpt lat="42.58584" lon="2.38136">
        <ele>717</ele>
        <time>2013-08-02T15:11:47Z</time>
      </trkpt>
      <trkpt lat="42.58582" lon="2.38135">
        <ele>717</ele>
        <time>2013-08-02T15:11:49Z</time>
      </trkpt>
      <trkpt lat="42.5858" lon="2.38132">
        <ele>718</ele>
        <time>2013-08-02T15:11:51Z</time>
      </trkpt>
      <trkpt lat="42.58579" lon="2.3813">
        <ele>718</ele>
        <time>2013-08-02T15:11:53Z</time>
      </trkpt>
      <trkpt lat="42.58577" lon="2.38128">
        <ele>718</ele>
        <time>2013-08-02T15:11:55Z</time>
      </trkpt>
      <trkpt lat="42.58576" lon="2.38126">
        <ele>719</ele>
        <time>2013-08-02T15:11:57Z</time>
      </trkpt>
      <trkpt lat="42.58575" lon="2.38123">
        <ele>719</ele>
        <time>2013-08-02T15:11:59Z</time>
      </trkpt>
      <trkpt lat="42.58573" lon="2.38121">
        <ele>719</ele>
        <time>2013-08-02T15:12:01Z</time>
      </trkpt>
      <trkpt lat="42.58571" lon="2.38118">
        <ele>719</ele>
        <time>2013-08-02T15:12:04Z</time>
      </trkpt>
      <trkpt lat="42.5857" lon="2.38115">
        <ele>719</ele>
        <time>2013-08-02T15:12:06Z</time>
      </trkpt>
      <trkpt lat="42.58569" lon="2.38113">
        <ele>719</ele>
        <time>2013-08-02T15:12:08Z</time>
      </trkpt>
      <trkpt lat="42.58567" lon="2.38112">
        <ele>719</ele>
        <time>2013-08-02T15:12:10Z</time>
      </trkpt>
      <trkpt lat="42.58563" lon="2.38109">
        <ele>719</ele>
        <time>2013-08-02T15:12:14Z</time>
      </trkpt>
      <trkpt lat="42.58562" lon="2.38107">
        <ele>719</ele>
        <time>2013-08-02T15:12:16Z</time>
      </trkpt>
      <trkpt lat="42.58562" lon="2.38101">
        <ele>719</ele>
        <time>2013-08-02T15:12:20Z</time>
      </trkpt>
      <trkpt lat="42.58562" lon="2.38097">
        <ele>719</ele>
        <time>2013-08-02T15:12:22Z</time>
      </trkpt>
      <trkpt lat="42.58561" lon="2.38094">
        <ele>719</ele>
        <time>2013-08-02T15:12:25Z</time>
      </trkpt>
      <trkpt lat="42.5856" lon="2.38089">
        <ele>719</ele>
        <time>2013-08-02T15:12:27Z</time>
      </trkpt>
      <trkpt lat="42.58559" lon="2.38086">
        <ele>719</ele>
        <time>2013-08-02T15:12:29Z</time>
      </trkpt>
      <trkpt lat="42.58558" lon="2.38083">
        <ele>720</ele>
        <time>2013-08-02T15:12:31Z</time>
      </trkpt>
      <trkpt lat="42.58557" lon="2.38081">
        <ele>720</ele>
        <time>2013-08-02T15:12:33Z</time>
      </trkpt>
      <trkpt lat="42.58555" lon="2.38076">
        <ele>721</ele>
        <time>2013-08-02T15:12:37Z</time>
      </trkpt>
      <trkpt lat="42.58553" lon="2.38074">
        <ele>721</ele>
        <time>2013-08-02T15:12:39Z</time>
      </trkpt>
      <trkpt lat="42.58552" lon="2.38071">
        <ele>721</ele>
        <time>2013-08-02T15:12:41Z</time>
      </trkpt>
      <trkpt lat="42.5855" lon="2.38069">
        <ele>722</ele>
        <time>2013-08-02T15:12:43Z</time>
      </trkpt>
      <trkpt lat="42.58548" lon="2.38067">
        <ele>722</ele>
        <time>2013-08-02T15:12:45Z</time>
      </trkpt>
      <trkpt lat="42.58545" lon="2.38065">
        <ele>722</ele>
        <time>2013-08-02T15:12:48Z</time>
      </trkpt>
      <trkpt lat="42.58543" lon="2.38063">
        <ele>722</ele>
        <time>2013-08-02T15:12:50Z</time>
      </trkpt>
      <trkpt lat="42.58541" lon="2.38061">
        <ele>723</ele>
        <time>2013-08-02T15:12:52Z</time>
      </trkpt>
      <trkpt lat="42.58539" lon="2.38059">
        <ele>723</ele>
        <time>2013-08-02T15:12:54Z</time>
      </trkpt>
      <trkpt lat="42.58537" lon="2.38057">
        <ele>723</ele>
        <time>2013-08-02T15:12:56Z</time>
      </trkpt>
      <trkpt lat="42.58535" lon="2.38056">
        <ele>723</ele>
        <time>2013-08-02T15:12:58Z</time>
      </trkpt>
      <trkpt lat="42.58533" lon="2.38054">
        <ele>723</ele>
        <time>2013-08-02T15:13:00Z</time>
      </trkpt>
      <trkpt lat="42.58531" lon="2.38052">
        <ele>723</ele>
        <time>2013-08-02T15:13:02Z</time>
      </trkpt>
      <trkpt lat="42.58529" lon="2.3805">
        <ele>723</ele>
        <time>2013-08-02T15:13:04Z</time>
      </trkpt>
      <trkpt lat="42.58527" lon="2.38048">
        <ele>723</ele>
        <time>2013-08-02T15:13:06Z</time>
      </trkpt>
      <trkpt lat="42.58526" lon="2.38046">
        <ele>723</ele>
        <time>2013-08-02T15:13:08Z</time>
      </trkpt>
      <trkpt lat="42.58524" lon="2.38044">
        <ele>724</ele>
        <time>2013-08-02T15:13:10Z</time>
      </trkpt>
      <trkpt lat="42.58521" lon="2.38039">
        <ele>724</ele>
        <time>2013-08-02T15:13:14Z</time>
      </trkpt>
      <trkpt lat="42.58518" lon="2.38034">
        <ele>724</ele>
        <time>2013-08-02T15:13:18Z</time>
      </trkpt>
      <trkpt lat="42.58517" lon="2.38032">
        <ele>725</ele>
        <time>2013-08-02T15:13:20Z</time>
      </trkpt>
      <trkpt lat="42.58515" lon="2.38026">
        <ele>725</ele>
        <time>2013-08-02T15:13:23Z</time>
      </trkpt>
      <trkpt lat="42.58515" lon="2.38023">
        <ele>725</ele>
        <time>2013-08-02T15:13:25Z</time>
      </trkpt>
      <trkpt lat="42.58514" lon="2.38021">
        <ele>725</ele>
        <time>2013-08-02T15:13:27Z</time>
      </trkpt>
      <trkpt lat="42.58513" lon="2.38018">
        <ele>729</ele>
        <time>2013-08-02T15:13:41Z</time>
      </trkpt>
      <trkpt lat="42.58513" lon="2.38016">
        <ele>732</ele>
        <time>2013-08-02T15:13:47Z</time>
      </trkpt>
      <trkpt lat="42.58512" lon="2.38015">
        <ele>734</ele>
        <time>2013-08-02T15:13:50Z</time>
      </trkpt>
      <trkpt lat="42.58511" lon="2.38013">
        <ele>740</ele>
        <time>2013-08-02T15:13:57Z</time>
      </trkpt>
      <trkpt lat="42.58511" lon="2.38011">
        <ele>742</ele>
        <time>2013-08-02T15:14:01Z</time>
      </trkpt>
      <trkpt lat="42.58509" lon="2.38009">
        <ele>745</ele>
        <time>2013-08-02T15:14:06Z</time>
      </trkpt>
      <trkpt lat="42.58506" lon="2.38007">
        <ele>747</ele>
        <time>2013-08-02T15:14:09Z</time>
      </trkpt>
      <trkpt lat="42.58507" lon="2.38009">
        <ele>753</ele>
        <time>2013-08-02T15:14:21Z</time>
      </trkpt>
      <trkpt lat="42.58509" lon="2.3801">
        <ele>753</ele>
        <time>2013-08-02T15:14:23Z</time>
      </trkpt>
      <trkpt lat="42.5851" lon="2.38012">
        <ele>752</ele>
        <time>2013-08-02T15:14:26Z</time>
      </trkpt>
      <trkpt lat="42.58511" lon="2.38013">
        <ele>750</ele>
        <time>2013-08-02T15:14:29Z</time>
      </trkpt>
      <trkpt lat="42.58512" lon="2.38014">
        <ele>747</ele>
        <time>2013-08-02T15:14:33Z</time>
      </trkpt>
      <trkpt lat="42.58514" lon="2.38015">
        <ele>743</ele>
        <time>2013-08-02T15:14:39Z</time>
      </trkpt>
      <trkpt lat="42.58513" lon="2.38014">
        <ele>742</ele>
        <time>2013-08-02T15:14:47Z</time>
      </trkpt>
      <trkpt lat="42.58512" lon="2.3801">
        <ele>742</ele>
        <time>2013-08-02T15:14:50Z</time>
      </trkpt>
      <trkpt lat="42.58511" lon="2.38006">
        <ele>741</ele>
        <time>2013-08-02T15:14:53Z</time>
      </trkpt>
      <trkpt lat="42.5851" lon="2.38002">
        <ele>741</ele>
        <time>2013-08-02T15:14:57Z</time>
      </trkpt>
      <trkpt lat="42.5851" lon="2.37999">
        <ele>741</ele>
        <time>2013-08-02T15:14:59Z</time>
      </trkpt>
      <trkpt lat="42.5851" lon="2.37995">
        <ele>740</ele>
        <time>2013-08-02T15:15:02Z</time>
      </trkpt>
      <trkpt lat="42.5851" lon="2.37992">
        <ele>740</ele>
        <time>2013-08-02T15:15:04Z</time>
      </trkpt>
      <trkpt lat="42.58511" lon="2.37988">
        <ele>740</ele>
        <time>2013-08-02T15:15:07Z</time>
      </trkpt>
      <trkpt lat="42.58512" lon="2.37985">
        <ele>740</ele>
        <time>2013-08-02T15:15:10Z</time>
      </trkpt>
      <trkpt lat="42.58513" lon="2.37982">
        <ele>740</ele>
        <time>2013-08-02T15:15:12Z</time>
      </trkpt>
      <trkpt lat="42.58516" lon="2.37979">
        <ele>740</ele>
        <time>2013-08-02T15:15:16Z</time>
      </trkpt>
      <trkpt lat="42.58518" lon="2.37977">
        <ele>740</ele>
        <time>2013-08-02T15:15:18Z</time>
      </trkpt>
      <trkpt lat="42.58519" lon="2.37975">
        <ele>740</ele>
        <time>2013-08-02T15:15:20Z</time>
      </trkpt>
      <trkpt lat="42.58522" lon="2.37974">
        <ele>740</ele>
        <time>2013-08-02T15:15:25Z</time>
      </trkpt>
      <trkpt lat="42.58521" lon="2.37975">
        <ele>740</ele>
        <time>2013-08-02T15:15:27Z</time>
      </trkpt>
      <trkpt lat="42.58516" lon="2.37972">
        <ele>740</ele>
        <time>2013-08-02T15:15:32Z</time>
      </trkpt>
      <trkpt lat="42.58516" lon="2.37974">
        <ele>740</ele>
        <time>2013-08-02T15:15:44Z</time>
      </trkpt>
      <trkpt lat="42.58515" lon="2.37975">
        <ele>740</ele>
        <time>2013-08-02T15:15:49Z</time>
      </trkpt>
      <trkpt lat="42.58514" lon="2.37975">
        <ele>740</ele>
        <time>2013-08-02T15:16:02Z</time>
      </trkpt>
      <trkpt lat="42.58511" lon="2.37972">
        <ele>740</ele>
        <time>2013-08-02T15:16:05Z</time>
      </trkpt>
      <trkpt lat="42.5851" lon="2.37969">
        <ele>740</ele>
        <time>2013-08-02T15:16:08Z</time>
      </trkpt>
      <trkpt lat="42.58509" lon="2.37965">
        <ele>740</ele>
        <time>2013-08-02T15:16:10Z</time>
      </trkpt>
      <trkpt lat="42.58508" lon="2.3796">
        <ele>739</ele>
        <time>2013-08-02T15:16:13Z</time>
      </trkpt>
      <trkpt lat="42.58506" lon="2.37956">
        <ele>739</ele>
        <time>2013-08-02T15:16:16Z</time>
      </trkpt>
      <trkpt lat="42.58505" lon="2.37953">
        <ele>739</ele>
        <time>2013-08-02T15:16:18Z</time>
      </trkpt>
      <trkpt lat="42.58504" lon="2.37948">
        <ele>739</ele>
        <time>2013-08-02T15:16:21Z</time>
      </trkpt>
      <trkpt lat="42.58503" lon="2.37945">
        <ele>739</ele>
        <time>2013-08-02T15:16:23Z</time>
      </trkpt>
      <trkpt lat="42.58501" lon="2.37941">
        <ele>739</ele>
        <time>2013-08-02T15:16:26Z</time>
      </trkpt>
      <trkpt lat="42.585" lon="2.37938">
        <ele>739</ele>
        <time>2013-08-02T15:16:28Z</time>
      </trkpt>
      <trkpt lat="42.58499" lon="2.37933">
        <ele>739</ele>
        <time>2013-08-02T15:16:31Z</time>
      </trkpt>
      <trkpt lat="42.58498" lon="2.37931">
        <ele>739</ele>
        <time>2013-08-02T15:16:33Z</time>
      </trkpt>
      <trkpt lat="42.58496" lon="2.37926">
        <ele>739</ele>
        <time>2013-08-02T15:16:36Z</time>
      </trkpt>
      <trkpt lat="42.58495" lon="2.37923">
        <ele>739</ele>
        <time>2013-08-02T15:16:38Z</time>
      </trkpt>
      <trkpt lat="42.58494" lon="2.37919">
        <ele>739</ele>
        <time>2013-08-02T15:16:41Z</time>
      </trkpt>
      <trkpt lat="42.58492" lon="2.37915">
        <ele>739</ele>
        <time>2013-08-02T15:16:44Z</time>
      </trkpt>
      <trkpt lat="42.58491" lon="2.37911">
        <ele>739</ele>
        <time>2013-08-02T15:16:47Z</time>
      </trkpt>
      <trkpt lat="42.5849" lon="2.37908">
        <ele>739</ele>
        <time>2013-08-02T15:16:49Z</time>
      </trkpt>
      <trkpt lat="42.58489" lon="2.37905">
        <ele>739</ele>
        <time>2013-08-02T15:16:51Z</time>
      </trkpt>
      <trkpt lat="42.58488" lon="2.37902">
        <ele>739</ele>
        <time>2013-08-02T15:16:53Z</time>
      </trkpt>
      <trkpt lat="42.58487" lon="2.37899">
        <ele>739</ele>
        <time>2013-08-02T15:16:56Z</time>
      </trkpt>
      <trkpt lat="42.58486" lon="2.37897">
        <ele>739</ele>
        <time>2013-08-02T15:17:12Z</time>
      </trkpt>
      <trkpt lat="42.58486" lon="2.37896">
        <ele>739</ele>
        <time>2013-08-02T15:17:20Z</time>
      </trkpt>
      <trkpt lat="42.58484" lon="2.37894">
        <ele>741</ele>
        <time>2013-08-02T15:17:31Z</time>
      </trkpt>
      <trkpt lat="42.58483" lon="2.37891">
        <ele>741</ele>
        <time>2013-08-02T15:17:34Z</time>
      </trkpt>
      <trkpt lat="42.58482" lon="2.37889">
        <ele>741</ele>
        <time>2013-08-02T15:17:36Z</time>
      </trkpt>
      <trkpt lat="42.58479" lon="2.37885">
        <ele>741</ele>
        <time>2013-08-02T15:17:40Z</time>
      </trkpt>
      <trkpt lat="42.58477" lon="2.37883">
        <ele>741</ele>
        <time>2013-08-02T15:17:42Z</time>
      </trkpt>
      <trkpt lat="42.58475" lon="2.37883">
        <ele>741</ele>
        <time>2013-08-02T15:17:44Z</time>
      </trkpt>
      <trkpt lat="42.58474" lon="2.37882">
        <ele>741</ele>
        <time>2013-08-02T15:17:46Z</time>
      </trkpt>
      <trkpt lat="42.58472" lon="2.37882">
        <ele>741</ele>
        <time>2013-08-02T15:17:48Z</time>
      </trkpt>
      <trkpt lat="42.58468" lon="2.37884">
        <ele>740</ele>
        <time>2013-08-02T15:17:52Z</time>
      </trkpt>
      <trkpt lat="42.58466" lon="2.37885">
        <ele>739</ele>
        <time>2013-08-02T15:17:56Z</time>
      </trkpt>
      <trkpt lat="42.58464" lon="2.37885">
        <ele>738</ele>
        <time>2013-08-02T15:17:58Z</time>
      </trkpt>
      <trkpt lat="42.58463" lon="2.37887">
        <ele>738</ele>
        <time>2013-08-02T15:18:01Z</time>
      </trkpt>
      <trkpt lat="42.58462" lon="2.37891">
        <ele>738</ele>
        <time>2013-08-02T15:18:04Z</time>
      </trkpt>
      <trkpt lat="42.5846" lon="2.37894">
        <ele>738</ele>
        <time>2013-08-02T15:18:07Z</time>
      </trkpt>
      <trkpt lat="42.58457" lon="2.37898">
        <ele>738</ele>
        <time>2013-08-02T15:18:10Z</time>
      </trkpt>
      <trkpt lat="42.58454" lon="2.37902">
        <ele>738</ele>
        <time>2013-08-02T15:18:13Z</time>
      </trkpt>
      <trkpt lat="42.58454" lon="2.37903">
        <ele>738</ele>
        <time>2013-08-02T15:18:15Z</time>
      </trkpt>
      <trkpt lat="42.58455" lon="2.37905">
        <ele>738</ele>
        <time>2013-08-02T15:18:18Z</time>
      </trkpt>
      <trkpt lat="42.58455" lon="2.37909">
        <ele>738</ele>
        <time>2013-08-02T15:18:21Z</time>
      </trkpt>
      <trkpt lat="42.58454" lon="2.37911">
        <ele>738</ele>
        <time>2013-08-02T15:18:23Z</time>
      </trkpt>
      <trkpt lat="42.58453" lon="2.37916">
        <ele>738</ele>
        <time>2013-08-02T15:18:26Z</time>
      </trkpt>
      <trkpt lat="42.58454" lon="2.37921">
        <ele>738</ele>
        <time>2013-08-02T15:18:29Z</time>
      </trkpt>
      <trkpt lat="42.58454" lon="2.37924">
        <ele>738</ele>
        <time>2013-08-02T15:18:31Z</time>
      </trkpt>
      <trkpt lat="42.58455" lon="2.37929">
        <ele>738</ele>
        <time>2013-08-02T15:18:34Z</time>
      </trkpt>
      <trkpt lat="42.58455" lon="2.37932">
        <ele>738</ele>
        <time>2013-08-02T15:18:36Z</time>
      </trkpt>
      <trkpt lat="42.58455" lon="2.37935">
        <ele>738</ele>
        <time>2013-08-02T15:18:38Z</time>
      </trkpt>
      <trkpt lat="42.58454" lon="2.3794">
        <ele>738</ele>
        <time>2013-08-02T15:18:41Z</time>
      </trkpt>
      <trkpt lat="42.58455" lon="2.37944">
        <ele>738</ele>
        <time>2013-08-02T15:18:43Z</time>
      </trkpt>
      <trkpt lat="42.58455" lon="2.37949">
        <ele>738</ele>
        <time>2013-08-02T15:18:46Z</time>
      </trkpt>
      <trkpt lat="42.58455" lon="2.37952">
        <ele>738</ele>
        <time>2013-08-02T15:18:48Z</time>
      </trkpt>
      <trkpt lat="42.58455" lon="2.37955">
        <ele>738</ele>
        <time>2013-08-02T15:18:50Z</time>
      </trkpt>
      <trkpt lat="42.58455" lon="2.37959">
        <ele>738</ele>
        <time>2013-08-02T15:18:52Z</time>
      </trkpt>
      <trkpt lat="42.58455" lon="2.37962">
        <ele>738</ele>
        <time>2013-08-02T15:18:54Z</time>
      </trkpt>
      <trkpt lat="42.58456" lon="2.37965">
        <ele>738</ele>
        <time>2013-08-02T15:18:56Z</time>
      </trkpt>
      <trkpt lat="42.58456" lon="2.37969">
        <ele>738</ele>
        <time>2013-08-02T15:18:58Z</time>
      </trkpt>
      <trkpt lat="42.58456" lon="2.37972">
        <ele>739</ele>
        <time>2013-08-02T15:19:00Z</time>
      </trkpt>
      <trkpt lat="42.58456" lon="2.37975">
        <ele>739</ele>
        <time>2013-08-02T15:19:02Z</time>
      </trkpt>
      <trkpt lat="42.58455" lon="2.37978">
        <ele>739</ele>
        <time>2013-08-02T15:19:04Z</time>
      </trkpt>
      <trkpt lat="42.58455" lon="2.37981">
        <ele>739</ele>
        <time>2013-08-02T15:19:06Z</time>
      </trkpt>
      <trkpt lat="42.58456" lon="2.37986">
        <ele>739</ele>
        <time>2013-08-02T15:19:09Z</time>
      </trkpt>
      <trkpt lat="42.58455" lon="2.37989">
        <ele>739</ele>
        <time>2013-08-02T15:19:11Z</time>
      </trkpt>
      <trkpt lat="42.58455" lon="2.37993">
        <ele>740</ele>
        <time>2013-08-02T15:19:14Z</time>
      </trkpt>
      <trkpt lat="42.58454" lon="2.37996">
        <ele>740</ele>
        <time>2013-08-02T15:19:16Z</time>
      </trkpt>
      <trkpt lat="42.58454" lon="2.38001">
        <ele>740</ele>
        <time>2013-08-02T15:19:19Z</time>
      </trkpt>
      <trkpt lat="42.58453" lon="2.38006">
        <ele>740</ele>
        <time>2013-08-02T15:19:22Z</time>
      </trkpt>
      <trkpt lat="42.58452" lon="2.3801">
        <ele>740</ele>
        <time>2013-08-02T15:19:25Z</time>
      </trkpt>
      <trkpt lat="42.5845" lon="2.38012">
        <ele>740</ele>
        <time>2013-08-02T15:19:27Z</time>
      </trkpt>
      <trkpt lat="42.58446" lon="2.38015">
        <ele>740</ele>
        <time>2013-08-02T15:19:31Z</time>
      </trkpt>
      <trkpt lat="42.58443" lon="2.38018">
        <ele>740</ele>
        <time>2013-08-02T15:19:34Z</time>
      </trkpt>
      <trkpt lat="42.58441" lon="2.3802">
        <ele>740</ele>
        <time>2013-08-02T15:19:36Z</time>
      </trkpt>
      <trkpt lat="42.58437" lon="2.38022">
        <ele>740</ele>
        <time>2013-08-02T15:19:41Z</time>
      </trkpt>
      <trkpt lat="42.58436" lon="2.38024">
        <ele>740</ele>
        <time>2013-08-02T15:19:43Z</time>
      </trkpt>
      <trkpt lat="42.58434" lon="2.3803">
        <ele>740</ele>
        <time>2013-08-02T15:19:47Z</time>
      </trkpt>
      <trkpt lat="42.58432" lon="2.38033">
        <ele>741</ele>
        <time>2013-08-02T15:19:50Z</time>
      </trkpt>
      <trkpt lat="42.58431" lon="2.38036">
        <ele>742</ele>
        <time>2013-08-02T15:19:53Z</time>
      </trkpt>
      <trkpt lat="42.58429" lon="2.38037">
        <ele>743</ele>
        <time>2013-08-02T15:19:56Z</time>
      </trkpt>
      <trkpt lat="42.58426" lon="2.38039">
        <ele>744</ele>
        <time>2013-08-02T15:19:59Z</time>
      </trkpt>
      <trkpt lat="42.58423" lon="2.38041">
        <ele>744</ele>
        <time>2013-08-02T15:20:04Z</time>
      </trkpt>
      <trkpt lat="42.58422" lon="2.38045">
        <ele>745</ele>
        <time>2013-08-02T15:20:06Z</time>
      </trkpt>
      <trkpt lat="42.58421" lon="2.38049">
        <ele>745</ele>
        <time>2013-08-02T15:20:09Z</time>
      </trkpt>
      <trkpt lat="42.58419" lon="2.38051">
        <ele>746</ele>
        <time>2013-08-02T15:20:12Z</time>
      </trkpt>
      <trkpt lat="42.58417" lon="2.38052">
        <ele>746</ele>
        <time>2013-08-02T15:20:15Z</time>
      </trkpt>
      <trkpt lat="42.58413" lon="2.38053">
        <ele>746</ele>
        <time>2013-08-02T15:20:18Z</time>
      </trkpt>
      <trkpt lat="42.5841" lon="2.38053">
        <ele>746</ele>
        <time>2013-08-02T15:20:21Z</time>
      </trkpt>
      <trkpt lat="42.58407" lon="2.38054">
        <ele>746</ele>
        <time>2013-08-02T15:20:24Z</time>
      </trkpt>
      <trkpt lat="42.58405" lon="2.38055">
        <ele>746</ele>
        <time>2013-08-02T15:20:26Z</time>
      </trkpt>
      <trkpt lat="42.58403" lon="2.38056">
        <ele>747</ele>
        <time>2013-08-02T15:20:28Z</time>
      </trkpt>
      <trkpt lat="42.58402" lon="2.38057">
        <ele>747</ele>
        <time>2013-08-02T15:20:31Z</time>
      </trkpt>
      <trkpt lat="42.58401" lon="2.38058">
        <ele>747</ele>
        <time>2013-08-02T15:20:34Z</time>
      </trkpt>
      <trkpt lat="42.58398" lon="2.38061">
        <ele>747</ele>
        <time>2013-08-02T15:20:37Z</time>
      </trkpt>
      <trkpt lat="42.58396" lon="2.38062">
        <ele>747</ele>
        <time>2013-08-02T15:20:40Z</time>
      </trkpt>
      <trkpt lat="42.58396" lon="2.38062">
        <ele>747</ele>
        <time>2013-08-02T15:20:48Z</time>
      </trkpt>
      <trkpt lat="42.58398" lon="2.3806">
        <ele>747</ele>
        <time>2013-08-02T15:20:51Z</time>
      </trkpt>
      <trkpt lat="42.58401" lon="2.38056">
        <ele>747</ele>
        <time>2013-08-02T15:20:55Z</time>
      </trkpt>
      <trkpt lat="42.58402" lon="2.3805">
        <ele>747</ele>
        <time>2013-08-02T15:20:59Z</time>
      </trkpt>
      <trkpt lat="42.58402" lon="2.38046">
        <ele>747</ele>
        <time>2013-08-02T15:21:02Z</time>
      </trkpt>
      <trkpt lat="42.58402" lon="2.38041">
        <ele>747</ele>
        <time>2013-08-02T15:21:05Z</time>
      </trkpt>
      <trkpt lat="42.58402" lon="2.38036">
        <ele>747</ele>
        <time>2013-08-02T15:21:08Z</time>
      </trkpt>
      <trkpt lat="42.58401" lon="2.38032">
        <ele>747</ele>
        <time>2013-08-02T15:21:11Z</time>
      </trkpt>
      <trkpt lat="42.584" lon="2.38028">
        <ele>747</ele>
        <time>2013-08-02T15:21:13Z</time>
      </trkpt>
      <trkpt lat="42.58398" lon="2.38025">
        <ele>747</ele>
        <time>2013-08-02T15:21:16Z</time>
      </trkpt>
      <trkpt lat="42.58397" lon="2.38021">
        <ele>748</ele>
        <time>2013-08-02T15:21:19Z</time>
      </trkpt>
      <trkpt lat="42.58397" lon="2.38016">
        <ele>748</ele>
        <time>2013-08-02T15:21:23Z</time>
      </trkpt>
      <trkpt lat="42.58394" lon="2.38011">
        <ele>748</ele>
        <time>2013-08-02T15:21:27Z</time>
      </trkpt>
      <trkpt lat="42.58393" lon="2.38006">
        <ele>749</ele>
        <time>2013-08-02T15:21:31Z</time>
      </trkpt>
      <trkpt lat="42.58392" lon="2.38003">
        <ele>749</ele>
        <time>2013-08-02T15:21:33Z</time>
      </trkpt>
      <trkpt lat="42.58392" lon="2.37998">
        <ele>750</ele>
        <time>2013-08-02T15:21:37Z</time>
      </trkpt>
      <trkpt lat="42.58391" lon="2.37995">
        <ele>751</ele>
        <time>2013-08-02T15:21:40Z</time>
      </trkpt>
      <trkpt lat="42.58392" lon="2.37991">
        <ele>753</ele>
        <time>2013-08-02T15:21:43Z</time>
      </trkpt>
      <trkpt lat="42.58394" lon="2.37987">
        <ele>754</ele>
        <time>2013-08-02T15:21:47Z</time>
      </trkpt>
      <trkpt lat="42.58395" lon="2.37983">
        <ele>754</ele>
        <time>2013-08-02T15:21:50Z</time>
      </trkpt>
      <trkpt lat="42.58396" lon="2.3798">
        <ele>755</ele>
        <time>2013-08-02T15:21:52Z</time>
      </trkpt>
      <trkpt lat="42.58396" lon="2.37977">
        <ele>756</ele>
        <time>2013-08-02T15:21:54Z</time>
      </trkpt>
      <trkpt lat="42.58396" lon="2.37974">
        <ele>756</ele>
        <time>2013-08-02T15:21:56Z</time>
      </trkpt>
      <trkpt lat="42.58396" lon="2.37971">
        <ele>756</ele>
        <time>2013-08-02T15:21:58Z</time>
      </trkpt>
      <trkpt lat="42.58396" lon="2.37968">
        <ele>757</ele>
        <time>2013-08-02T15:22:00Z</time>
      </trkpt>
      <trkpt lat="42.58395" lon="2.37965">
        <ele>757</ele>
        <time>2013-08-02T15:22:02Z</time>
      </trkpt>
      <trkpt lat="42.58393" lon="2.3796">
        <ele>757</ele>
        <time>2013-08-02T15:22:05Z</time>
      </trkpt>
      <trkpt lat="42.58392" lon="2.37957">
        <ele>758</ele>
        <time>2013-08-02T15:22:07Z</time>
      </trkpt>
      <trkpt lat="42.5839" lon="2.37955">
        <ele>758</ele>
        <time>2013-08-02T15:22:09Z</time>
      </trkpt>
      <trkpt lat="42.58389" lon="2.37951">
        <ele>758</ele>
        <time>2013-08-02T15:22:11Z</time>
      </trkpt>
      <trkpt lat="42.58388" lon="2.37947">
        <ele>759</ele>
        <time>2013-08-02T15:22:14Z</time>
      </trkpt>
      <trkpt lat="42.58387" lon="2.37943">
        <ele>759</ele>
        <time>2013-08-02T15:22:17Z</time>
      </trkpt>
      <trkpt lat="42.58386" lon="2.37938">
        <ele>759</ele>
        <time>2013-08-02T15:22:20Z</time>
      </trkpt>
      <trkpt lat="42.58385" lon="2.37933">
        <ele>759</ele>
        <time>2013-08-02T15:22:23Z</time>
      </trkpt>
      <trkpt lat="42.58384" lon="2.37929">
        <ele>760</ele>
        <time>2013-08-02T15:22:26Z</time>
      </trkpt>
      <trkpt lat="42.58383" lon="2.37926">
        <ele>760</ele>
        <time>2013-08-02T15:22:28Z</time>
      </trkpt>
      <trkpt lat="42.58382" lon="2.37922">
        <ele>761</ele>
        <time>2013-08-02T15:22:31Z</time>
      </trkpt>
      <trkpt lat="42.58381" lon="2.37918">
        <ele>761</ele>
        <time>2013-08-02T15:22:33Z</time>
      </trkpt>
      <trkpt lat="42.5838" lon="2.37914">
        <ele>761</ele>
        <time>2013-08-02T15:22:36Z</time>
      </trkpt>
      <trkpt lat="42.58378" lon="2.3791">
        <ele>761</ele>
        <time>2013-08-02T15:22:39Z</time>
      </trkpt>
      <trkpt lat="42.58377" lon="2.37906">
        <ele>761</ele>
        <time>2013-08-02T15:22:41Z</time>
      </trkpt>
      <trkpt lat="42.58376" lon="2.37904">
        <ele>761</ele>
        <time>2013-08-02T15:22:43Z</time>
      </trkpt>
      <trkpt lat="42.58375" lon="2.37899">
        <ele>761</ele>
        <time>2013-08-02T15:22:46Z</time>
      </trkpt>
      <trkpt lat="42.58374" lon="2.37895">
        <ele>761</ele>
        <time>2013-08-02T15:22:49Z</time>
      </trkpt>
      <trkpt lat="42.58373" lon="2.37892">
        <ele>761</ele>
        <time>2013-08-02T15:22:51Z</time>
      </trkpt>
      <trkpt lat="42.58372" lon="2.37889">
        <ele>761</ele>
        <time>2013-08-02T15:22:53Z</time>
      </trkpt>
      <trkpt lat="42.58371" lon="2.37884">
        <ele>761</ele>
        <time>2013-08-02T15:22:56Z</time>
      </trkpt>
      <trkpt lat="42.5837" lon="2.37881">
        <ele>761</ele>
        <time>2013-08-02T15:22:58Z</time>
      </trkpt>
      <trkpt lat="42.58369" lon="2.37878">
        <ele>762</ele>
        <time>2013-08-02T15:23:00Z</time>
      </trkpt>
      <trkpt lat="42.58369" lon="2.37874">
        <ele>762</ele>
        <time>2013-08-02T15:23:03Z</time>
      </trkpt>
      <trkpt lat="42.58368" lon="2.37869">
        <ele>762</ele>
        <time>2013-08-02T15:23:06Z</time>
      </trkpt>
      <trkpt lat="42.58367" lon="2.37866">
        <ele>762</ele>
        <time>2013-08-02T15:23:08Z</time>
      </trkpt>
      <trkpt lat="42.58366" lon="2.37862">
        <ele>762</ele>
        <time>2013-08-02T15:23:11Z</time>
      </trkpt>
      <trkpt lat="42.58365" lon="2.37858">
        <ele>762</ele>
        <time>2013-08-02T15:23:14Z</time>
      </trkpt>
      <trkpt lat="42.58364" lon="2.37856">
        <ele>762</ele>
        <time>2013-08-02T15:23:16Z</time>
      </trkpt>
      <trkpt lat="42.58363" lon="2.37856">
        <ele>762</ele>
        <time>2013-08-02T15:23:18Z</time>
      </trkpt>
      <trkpt lat="42.5836" lon="2.37858">
        <ele>763</ele>
        <time>2013-08-02T15:23:23Z</time>
      </trkpt>
      <trkpt lat="42.58357" lon="2.37859">
        <ele>763</ele>
        <time>2013-08-02T15:23:25Z</time>
      </trkpt>
      <trkpt lat="42.58356" lon="2.3786">
        <ele>764</ele>
        <time>2013-08-02T15:23:27Z</time>
      </trkpt>
      <trkpt lat="42.58352" lon="2.37863">
        <ele>764</ele>
        <time>2013-08-02T15:23:31Z</time>
      </trkpt>
      <trkpt lat="42.58348" lon="2.37865">
        <ele>764</ele>
        <time>2013-08-02T15:23:35Z</time>
      </trkpt>
      <trkpt lat="42.58347" lon="2.37867">
        <ele>764</ele>
        <time>2013-08-02T15:23:37Z</time>
      </trkpt>
      <trkpt lat="42.58343" lon="2.37869">
        <ele>764</ele>
        <time>2013-08-02T15:23:41Z</time>
      </trkpt>
      <trkpt lat="42.5834" lon="2.3787">
        <ele>764</ele>
        <time>2013-08-02T15:23:44Z</time>
      </trkpt>
      <trkpt lat="42.58337" lon="2.3787">
        <ele>764</ele>
        <time>2013-08-02T15:23:47Z</time>
      </trkpt>
      <trkpt lat="42.58335" lon="2.37871">
        <ele>764</ele>
        <time>2013-08-02T15:23:49Z</time>
      </trkpt>
      <trkpt lat="42.58332" lon="2.37875">
        <ele>764</ele>
        <time>2013-08-02T15:23:53Z</time>
      </trkpt>
      <trkpt lat="42.58329" lon="2.37879">
        <ele>764</ele>
        <time>2013-08-02T15:23:57Z</time>
      </trkpt>
      <trkpt lat="42.58327" lon="2.37881">
        <ele>764</ele>
        <time>2013-08-02T15:23:59Z</time>
      </trkpt>
      <trkpt lat="42.58326" lon="2.37884">
        <ele>764</ele>
        <time>2013-08-02T15:24:01Z</time>
      </trkpt>
      <trkpt lat="42.58325" lon="2.37887">
        <ele>765</ele>
        <time>2013-08-02T15:24:03Z</time>
      </trkpt>
      <trkpt lat="42.58323" lon="2.37892">
        <ele>766</ele>
        <time>2013-08-02T15:24:07Z</time>
      </trkpt>
      <trkpt lat="42.58321" lon="2.37896">
        <ele>766</ele>
        <time>2013-08-02T15:24:10Z</time>
      </trkpt>
      <trkpt lat="42.5832" lon="2.37899">
        <ele>766</ele>
        <time>2013-08-02T15:24:12Z</time>
      </trkpt>
      <trkpt lat="42.58319" lon="2.37901">
        <ele>767</ele>
        <time>2013-08-02T15:24:14Z</time>
      </trkpt>
      <trkpt lat="42.58319" lon="2.37904">
        <ele>768</ele>
        <time>2013-08-02T15:24:25Z</time>
      </trkpt>
      <trkpt lat="42.58319" lon="2.37906">
        <ele>768</ele>
        <time>2013-08-02T15:24:31Z</time>
      </trkpt>
      <trkpt lat="42.5832" lon="2.37907">
        <ele>773</ele>
        <time>2013-08-02T15:24:59Z</time>
      </trkpt>
      <trkpt lat="42.5832" lon="2.3791">
        <ele>773</ele>
        <time>2013-08-02T15:25:02Z</time>
      </trkpt>
      <trkpt lat="42.5832" lon="2.37913">
        <ele>773</ele>
        <time>2013-08-02T15:25:04Z</time>
      </trkpt>
      <trkpt lat="42.5832" lon="2.37916">
        <ele>773</ele>
        <time>2013-08-02T15:25:06Z</time>
      </trkpt>
      <trkpt lat="42.58319" lon="2.3792">
        <ele>773</ele>
        <time>2013-08-02T15:25:08Z</time>
      </trkpt>
      <trkpt lat="42.58318" lon="2.37924">
        <ele>773</ele>
        <time>2013-08-02T15:25:11Z</time>
      </trkpt>
      <trkpt lat="42.58318" lon="2.37927">
        <ele>773</ele>
        <time>2013-08-02T15:25:13Z</time>
      </trkpt>
      <trkpt lat="42.58317" lon="2.37933">
        <ele>773</ele>
        <time>2013-08-02T15:25:17Z</time>
      </trkpt>
      <trkpt lat="42.58316" lon="2.37936">
        <ele>773</ele>
        <time>2013-08-02T15:25:19Z</time>
      </trkpt>
      <trkpt lat="42.58315" lon="2.3794">
        <ele>773</ele>
        <time>2013-08-02T15:25:22Z</time>
      </trkpt>
      <trkpt lat="42.58314" lon="2.37944">
        <ele>773</ele>
        <time>2013-08-02T15:25:25Z</time>
      </trkpt>
      <trkpt lat="42.58313" lon="2.37947">
        <ele>773</ele>
        <time>2013-08-02T15:25:27Z</time>
      </trkpt>
      <trkpt lat="42.58312" lon="2.37949">
        <ele>773</ele>
        <time>2013-08-02T15:25:29Z</time>
      </trkpt>
      <trkpt lat="42.5831" lon="2.37953">
        <ele>773</ele>
        <time>2013-08-02T15:25:32Z</time>
      </trkpt>
      <trkpt lat="42.58309" lon="2.37956">
        <ele>773</ele>
        <time>2013-08-02T15:25:34Z</time>
      </trkpt>
      <trkpt lat="42.58309" lon="2.37959">
        <ele>773</ele>
        <time>2013-08-02T15:25:36Z</time>
      </trkpt>
      <trkpt lat="42.58309" lon="2.37962">
        <ele>773</ele>
        <time>2013-08-02T15:25:38Z</time>
      </trkpt>
      <trkpt lat="42.58308" lon="2.37965">
        <ele>773</ele>
        <time>2013-08-02T15:25:40Z</time>
      </trkpt>
      <trkpt lat="42.58308" lon="2.37969">
        <ele>773</ele>
        <time>2013-08-02T15:25:42Z</time>
      </trkpt>
      <trkpt lat="42.58305" lon="2.37972">
        <ele>773</ele>
        <time>2013-08-02T15:25:45Z</time>
      </trkpt>
      <trkpt lat="42.58305" lon="2.37975">
        <ele>773</ele>
        <time>2013-08-02T15:25:47Z</time>
      </trkpt>
      <trkpt lat="42.58304" lon="2.37977">
        <ele>773</ele>
        <time>2013-08-02T15:25:49Z</time>
      </trkpt>
      <trkpt lat="42.58303" lon="2.37979">
        <ele>773</ele>
        <time>2013-08-02T15:25:51Z</time>
      </trkpt>
      <trkpt lat="42.58301" lon="2.37981">
        <ele>773</ele>
        <time>2013-08-02T15:25:53Z</time>
      </trkpt>
      <trkpt lat="42.583" lon="2.37985">
        <ele>773</ele>
        <time>2013-08-02T15:25:56Z</time>
      </trkpt>
      <trkpt lat="42.58299" lon="2.37987">
        <ele>773</ele>
        <time>2013-08-02T15:25:58Z</time>
      </trkpt>
      <trkpt lat="42.58297" lon="2.37991">
        <ele>773</ele>
        <time>2013-08-02T15:26:01Z</time>
      </trkpt>
      <trkpt lat="42.58296" lon="2.37994">
        <ele>773</ele>
        <time>2013-08-02T15:26:03Z</time>
      </trkpt>
      <trkpt lat="42.58295" lon="2.37996">
        <ele>773</ele>
        <time>2013-08-02T15:26:06Z</time>
      </trkpt>
      <trkpt lat="42.58294" lon="2.37998">
        <ele>773</ele>
        <time>2013-08-02T15:26:08Z</time>
      </trkpt>
      <trkpt lat="42.58293" lon="2.38">
        <ele>773</ele>
        <time>2013-08-02T15:26:10Z</time>
      </trkpt>
      <trkpt lat="42.58292" lon="2.38002">
        <ele>773</ele>
        <time>2013-08-02T15:26:12Z</time>
      </trkpt>
      <trkpt lat="42.5829" lon="2.38005">
        <ele>773</ele>
        <time>2013-08-02T15:26:14Z</time>
      </trkpt>
      <trkpt lat="42.58289" lon="2.38007">
        <ele>773</ele>
        <time>2013-08-02T15:26:16Z</time>
      </trkpt>
      <trkpt lat="42.58288" lon="2.3801">
        <ele>773</ele>
        <time>2013-08-02T15:26:18Z</time>
      </trkpt>
      <trkpt lat="42.58287" lon="2.38012">
        <ele>773</ele>
        <time>2013-08-02T15:26:20Z</time>
      </trkpt>
      <trkpt lat="42.58286" lon="2.38014">
        <ele>773</ele>
        <time>2013-08-02T15:26:22Z</time>
      </trkpt>
      <trkpt lat="42.58285" lon="2.38018">
        <ele>773</ele>
        <time>2013-08-02T15:26:24Z</time>
      </trkpt>
      <trkpt lat="42.58284" lon="2.3802">
        <ele>773</ele>
        <time>2013-08-02T15:26:26Z</time>
      </trkpt>
      <trkpt lat="42.58284" lon="2.38023">
        <ele>773</ele>
        <time>2013-08-02T15:26:28Z</time>
      </trkpt>
      <trkpt lat="42.58284" lon="2.38028">
        <ele>773</ele>
        <time>2013-08-02T15:26:31Z</time>
      </trkpt>
      <trkpt lat="42.58284" lon="2.38031">
        <ele>773</ele>
        <time>2013-08-02T15:26:33Z</time>
      </trkpt>
      <trkpt lat="42.58284" lon="2.38034">
        <ele>773</ele>
        <time>2013-08-02T15:26:35Z</time>
      </trkpt>
      <trkpt lat="42.58284" lon="2.38037">
        <ele>773</ele>
        <time>2013-08-02T15:26:37Z</time>
      </trkpt>
      <trkpt lat="42.58284" lon="2.3804">
        <ele>773</ele>
        <time>2013-08-02T15:26:39Z</time>
      </trkpt>
      <trkpt lat="42.58284" lon="2.38042">
        <ele>773</ele>
        <time>2013-08-02T15:26:41Z</time>
      </trkpt>
      <trkpt lat="42.58284" lon="2.38046">
        <ele>773</ele>
        <time>2013-08-02T15:26:43Z</time>
      </trkpt>
      <trkpt lat="42.58284" lon="2.3805">
        <ele>774</ele>
        <time>2013-08-02T15:26:46Z</time>
      </trkpt>
      <trkpt lat="42.58284" lon="2.38053">
        <ele>774</ele>
        <time>2013-08-02T15:26:48Z</time>
      </trkpt>
      <trkpt lat="42.58284" lon="2.38056">
        <ele>774</ele>
        <time>2013-08-02T15:26:50Z</time>
      </trkpt>
      <trkpt lat="42.58285" lon="2.38059">
        <ele>775</ele>
        <time>2013-08-02T15:26:52Z</time>
      </trkpt>
      <trkpt lat="42.58284" lon="2.38063">
        <ele>775</ele>
        <time>2013-08-02T15:26:54Z</time>
      </trkpt>
      <trkpt lat="42.58283" lon="2.38067">
        <ele>775</ele>
        <time>2013-08-02T15:26:57Z</time>
      </trkpt>
      <trkpt lat="42.58282" lon="2.3807">
        <ele>775</ele>
        <time>2013-08-02T15:26:59Z</time>
      </trkpt>
      <trkpt lat="42.5828" lon="2.38074">
        <ele>775</ele>
        <time>2013-08-02T15:27:02Z</time>
      </trkpt>
      <trkpt lat="42.58279" lon="2.38076">
        <ele>775</ele>
        <time>2013-08-02T15:27:04Z</time>
      </trkpt>
      <trkpt lat="42.58278" lon="2.38078">
        <ele>775</ele>
        <time>2013-08-02T15:27:06Z</time>
      </trkpt>
      <trkpt lat="42.58276" lon="2.3808">
        <ele>775</ele>
        <time>2013-08-02T15:27:08Z</time>
      </trkpt>
      <trkpt lat="42.58275" lon="2.38083">
        <ele>775</ele>
        <time>2013-08-02T15:27:11Z</time>
      </trkpt>
      <trkpt lat="42.58274" lon="2.38085">
        <ele>775</ele>
        <time>2013-08-02T15:27:13Z</time>
      </trkpt>
      <trkpt lat="42.58274" lon="2.38088">
        <ele>775</ele>
        <time>2013-08-02T15:27:15Z</time>
      </trkpt>
      <trkpt lat="42.58274" lon="2.3809">
        <ele>775</ele>
        <time>2013-08-02T15:27:17Z</time>
      </trkpt>
      <trkpt lat="42.58274" lon="2.38093">
        <ele>775</ele>
        <time>2013-08-02T15:27:19Z</time>
      </trkpt>
      <trkpt lat="42.58275" lon="2.38096">
        <ele>775</ele>
        <time>2013-08-02T15:27:21Z</time>
      </trkpt>
      <trkpt lat="42.58275" lon="2.38098">
        <ele>775</ele>
        <time>2013-08-02T15:27:23Z</time>
      </trkpt>
      <trkpt lat="42.58276" lon="2.38101">
        <ele>775</ele>
        <time>2013-08-02T15:27:25Z</time>
      </trkpt>
      <trkpt lat="42.58277" lon="2.38104">
        <ele>775</ele>
        <time>2013-08-02T15:27:27Z</time>
      </trkpt>
      <trkpt lat="42.58278" lon="2.38108">
        <ele>775</ele>
        <time>2013-08-02T15:27:30Z</time>
      </trkpt>
      <trkpt lat="42.58279" lon="2.38111">
        <ele>775</ele>
        <time>2013-08-02T15:27:32Z</time>
      </trkpt>
      <trkpt lat="42.58279" lon="2.38114">
        <ele>775</ele>
        <time>2013-08-02T15:27:34Z</time>
      </trkpt>
      <trkpt lat="42.58279" lon="2.38117">
        <ele>775</ele>
        <time>2013-08-02T15:27:36Z</time>
      </trkpt>
      <trkpt lat="42.58279" lon="2.3812">
        <ele>775</ele>
        <time>2013-08-02T15:27:38Z</time>
      </trkpt>
      <trkpt lat="42.58279" lon="2.38126">
        <ele>775</ele>
        <time>2013-08-02T15:27:42Z</time>
      </trkpt>
      <trkpt lat="42.5828" lon="2.38128">
        <ele>775</ele>
        <time>2013-08-02T15:27:44Z</time>
      </trkpt>
      <trkpt lat="42.5828" lon="2.38132">
        <ele>775</ele>
        <time>2013-08-02T15:27:47Z</time>
      </trkpt>
      <trkpt lat="42.5828" lon="2.38135">
        <ele>775</ele>
        <time>2013-08-02T15:27:49Z</time>
      </trkpt>
      <trkpt lat="42.5828" lon="2.3814">
        <ele>775</ele>
        <time>2013-08-02T15:27:52Z</time>
      </trkpt>
      <trkpt lat="42.58281" lon="2.38144">
        <ele>775</ele>
        <time>2013-08-02T15:27:54Z</time>
      </trkpt>
      <trkpt lat="42.58281" lon="2.38148">
        <ele>775</ele>
        <time>2013-08-02T15:27:57Z</time>
      </trkpt>
      <trkpt lat="42.58281" lon="2.38151">
        <ele>775</ele>
        <time>2013-08-02T15:27:59Z</time>
      </trkpt>
      <trkpt lat="42.58281" lon="2.38155">
        <ele>775</ele>
        <time>2013-08-02T15:28:02Z</time>
      </trkpt>
      <trkpt lat="42.58281" lon="2.38158">
        <ele>775</ele>
        <time>2013-08-02T15:28:04Z</time>
      </trkpt>
      <trkpt lat="42.58281" lon="2.38164">
        <ele>775</ele>
        <time>2013-08-02T15:28:08Z</time>
      </trkpt>
      <trkpt lat="42.58281" lon="2.38168">
        <ele>775</ele>
        <time>2013-08-02T15:28:11Z</time>
      </trkpt>
      <trkpt lat="42.58282" lon="2.38171">
        <ele>775</ele>
        <time>2013-08-02T15:28:13Z</time>
      </trkpt>
      <trkpt lat="42.58282" lon="2.38174">
        <ele>775</ele>
        <time>2013-08-02T15:28:15Z</time>
      </trkpt>
      <trkpt lat="42.58283" lon="2.38178">
        <ele>775</ele>
        <time>2013-08-02T15:28:18Z</time>
      </trkpt>
      <trkpt lat="42.58283" lon="2.38181">
        <ele>775</ele>
        <time>2013-08-02T15:28:20Z</time>
      </trkpt>
      <trkpt lat="42.58284" lon="2.38187">
        <ele>775</ele>
        <time>2013-08-02T15:28:24Z</time>
      </trkpt>
      <trkpt lat="42.58285" lon="2.3819">
        <ele>775</ele>
        <time>2013-08-02T15:28:26Z</time>
      </trkpt>
      <trkpt lat="42.58286" lon="2.38193">
        <ele>775</ele>
        <time>2013-08-02T15:28:28Z</time>
      </trkpt>
      <trkpt lat="42.58287" lon="2.38197">
        <ele>775</ele>
        <time>2013-08-02T15:28:31Z</time>
      </trkpt>
      <trkpt lat="42.58288" lon="2.382">
        <ele>775</ele>
        <time>2013-08-02T15:28:33Z</time>
      </trkpt>
      <trkpt lat="42.58289" lon="2.38205">
        <ele>775</ele>
        <time>2013-08-02T15:28:36Z</time>
      </trkpt>
      <trkpt lat="42.5829" lon="2.38209">
        <ele>775</ele>
        <time>2013-08-02T15:28:39Z</time>
      </trkpt>
      <trkpt lat="42.58291" lon="2.38211">
        <ele>775</ele>
        <time>2013-08-02T15:28:41Z</time>
      </trkpt>
      <trkpt lat="42.58292" lon="2.38216">
        <ele>776</ele>
        <time>2013-08-02T15:28:44Z</time>
      </trkpt>
      <trkpt lat="42.58292" lon="2.38219">
        <ele>776</ele>
        <time>2013-08-02T15:28:46Z</time>
      </trkpt>
      <trkpt lat="42.58292" lon="2.38222">
        <ele>776</ele>
        <time>2013-08-02T15:28:48Z</time>
      </trkpt>
      <trkpt lat="42.58293" lon="2.38227">
        <ele>776</ele>
        <time>2013-08-02T15:28:51Z</time>
      </trkpt>
      <trkpt lat="42.58294" lon="2.3823">
        <ele>776</ele>
        <time>2013-08-02T15:28:53Z</time>
      </trkpt>
      <trkpt lat="42.58294" lon="2.38234">
        <ele>777</ele>
        <time>2013-08-02T15:29:00Z</time>
      </trkpt>
      <trkpt lat="42.58294" lon="2.38237">
        <ele>777</ele>
        <time>2013-08-02T15:29:02Z</time>
      </trkpt>
      <trkpt lat="42.58293" lon="2.3824">
        <ele>777</ele>
        <time>2013-08-02T15:29:04Z</time>
      </trkpt>
      <trkpt lat="42.58292" lon="2.38243">
        <ele>777</ele>
        <time>2013-08-02T15:29:06Z</time>
      </trkpt>
      <trkpt lat="42.58292" lon="2.38246">
        <ele>777</ele>
        <time>2013-08-02T15:29:08Z</time>
      </trkpt>
      <trkpt lat="42.58291" lon="2.38251">
        <ele>777</ele>
        <time>2013-08-02T15:29:11Z</time>
      </trkpt>
      <trkpt lat="42.58291" lon="2.38254">
        <ele>777</ele>
        <time>2013-08-02T15:29:13Z</time>
      </trkpt>
      <trkpt lat="42.5829" lon="2.38259">
        <ele>777</ele>
        <time>2013-08-02T15:29:16Z</time>
      </trkpt>
      <trkpt lat="42.5829" lon="2.38262">
        <ele>777</ele>
        <time>2013-08-02T15:29:18Z</time>
      </trkpt>
      <trkpt lat="42.58289" lon="2.38266">
        <ele>777</ele>
        <time>2013-08-02T15:29:21Z</time>
      </trkpt>
      <trkpt lat="42.58289" lon="2.3827">
        <ele>777</ele>
        <time>2013-08-02T15:29:23Z</time>
      </trkpt>
      <trkpt lat="42.58287" lon="2.38276">
        <ele>777</ele>
        <time>2013-08-02T15:29:27Z</time>
      </trkpt>
      <trkpt lat="42.58287" lon="2.38279">
        <ele>777</ele>
        <time>2013-08-02T15:29:29Z</time>
      </trkpt>
      <trkpt lat="42.58286" lon="2.38281">
        <ele>777</ele>
        <time>2013-08-02T15:29:31Z</time>
      </trkpt>
      <trkpt lat="42.58285" lon="2.38285">
        <ele>777</ele>
        <time>2013-08-02T15:29:34Z</time>
      </trkpt>
      <trkpt lat="42.58284" lon="2.38289">
        <ele>777</ele>
        <time>2013-08-02T15:29:37Z</time>
      </trkpt>
      <trkpt lat="42.58283" lon="2.38292">
        <ele>777</ele>
        <time>2013-08-02T15:29:39Z</time>
      </trkpt>
      <trkpt lat="42.58281" lon="2.38294">
        <ele>777</ele>
        <time>2013-08-02T15:29:41Z</time>
      </trkpt>
      <trkpt lat="42.5828" lon="2.38297">
        <ele>777</ele>
        <time>2013-08-02T15:29:43Z</time>
      </trkpt>
      <trkpt lat="42.58278" lon="2.383">
        <ele>777</ele>
        <time>2013-08-02T15:29:47Z</time>
      </trkpt>
      <trkpt lat="42.58277" lon="2.38302">
        <ele>777</ele>
        <time>2013-08-02T15:29:51Z</time>
      </trkpt>
      <trkpt lat="42.58275" lon="2.38303">
        <ele>780</ele>
        <time>2013-08-02T15:29:55Z</time>
      </trkpt>
      <trkpt lat="42.58274" lon="2.38304">
        <ele>783</ele>
        <time>2013-08-02T15:30:00Z</time>
      </trkpt>
      <trkpt lat="42.58273" lon="2.38305">
        <ele>786</ele>
        <time>2013-08-02T15:30:07Z</time>
      </trkpt>
      <trkpt lat="42.58272" lon="2.38305">
        <ele>791</ele>
        <time>2013-08-02T15:30:22Z</time>
      </trkpt>
      <trkpt lat="42.58271" lon="2.38307">
        <ele>792</ele>
        <time>2013-08-02T15:30:28Z</time>
      </trkpt>
      <trkpt lat="42.58269" lon="2.38311">
        <ele>792</ele>
        <time>2013-08-02T15:30:32Z</time>
      </trkpt>
      <trkpt lat="42.58268" lon="2.38313">
        <ele>792</ele>
        <time>2013-08-02T15:30:34Z</time>
      </trkpt>
      <trkpt lat="42.58267" lon="2.38315">
        <ele>792</ele>
        <time>2013-08-02T15:30:36Z</time>
      </trkpt>
      <trkpt lat="42.58266" lon="2.38317">
        <ele>792</ele>
        <time>2013-08-02T15:30:38Z</time>
      </trkpt>
      <trkpt lat="42.58264" lon="2.38322">
        <ele>791</ele>
        <time>2013-08-02T15:30:42Z</time>
      </trkpt>
      <trkpt lat="42.58263" lon="2.38325">
        <ele>790</ele>
        <time>2013-08-02T15:30:44Z</time>
      </trkpt>
      <trkpt lat="42.58263" lon="2.38327">
        <ele>789</ele>
        <time>2013-08-02T15:30:46Z</time>
      </trkpt>
      <trkpt lat="42.58262" lon="2.3833">
        <ele>788</ele>
        <time>2013-08-02T15:30:48Z</time>
      </trkpt>
      <trkpt lat="42.5826" lon="2.38335">
        <ele>787</ele>
        <time>2013-08-02T15:30:52Z</time>
      </trkpt>
      <trkpt lat="42.58259" lon="2.38337">
        <ele>786</ele>
        <time>2013-08-02T15:30:54Z</time>
      </trkpt>
      <trkpt lat="42.58258" lon="2.3834">
        <ele>786</ele>
        <time>2013-08-02T15:30:56Z</time>
      </trkpt>
      <trkpt lat="42.58258" lon="2.38342">
        <ele>786</ele>
        <time>2013-08-02T15:30:58Z</time>
      </trkpt>
      <trkpt lat="42.58256" lon="2.38347">
        <ele>785</ele>
        <time>2013-08-02T15:31:02Z</time>
      </trkpt>
      <trkpt lat="42.58255" lon="2.3835">
        <ele>785</ele>
        <time>2013-08-02T15:31:04Z</time>
      </trkpt>
      <trkpt lat="42.58254" lon="2.38353">
        <ele>785</ele>
        <time>2013-08-02T15:31:06Z</time>
      </trkpt>
      <trkpt lat="42.58253" lon="2.38355">
        <ele>785</ele>
        <time>2013-08-02T15:31:08Z</time>
      </trkpt>
      <trkpt lat="42.58252" lon="2.38359">
        <ele>784</ele>
        <time>2013-08-02T15:31:11Z</time>
      </trkpt>
      <trkpt lat="42.58251" lon="2.38364">
        <ele>784</ele>
        <time>2013-08-02T15:31:14Z</time>
      </trkpt>
      <trkpt lat="42.5825" lon="2.38366">
        <ele>784</ele>
        <time>2013-08-02T15:31:16Z</time>
      </trkpt>
      <trkpt lat="42.58249" lon="2.38369">
        <ele>783</ele>
        <time>2013-08-02T15:31:18Z</time>
      </trkpt>
      <trkpt lat="42.58248" lon="2.38373">
        <ele>783</ele>
        <time>2013-08-02T15:31:21Z</time>
      </trkpt>
      <trkpt lat="42.58247" lon="2.38375">
        <ele>783</ele>
        <time>2013-08-02T15:31:23Z</time>
      </trkpt>
      <trkpt lat="42.58246" lon="2.3838">
        <ele>783</ele>
        <time>2013-08-02T15:31:26Z</time>
      </trkpt>
      <trkpt lat="42.58245" lon="2.38384">
        <ele>783</ele>
        <time>2013-08-02T15:31:29Z</time>
      </trkpt>
      <trkpt lat="42.58244" lon="2.38387">
        <ele>783</ele>
        <time>2013-08-02T15:31:31Z</time>
      </trkpt>
      <trkpt lat="42.58244" lon="2.3839">
        <ele>783</ele>
        <time>2013-08-02T15:31:33Z</time>
      </trkpt>
      <trkpt lat="42.58244" lon="2.38394">
        <ele>783</ele>
        <time>2013-08-02T15:31:36Z</time>
      </trkpt>
      <trkpt lat="42.58244" lon="2.38397">
        <ele>783</ele>
        <time>2013-08-02T15:31:39Z</time>
      </trkpt>
      <trkpt lat="42.58242" lon="2.38399">
        <ele>783</ele>
        <time>2013-08-02T15:31:48Z</time>
      </trkpt>
      <trkpt lat="42.5824" lon="2.38403">
        <ele>782</ele>
        <time>2013-08-02T15:31:52Z</time>
      </trkpt>
      <trkpt lat="42.58239" lon="2.38405">
        <ele>782</ele>
        <time>2013-08-02T15:31:54Z</time>
      </trkpt>
      <trkpt lat="42.58238" lon="2.38407">
        <ele>782</ele>
        <time>2013-08-02T15:31:56Z</time>
      </trkpt>
      <trkpt lat="42.58238" lon="2.3841">
        <ele>782</ele>
        <time>2013-08-02T15:31:58Z</time>
      </trkpt>
      <trkpt lat="42.58237" lon="2.38414">
        <ele>782</ele>
        <time>2013-08-02T15:32:01Z</time>
      </trkpt>
      <trkpt lat="42.58236" lon="2.38415">
        <ele>782</ele>
        <time>2013-08-02T15:32:03Z</time>
      </trkpt>
      <trkpt lat="42.58236" lon="2.38417">
        <ele>782</ele>
        <time>2013-08-02T15:32:11Z</time>
      </trkpt>
      <trkpt lat="42.58235" lon="2.38419">
        <ele>782</ele>
        <time>2013-08-02T15:32:14Z</time>
      </trkpt>
      <trkpt lat="42.58234" lon="2.38421">
        <ele>782</ele>
        <time>2013-08-02T15:32:16Z</time>
      </trkpt>
      <trkpt lat="42.58233" lon="2.38423">
        <ele>782</ele>
        <time>2013-08-02T15:32:18Z</time>
      </trkpt>
      <trkpt lat="42.5823" lon="2.38428">
        <ele>782</ele>
        <time>2013-08-02T15:32:22Z</time>
      </trkpt>
      <trkpt lat="42.58229" lon="2.3843">
        <ele>782</ele>
        <time>2013-08-02T15:32:24Z</time>
      </trkpt>
      <trkpt lat="42.58227" lon="2.38432">
        <ele>782</ele>
        <time>2013-08-02T15:32:26Z</time>
      </trkpt>
      <trkpt lat="42.58226" lon="2.38434">
        <ele>782</ele>
        <time>2013-08-02T15:32:28Z</time>
      </trkpt>
      <trkpt lat="42.58226" lon="2.38435">
        <ele>782</ele>
        <time>2013-08-02T15:32:35Z</time>
      </trkpt>
      <trkpt lat="42.58224" lon="2.38437">
        <ele>782</ele>
        <time>2013-08-02T15:32:37Z</time>
      </trkpt>
      <trkpt lat="42.58223" lon="2.38439">
        <ele>782</ele>
        <time>2013-08-02T15:32:39Z</time>
      </trkpt>
      <trkpt lat="42.58222" lon="2.38441">
        <ele>782</ele>
        <time>2013-08-02T15:32:41Z</time>
      </trkpt>
      <trkpt lat="42.5822" lon="2.38443">
        <ele>782</ele>
        <time>2013-08-02T15:32:43Z</time>
      </trkpt>
      <trkpt lat="42.58219" lon="2.38446">
        <ele>782</ele>
        <time>2013-08-02T15:32:45Z</time>
      </trkpt>
      <trkpt lat="42.58218" lon="2.38448">
        <ele>782</ele>
        <time>2013-08-02T15:32:47Z</time>
      </trkpt>
      <trkpt lat="42.58217" lon="2.38451">
        <ele>782</ele>
        <time>2013-08-02T15:32:49Z</time>
      </trkpt>
      <trkpt lat="42.58215" lon="2.38454">
        <ele>782</ele>
        <time>2013-08-02T15:32:52Z</time>
      </trkpt>
      <trkpt lat="42.58214" lon="2.38457">
        <ele>782</ele>
        <time>2013-08-02T15:32:54Z</time>
      </trkpt>
      <trkpt lat="42.58213" lon="2.38459">
        <ele>782</ele>
        <time>2013-08-02T15:32:56Z</time>
      </trkpt>
      <trkpt lat="42.58212" lon="2.38463">
        <ele>782</ele>
        <time>2013-08-02T15:32:59Z</time>
      </trkpt>
      <trkpt lat="42.5821" lon="2.38467">
        <ele>782</ele>
        <time>2013-08-02T15:33:02Z</time>
      </trkpt>
      <trkpt lat="42.58209" lon="2.3847">
        <ele>782</ele>
        <time>2013-08-02T15:33:04Z</time>
      </trkpt>
      <trkpt lat="42.58208" lon="2.38472">
        <ele>782</ele>
        <time>2013-08-02T15:33:06Z</time>
      </trkpt>
      <trkpt lat="42.58207" lon="2.38475">
        <ele>782</ele>
        <time>2013-08-02T15:33:08Z</time>
      </trkpt>
      <trkpt lat="42.58205" lon="2.38477">
        <ele>782</ele>
        <time>2013-08-02T15:33:10Z</time>
      </trkpt>
      <trkpt lat="42.58204" lon="2.38479">
        <ele>782</ele>
        <time>2013-08-02T15:33:12Z</time>
      </trkpt>
      <trkpt lat="42.58203" lon="2.38482">
        <ele>782</ele>
        <time>2013-08-02T15:33:14Z</time>
      </trkpt>
      <trkpt lat="42.58202" lon="2.38484">
        <ele>782</ele>
        <time>2013-08-02T15:33:16Z</time>
      </trkpt>
      <trkpt lat="42.582" lon="2.38487">
        <ele>782</ele>
        <time>2013-08-02T15:33:18Z</time>
      </trkpt>
      <trkpt lat="42.58198" lon="2.38491">
        <ele>782</ele>
        <time>2013-08-02T15:33:21Z</time>
      </trkpt>
      <trkpt lat="42.58197" lon="2.38493">
        <ele>782</ele>
        <time>2013-08-02T15:33:23Z</time>
      </trkpt>
      <trkpt lat="42.58196" lon="2.38496">
        <ele>782</ele>
        <time>2013-08-02T15:33:25Z</time>
      </trkpt>
      <trkpt lat="42.58194" lon="2.385">
        <ele>782</ele>
        <time>2013-08-02T15:33:28Z</time>
      </trkpt>
      <trkpt lat="42.58193" lon="2.38504">
        <ele>782</ele>
        <time>2013-08-02T15:33:31Z</time>
      </trkpt>
      <trkpt lat="42.58192" lon="2.38507">
        <ele>782</ele>
        <time>2013-08-02T15:33:33Z</time>
      </trkpt>
      <trkpt lat="42.58191" lon="2.3851">
        <ele>782</ele>
        <time>2013-08-02T15:33:35Z</time>
      </trkpt>
      <trkpt lat="42.5819" lon="2.38512">
        <ele>782</ele>
        <time>2013-08-02T15:33:37Z</time>
      </trkpt>
      <trkpt lat="42.58189" lon="2.38515">
        <ele>782</ele>
        <time>2013-08-02T15:33:39Z</time>
      </trkpt>
      <trkpt lat="42.58187" lon="2.38518">
        <ele>782</ele>
        <time>2013-08-02T15:33:41Z</time>
      </trkpt>
      <trkpt lat="42.58186" lon="2.3852">
        <ele>782</ele>
        <time>2013-08-02T15:33:43Z</time>
      </trkpt>
      <trkpt lat="42.58185" lon="2.38523">
        <ele>782</ele>
        <time>2013-08-02T15:33:45Z</time>
      </trkpt>
      <trkpt lat="42.58184" lon="2.38527">
        <ele>782</ele>
        <time>2013-08-02T15:33:48Z</time>
      </trkpt>
      <trkpt lat="42.58182" lon="2.38531">
        <ele>782</ele>
        <time>2013-08-02T15:33:51Z</time>
      </trkpt>
      <trkpt lat="42.58181" lon="2.38534">
        <ele>782</ele>
        <time>2013-08-02T15:33:53Z</time>
      </trkpt>
      <trkpt lat="42.5818" lon="2.38537">
        <ele>782</ele>
        <time>2013-08-02T15:33:55Z</time>
      </trkpt>
      <trkpt lat="42.58179" lon="2.3854">
        <ele>782</ele>
        <time>2013-08-02T15:33:58Z</time>
      </trkpt>
      <trkpt lat="42.5818" lon="2.38542">
        <ele>782</ele>
        <time>2013-08-02T15:34:00Z</time>
      </trkpt>
      <trkpt lat="42.58181" lon="2.38542">
        <ele>782</ele>
        <time>2013-08-02T15:34:03Z</time>
      </trkpt>
      <trkpt lat="42.5818" lon="2.38542">
        <ele>782</ele>
        <time>2013-08-02T15:34:12Z</time>
      </trkpt>
      <trkpt lat="42.58178" lon="2.38543">
        <ele>782</ele>
        <time>2013-08-02T15:34:14Z</time>
      </trkpt>
      <trkpt lat="42.58177" lon="2.38544">
        <ele>782</ele>
        <time>2013-08-02T15:34:16Z</time>
      </trkpt>
      <trkpt lat="42.58175" lon="2.38545">
        <ele>782</ele>
        <time>2013-08-02T15:34:18Z</time>
      </trkpt>
      <trkpt lat="42.58173" lon="2.38548">
        <ele>782</ele>
        <time>2013-08-02T15:34:20Z</time>
      </trkpt>
      <trkpt lat="42.58172" lon="2.38551">
        <ele>782</ele>
        <time>2013-08-02T15:34:22Z</time>
      </trkpt>
      <trkpt lat="42.58171" lon="2.38554">
        <ele>782</ele>
        <time>2013-08-02T15:34:24Z</time>
      </trkpt>
      <trkpt lat="42.58169" lon="2.38557">
        <ele>782</ele>
        <time>2013-08-02T15:34:26Z</time>
      </trkpt>
      <trkpt lat="42.58168" lon="2.3856">
        <ele>782</ele>
        <time>2013-08-02T15:34:28Z</time>
      </trkpt>
      <trkpt lat="42.58167" lon="2.38563">
        <ele>782</ele>
        <time>2013-08-02T15:34:30Z</time>
      </trkpt>
      <trkpt lat="42.58166" lon="2.38566">
        <ele>782</ele>
        <time>2013-08-02T15:34:32Z</time>
      </trkpt>
      <trkpt lat="42.58164" lon="2.38568">
        <ele>782</ele>
        <time>2013-08-02T15:34:34Z</time>
      </trkpt>
      <trkpt lat="42.58164" lon="2.38571">
        <ele>783</ele>
        <time>2013-08-02T15:34:36Z</time>
      </trkpt>
      <trkpt lat="42.58163" lon="2.38574">
        <ele>783</ele>
        <time>2013-08-02T15:34:38Z</time>
      </trkpt>
      <trkpt lat="42.58162" lon="2.38577">
        <ele>783</ele>
        <time>2013-08-02T15:34:40Z</time>
      </trkpt>
      <trkpt lat="42.58161" lon="2.3858">
        <ele>783</ele>
        <time>2013-08-02T15:34:42Z</time>
      </trkpt>
      <trkpt lat="42.58161" lon="2.38583">
        <ele>783</ele>
        <time>2013-08-02T15:34:44Z</time>
      </trkpt>
      <trkpt lat="42.58159" lon="2.38586">
        <ele>783</ele>
        <time>2013-08-02T15:34:46Z</time>
      </trkpt>
      <trkpt lat="42.58157" lon="2.3859">
        <ele>784</ele>
        <time>2013-08-02T15:34:49Z</time>
      </trkpt>
      <trkpt lat="42.58156" lon="2.38592">
        <ele>784</ele>
        <time>2013-08-02T15:34:51Z</time>
      </trkpt>
      <trkpt lat="42.58154" lon="2.38595">
        <ele>784</ele>
        <time>2013-08-02T15:34:53Z</time>
      </trkpt>
      <trkpt lat="42.58153" lon="2.38597">
        <ele>784</ele>
        <time>2013-08-02T15:34:55Z</time>
      </trkpt>
      <trkpt lat="42.58152" lon="2.386">
        <ele>785</ele>
        <time>2013-08-02T15:34:57Z</time>
      </trkpt>
      <trkpt lat="42.5815" lon="2.38604">
        <ele>785</ele>
        <time>2013-08-02T15:35:00Z</time>
      </trkpt>
      <trkpt lat="42.58149" lon="2.38607">
        <ele>785</ele>
        <time>2013-08-02T15:35:02Z</time>
      </trkpt>
      <trkpt lat="42.58147" lon="2.38609">
        <ele>785</ele>
        <time>2013-08-02T15:35:04Z</time>
      </trkpt>
      <trkpt lat="42.58146" lon="2.38612">
        <ele>785</ele>
        <time>2013-08-02T15:35:06Z</time>
      </trkpt>
      <trkpt lat="42.58145" lon="2.38615">
        <ele>786</ele>
        <time>2013-08-02T15:35:08Z</time>
      </trkpt>
      <trkpt lat="42.58144" lon="2.38617">
        <ele>786</ele>
        <time>2013-08-02T15:35:10Z</time>
      </trkpt>
      <trkpt lat="42.58143" lon="2.38622">
        <ele>786</ele>
        <time>2013-08-02T15:35:13Z</time>
      </trkpt>
      <trkpt lat="42.58142" lon="2.38624">
        <ele>787</ele>
        <time>2013-08-02T15:35:15Z</time>
      </trkpt>
      <trkpt lat="42.58142" lon="2.38628">
        <ele>787</ele>
        <time>2013-08-02T15:35:18Z</time>
      </trkpt>
      <trkpt lat="42.58141" lon="2.3863">
        <ele>788</ele>
        <time>2013-08-02T15:35:20Z</time>
      </trkpt>
      <trkpt lat="42.5814" lon="2.38633">
        <ele>788</ele>
        <time>2013-08-02T15:35:22Z</time>
      </trkpt>
      <trkpt lat="42.5814" lon="2.38635">
        <ele>788</ele>
        <time>2013-08-02T15:35:24Z</time>
      </trkpt>
      <trkpt lat="42.58139" lon="2.38638">
        <ele>788</ele>
        <time>2013-08-02T15:35:26Z</time>
      </trkpt>
      <trkpt lat="42.58138" lon="2.3864">
        <ele>788</ele>
        <time>2013-08-02T15:35:28Z</time>
      </trkpt>
      <trkpt lat="42.58136" lon="2.38644">
        <ele>788</ele>
        <time>2013-08-02T15:35:31Z</time>
      </trkpt>
      <trkpt lat="42.58135" lon="2.38647">
        <ele>789</ele>
        <time>2013-08-02T15:35:33Z</time>
      </trkpt>
      <trkpt lat="42.58134" lon="2.38649">
        <ele>789</ele>
        <time>2013-08-02T15:35:35Z</time>
      </trkpt>
      <trkpt lat="42.58133" lon="2.38652">
        <ele>789</ele>
        <time>2013-08-02T15:35:37Z</time>
      </trkpt>
      <trkpt lat="42.58132" lon="2.38654">
        <ele>789</ele>
        <time>2013-08-02T15:35:39Z</time>
      </trkpt>
      <trkpt lat="42.58131" lon="2.38656">
        <ele>790</ele>
        <time>2013-08-02T15:35:41Z</time>
      </trkpt>
      <trkpt lat="42.58129" lon="2.38659">
        <ele>790</ele>
        <time>2013-08-02T15:35:43Z</time>
      </trkpt>
      <trkpt lat="42.58128" lon="2.38663">
        <ele>790</ele>
        <time>2013-08-02T15:35:46Z</time>
      </trkpt>
      <trkpt lat="42.58127" lon="2.38665">
        <ele>790</ele>
        <time>2013-08-02T15:35:48Z</time>
      </trkpt>
      <trkpt lat="42.58126" lon="2.38668">
        <ele>790</ele>
        <time>2013-08-02T15:35:50Z</time>
      </trkpt>
      <trkpt lat="42.58124" lon="2.38672">
        <ele>790</ele>
        <time>2013-08-02T15:35:53Z</time>
      </trkpt>
      <trkpt lat="42.58123" lon="2.38674">
        <ele>790</ele>
        <time>2013-08-02T15:35:55Z</time>
      </trkpt>
      <trkpt lat="42.58121" lon="2.38678">
        <ele>790</ele>
        <time>2013-08-02T15:35:58Z</time>
      </trkpt>
      <trkpt lat="42.5812" lon="2.38681">
        <ele>790</ele>
        <time>2013-08-02T15:36:00Z</time>
      </trkpt>
      <trkpt lat="42.58119" lon="2.38683">
        <ele>790</ele>
        <time>2013-08-02T15:36:02Z</time>
      </trkpt>
      <trkpt lat="42.58118" lon="2.38687">
        <ele>791</ele>
        <time>2013-08-02T15:36:05Z</time>
      </trkpt>
      <trkpt lat="42.58117" lon="2.3869">
        <ele>791</ele>
        <time>2013-08-02T15:36:07Z</time>
      </trkpt>
      <trkpt lat="42.58115" lon="2.38692">
        <ele>791</ele>
        <time>2013-08-02T15:36:09Z</time>
      </trkpt>
      <trkpt lat="42.58114" lon="2.38695">
        <ele>791</ele>
        <time>2013-08-02T15:36:11Z</time>
      </trkpt>
      <trkpt lat="42.58113" lon="2.38697">
        <ele>791</ele>
        <time>2013-08-02T15:36:13Z</time>
      </trkpt>
      <trkpt lat="42.58112" lon="2.38699">
        <ele>791</ele>
        <time>2013-08-02T15:36:15Z</time>
      </trkpt>
      <trkpt lat="42.5811" lon="2.38701">
        <ele>791</ele>
        <time>2013-08-02T15:36:17Z</time>
      </trkpt>
      <trkpt lat="42.58109" lon="2.38703">
        <ele>791</ele>
        <time>2013-08-02T15:36:19Z</time>
      </trkpt>
      <trkpt lat="42.58107" lon="2.38705">
        <ele>791</ele>
        <time>2013-08-02T15:36:21Z</time>
      </trkpt>
      <trkpt lat="42.58105" lon="2.38707">
        <ele>791</ele>
        <time>2013-08-02T15:36:23Z</time>
      </trkpt>
      <trkpt lat="42.58104" lon="2.38709">
        <ele>791</ele>
        <time>2013-08-02T15:36:25Z</time>
      </trkpt>
      <trkpt lat="42.58102" lon="2.3871">
        <ele>791</ele>
        <time>2013-08-02T15:36:27Z</time>
      </trkpt>
      <trkpt lat="42.58101" lon="2.38712">
        <ele>791</ele>
        <time>2013-08-02T15:36:29Z</time>
      </trkpt>
      <trkpt lat="42.58099" lon="2.38714">
        <ele>791</ele>
        <time>2013-08-02T15:36:31Z</time>
      </trkpt>
      <trkpt lat="42.58097" lon="2.38715">
        <ele>791</ele>
        <time>2013-08-02T15:36:33Z</time>
      </trkpt>
      <trkpt lat="42.58097" lon="2.38717">
        <ele>791</ele>
        <time>2013-08-02T15:36:37Z</time>
      </trkpt>
      <trkpt lat="42.58097" lon="2.38719">
        <ele>791</ele>
        <time>2013-08-02T15:36:39Z</time>
      </trkpt>
      <trkpt lat="42.58095" lon="2.3872">
        <ele>791</ele>
        <time>2013-08-02T15:36:41Z</time>
      </trkpt>
      <trkpt lat="42.58094" lon="2.38722">
        <ele>791</ele>
        <time>2013-08-02T15:36:43Z</time>
      </trkpt>
      <trkpt lat="42.58092" lon="2.38723">
        <ele>791</ele>
        <time>2013-08-02T15:36:45Z</time>
      </trkpt>
      <trkpt lat="42.58091" lon="2.38724">
        <ele>791</ele>
        <time>2013-08-02T15:36:48Z</time>
      </trkpt>
      <trkpt lat="42.5809" lon="2.38726">
        <ele>791</ele>
        <time>2013-08-02T15:36:58Z</time>
      </trkpt>
      <trkpt lat="42.58088" lon="2.38727">
        <ele>791</ele>
        <time>2013-08-02T15:37:00Z</time>
      </trkpt>
      <trkpt lat="42.58087" lon="2.38729">
        <ele>791</ele>
        <time>2013-08-02T15:37:23Z</time>
      </trkpt>
      <trkpt lat="42.58086" lon="2.38731">
        <ele>791</ele>
        <time>2013-08-02T15:37:25Z</time>
      </trkpt>
      <trkpt lat="42.58085" lon="2.38733">
        <ele>791</ele>
        <time>2013-08-02T15:37:27Z</time>
      </trkpt>
      <trkpt lat="42.58085" lon="2.38735">
        <ele>791</ele>
        <time>2013-08-02T15:37:29Z</time>
      </trkpt>
      <trkpt lat="42.58086" lon="2.38738">
        <ele>791</ele>
        <time>2013-08-02T15:37:31Z</time>
      </trkpt>
      <trkpt lat="42.58086" lon="2.38739">
        <ele>791</ele>
        <time>2013-08-02T15:37:33Z</time>
      </trkpt>
      <trkpt lat="42.58086" lon="2.38741">
        <ele>791</ele>
        <time>2013-08-02T15:37:39Z</time>
      </trkpt>
      <trkpt lat="42.58086" lon="2.38743">
        <ele>791</ele>
        <time>2013-08-02T15:37:41Z</time>
      </trkpt>
      <trkpt lat="42.58086" lon="2.38745">
        <ele>791</ele>
        <time>2013-08-02T15:37:43Z</time>
      </trkpt>
      <trkpt lat="42.58085" lon="2.38748">
        <ele>791</ele>
        <time>2013-08-02T15:37:54Z</time>
      </trkpt>
      <trkpt lat="42.58085" lon="2.3875">
        <ele>791</ele>
        <time>2013-08-02T15:37:56Z</time>
      </trkpt>
      <trkpt lat="42.58085" lon="2.38752">
        <ele>791</ele>
        <time>2013-08-02T15:37:58Z</time>
      </trkpt>
      <trkpt lat="42.58084" lon="2.38756">
        <ele>791</ele>
        <time>2013-08-02T15:38:02Z</time>
      </trkpt>
      <trkpt lat="42.58083" lon="2.38758">
        <ele>791</ele>
        <time>2013-08-02T15:38:04Z</time>
      </trkpt>
      <trkpt lat="42.58082" lon="2.3876">
        <ele>791</ele>
        <time>2013-08-02T15:38:07Z</time>
      </trkpt>
      <trkpt lat="42.58081" lon="2.38762">
        <ele>791</ele>
        <time>2013-08-02T15:38:25Z</time>
      </trkpt>
      <trkpt lat="42.58079" lon="2.38763">
        <ele>791</ele>
        <time>2013-08-02T15:38:27Z</time>
      </trkpt>
      <trkpt lat="42.58078" lon="2.38762">
        <ele>791</ele>
        <time>2013-08-02T15:38:29Z</time>
      </trkpt>
      <trkpt lat="42.58077" lon="2.38761">
        <ele>791</ele>
        <time>2013-08-02T15:38:50Z</time>
      </trkpt>
      <trkpt lat="42.58076" lon="2.38759">
        <ele>791</ele>
        <time>2013-08-02T15:38:54Z</time>
      </trkpt>
      <trkpt lat="42.58077" lon="2.38761">
        <ele>792</ele>
        <time>2013-08-02T15:39:12Z</time>
      </trkpt>
      <trkpt lat="42.58076" lon="2.38762">
        <ele>792</ele>
        <time>2013-08-02T15:39:18Z</time>
      </trkpt>
      <trkpt lat="42.58075" lon="2.38764">
        <ele>792</ele>
        <time>2013-08-02T15:39:21Z</time>
      </trkpt>
      <trkpt lat="42.58076" lon="2.38762">
        <ele>792</ele>
        <time>2013-08-02T15:39:31Z</time>
      </trkpt>
      <trkpt lat="42.58077" lon="2.3876">
        <ele>792</ele>
        <time>2013-08-02T15:39:33Z</time>
      </trkpt>
      <trkpt lat="42.58077" lon="2.38759">
        <ele>792</ele>
        <time>2013-08-02T15:39:37Z</time>
      </trkpt>
      <trkpt lat="42.58077" lon="2.38757">
        <ele>792</ele>
        <time>2013-08-02T15:39:44Z</time>
      </trkpt>
      <trkpt lat="42.58076" lon="2.38756">
        <ele>794</ele>
        <time>2013-08-02T15:39:56Z</time>
      </trkpt>
      <trkpt lat="42.58076" lon="2.38758">
        <ele>794</ele>
        <time>2013-08-02T15:41:22Z</time>
      </trkpt>
      <trkpt lat="42.58076" lon="2.38756">
        <ele>794</ele>
        <time>2013-08-02T15:42:33Z</time>
      </trkpt>
      <trkpt lat="42.58075" lon="2.38755">
        <ele>794</ele>
        <time>2013-08-02T15:43:03Z</time>
      </trkpt>
      <trkpt lat="42.58076" lon="2.38757">
        <ele>795</ele>
        <time>2013-08-02T15:45:31Z</time>
      </trkpt>
      <trkpt lat="42.58075" lon="2.38758">
        <ele>795</ele>
        <time>2013-08-02T15:46:09Z</time>
      </trkpt>
      <trkpt lat="42.58075" lon="2.38757">
        <ele>795</ele>
        <time>2013-08-02T15:46:39Z</time>
      </trkpt>
      <trkpt lat="42.58075" lon="2.38759">
        <ele>795</ele>
        <time>2013-08-02T15:46:51Z</time>
      </trkpt>
      <trkpt lat="42.58076" lon="2.3876">
        <ele>795</ele>
        <time>2013-08-02T15:47:02Z</time>
      </trkpt>
      <trkpt lat="42.58075" lon="2.38759">
        <ele>795</ele>
        <time>2013-08-02T15:47:36Z</time>
      </trkpt>
      <trkpt lat="42.58074" lon="2.38758">
        <ele>795</ele>
        <time>2013-08-02T15:48:20Z</time>
      </trkpt>
      <trkpt lat="42.58073" lon="2.38758">
        <ele>795</ele>
        <time>2013-08-02T15:48:49Z</time>
      </trkpt>
      <trkpt lat="42.58074" lon="2.38759">
        <ele>795</ele>
        <time>2013-08-02T15:49:10Z</time>
      </trkpt>
      <trkpt lat="42.58076" lon="2.38758">
        <ele>795</ele>
        <time>2013-08-02T15:49:12Z</time>
      </trkpt>
      <trkpt lat="42.58079" lon="2.38756">
        <ele>795</ele>
        <time>2013-08-02T15:49:15Z</time>
      </trkpt>
      <trkpt lat="42.58081" lon="2.38753">
        <ele>795</ele>
        <time>2013-08-02T15:49:18Z</time>
      </trkpt>
      <trkpt lat="42.58083" lon="2.38751">
        <ele>795</ele>
        <time>2013-08-02T15:49:20Z</time>
      </trkpt>
      <trkpt lat="42.58084" lon="2.38749">
        <ele>795</ele>
        <time>2013-08-02T15:49:22Z</time>
      </trkpt>
      <trkpt lat="42.58087" lon="2.38745">
        <ele>795</ele>
        <time>2013-08-02T15:49:26Z</time>
      </trkpt>
      <trkpt lat="42.58087" lon="2.38742">
        <ele>795</ele>
        <time>2013-08-02T15:49:28Z</time>
      </trkpt>
      <trkpt lat="42.58087" lon="2.3874">
        <ele>795</ele>
        <time>2013-08-02T15:49:30Z</time>
      </trkpt>
      <trkpt lat="42.58085" lon="2.38736">
        <ele>795</ele>
        <time>2013-08-02T15:49:33Z</time>
      </trkpt>
      <trkpt lat="42.58085" lon="2.38734">
        <ele>795</ele>
        <time>2013-08-02T15:49:35Z</time>
      </trkpt>
      <trkpt lat="42.58084" lon="2.38732">
        <ele>796</ele>
        <time>2013-08-02T15:49:37Z</time>
      </trkpt>
      <trkpt lat="42.58082" lon="2.38727">
        <ele>796</ele>
        <time>2013-08-02T15:49:41Z</time>
      </trkpt>
      <trkpt lat="42.58081" lon="2.38725">
        <ele>796</ele>
        <time>2013-08-02T15:49:43Z</time>
      </trkpt>
      <trkpt lat="42.58079" lon="2.38724">
        <ele>796</ele>
        <time>2013-08-02T15:49:45Z</time>
      </trkpt>
      <trkpt lat="42.58077" lon="2.38724">
        <ele>796</ele>
        <time>2013-08-02T15:49:47Z</time>
      </trkpt>
      <trkpt lat="42.58073" lon="2.38724">
        <ele>796</ele>
        <time>2013-08-02T15:49:51Z</time>
      </trkpt>
      <trkpt lat="42.58071" lon="2.38723">
        <ele>796</ele>
        <time>2013-08-02T15:49:53Z</time>
      </trkpt>
      <trkpt lat="42.5807" lon="2.38722">
        <ele>796</ele>
        <time>2013-08-02T15:49:57Z</time>
      </trkpt>
      <trkpt lat="42.58067" lon="2.38718">
        <ele>796</ele>
        <time>2013-08-02T15:50:01Z</time>
      </trkpt>
      <trkpt lat="42.58065" lon="2.38716">
        <ele>796</ele>
        <time>2013-08-02T15:50:03Z</time>
      </trkpt>
      <trkpt lat="42.58064" lon="2.38713">
        <ele>796</ele>
        <time>2013-08-02T15:50:05Z</time>
      </trkpt>
      <trkpt lat="42.58063" lon="2.38711">
        <ele>796</ele>
        <time>2013-08-02T15:50:07Z</time>
      </trkpt>
      <trkpt lat="42.5806" lon="2.38709">
        <ele>796</ele>
        <time>2013-08-02T15:50:10Z</time>
      </trkpt>
      <trkpt lat="42.58058" lon="2.38708">
        <ele>796</ele>
        <time>2013-08-02T15:50:12Z</time>
      </trkpt>
      <trkpt lat="42.58055" lon="2.38706">
        <ele>796</ele>
        <time>2013-08-02T15:50:15Z</time>
      </trkpt>
      <trkpt lat="42.58053" lon="2.38705">
        <ele>796</ele>
        <time>2013-08-02T15:50:17Z</time>
      </trkpt>
      <trkpt lat="42.58048" lon="2.38703">
        <ele>796</ele>
        <time>2013-08-02T15:50:21Z</time>
      </trkpt>
      <trkpt lat="42.58046" lon="2.38702">
        <ele>796</ele>
        <time>2013-08-02T15:50:23Z</time>
      </trkpt>
      <trkpt lat="42.58043" lon="2.387">
        <ele>796</ele>
        <time>2013-08-02T15:50:26Z</time>
      </trkpt>
      <trkpt lat="42.5804" lon="2.387">
        <ele>796</ele>
        <time>2013-08-02T15:50:29Z</time>
      </trkpt>
      <trkpt lat="42.58037" lon="2.38699">
        <ele>796</ele>
        <time>2013-08-02T15:50:31Z</time>
      </trkpt>
      <trkpt lat="42.58035" lon="2.38699">
        <ele>796</ele>
        <time>2013-08-02T15:50:33Z</time>
      </trkpt>
      <trkpt lat="42.58033" lon="2.38699">
        <ele>796</ele>
        <time>2013-08-02T15:50:35Z</time>
      </trkpt>
      <trkpt lat="42.5803" lon="2.38699">
        <ele>796</ele>
        <time>2013-08-02T15:50:37Z</time>
      </trkpt>
      <trkpt lat="42.58027" lon="2.38701">
        <ele>796</ele>
        <time>2013-08-02T15:50:40Z</time>
      </trkpt>
      <trkpt lat="42.58025" lon="2.38702">
        <ele>795</ele>
        <time>2013-08-02T15:50:42Z</time>
      </trkpt>
      <trkpt lat="42.58022" lon="2.38706">
        <ele>795</ele>
        <time>2013-08-02T15:50:46Z</time>
      </trkpt>
      <trkpt lat="42.5802" lon="2.38708">
        <ele>795</ele>
        <time>2013-08-02T15:50:48Z</time>
      </trkpt>
      <trkpt lat="42.58018" lon="2.38711">
        <ele>795</ele>
        <time>2013-08-02T15:50:50Z</time>
      </trkpt>
      <trkpt lat="42.58017" lon="2.38713">
        <ele>795</ele>
        <time>2013-08-02T15:50:52Z</time>
      </trkpt>
      <trkpt lat="42.58015" lon="2.38717">
        <ele>794</ele>
        <time>2013-08-02T15:50:55Z</time>
      </trkpt>
      <trkpt lat="42.58014" lon="2.3872">
        <ele>794</ele>
        <time>2013-08-02T15:50:57Z</time>
      </trkpt>
      <trkpt lat="42.58011" lon="2.38725">
        <ele>793</ele>
        <time>2013-08-02T15:51:01Z</time>
      </trkpt>
      <trkpt lat="42.5801" lon="2.38726">
        <ele>793</ele>
        <time>2013-08-02T15:51:03Z</time>
      </trkpt>
      <trkpt lat="42.58008" lon="2.38731">
        <ele>793</ele>
        <time>2013-08-02T15:51:07Z</time>
      </trkpt>
      <trkpt lat="42.58005" lon="2.38738">
        <ele>792</ele>
        <time>2013-08-02T15:51:12Z</time>
      </trkpt>
      <trkpt lat="42.58001" lon="2.38745">
        <ele>790</ele>
        <time>2013-08-02T15:51:17Z</time>
      </trkpt>
      <trkpt lat="42.57998" lon="2.38752">
        <ele>790</ele>
        <time>2013-08-02T15:51:22Z</time>
      </trkpt>
      <trkpt lat="42.57995" lon="2.38759">
        <ele>790</ele>
        <time>2013-08-02T15:51:27Z</time>
      </trkpt>
      <trkpt lat="42.57993" lon="2.38767">
        <ele>790</ele>
        <time>2013-08-02T15:51:32Z</time>
      </trkpt>
      <trkpt lat="42.57992" lon="2.38774">
        <ele>789</ele>
        <time>2013-08-02T15:51:37Z</time>
      </trkpt>
      <trkpt lat="42.57991" lon="2.38779">
        <ele>788</ele>
        <time>2013-08-02T15:51:42Z</time>
      </trkpt>
      <trkpt lat="42.57989" lon="2.38784">
        <ele>788</ele>
        <time>2013-08-02T15:51:47Z</time>
      </trkpt>
      <trkpt lat="42.57985" lon="2.38791">
        <ele>788</ele>
        <time>2013-08-02T15:51:52Z</time>
      </trkpt>
      <trkpt lat="42.5798" lon="2.38798">
        <ele>788</ele>
        <time>2013-08-02T15:51:57Z</time>
      </trkpt>
      <trkpt lat="42.57976" lon="2.38802">
        <ele>787</ele>
        <time>2013-08-02T15:52:02Z</time>
      </trkpt>
      <trkpt lat="42.57972" lon="2.38807">
        <ele>787</ele>
        <time>2013-08-02T15:52:07Z</time>
      </trkpt>
      <trkpt lat="42.57966" lon="2.38813">
        <ele>786</ele>
        <time>2013-08-02T15:52:13Z</time>
      </trkpt>
      <trkpt lat="42.57963" lon="2.38819">
        <ele>786</ele>
        <time>2013-08-02T15:52:18Z</time>
      </trkpt>
      <trkpt lat="42.57959" lon="2.38825">
        <ele>786</ele>
        <time>2013-08-02T15:52:23Z</time>
      </trkpt>
      <trkpt lat="42.57956" lon="2.38832">
        <ele>785</ele>
        <time>2013-08-02T15:52:28Z</time>
      </trkpt>
      <trkpt lat="42.57952" lon="2.38841">
        <ele>785</ele>
        <time>2013-08-02T15:52:33Z</time>
      </trkpt>
      <trkpt lat="42.57949" lon="2.38847">
        <ele>785</ele>
        <time>2013-08-02T15:52:38Z</time>
      </trkpt>
      <trkpt lat="42.57946" lon="2.38852">
        <ele>784</ele>
        <time>2013-08-02T15:52:43Z</time>
      </trkpt>
      <trkpt lat="42.57943" lon="2.38858">
        <ele>784</ele>
        <time>2013-08-02T15:52:49Z</time>
      </trkpt>
      <trkpt lat="42.57938" lon="2.38863">
        <ele>784</ele>
        <time>2013-08-02T15:52:54Z</time>
      </trkpt>
      <trkpt lat="42.57935" lon="2.38869">
        <ele>784</ele>
        <time>2013-08-02T15:52:59Z</time>
      </trkpt>
      <trkpt lat="42.57931" lon="2.38874">
        <ele>783</ele>
        <time>2013-08-02T15:53:04Z</time>
      </trkpt>
      <trkpt lat="42.57927" lon="2.38879">
        <ele>783</ele>
        <time>2013-08-02T15:53:09Z</time>
      </trkpt>
      <trkpt lat="42.57923" lon="2.38884">
        <ele>782</ele>
        <time>2013-08-02T15:53:14Z</time>
      </trkpt>
      <trkpt lat="42.57918" lon="2.38888">
        <ele>782</ele>
        <time>2013-08-02T15:53:19Z</time>
      </trkpt>
      <trkpt lat="42.57913" lon="2.38894">
        <ele>782</ele>
        <time>2013-08-02T15:53:25Z</time>
      </trkpt>
      <trkpt lat="42.57909" lon="2.38898">
        <ele>781</ele>
        <time>2013-08-02T15:53:30Z</time>
      </trkpt>
      <trkpt lat="42.57904" lon="2.38901">
        <ele>781</ele>
        <time>2013-08-02T15:53:35Z</time>
      </trkpt>
      <trkpt lat="42.579" lon="2.38906">
        <ele>780</ele>
        <time>2013-08-02T15:53:40Z</time>
      </trkpt>
      <trkpt lat="42.57897" lon="2.38909">
        <ele>779</ele>
        <time>2013-08-02T15:53:43Z</time>
      </trkpt>
      <trkpt lat="42.57894" lon="2.38911">
        <ele>779</ele>
        <time>2013-08-02T15:53:46Z</time>
      </trkpt>
      <trkpt lat="42.5789" lon="2.38916">
        <ele>778</ele>
        <time>2013-08-02T15:53:51Z</time>
      </trkpt>
      <trkpt lat="42.57885" lon="2.38922">
        <ele>777</ele>
        <time>2013-08-02T15:53:57Z</time>
      </trkpt>
      <trkpt lat="42.5788" lon="2.38928">
        <ele>777</ele>
        <time>2013-08-02T15:54:02Z</time>
      </trkpt>
      <trkpt lat="42.57877" lon="2.38934">
        <ele>777</ele>
        <time>2013-08-02T15:54:07Z</time>
      </trkpt>
      <trkpt lat="42.57874" lon="2.3894">
        <ele>776</ele>
        <time>2013-08-02T15:54:12Z</time>
      </trkpt>
      <trkpt lat="42.5787" lon="2.38946">
        <ele>775</ele>
        <time>2013-08-02T15:54:17Z</time>
      </trkpt>
      <trkpt lat="42.57866" lon="2.38951">
        <ele>773</ele>
        <time>2013-08-02T15:54:22Z</time>
      </trkpt>
      <trkpt lat="42.57862" lon="2.38958">
        <ele>773</ele>
        <time>2013-08-02T15:54:28Z</time>
      </trkpt>
      <trkpt lat="42.5786" lon="2.38966">
        <ele>773</ele>
        <time>2013-08-02T15:54:33Z</time>
      </trkpt>
      <trkpt lat="42.57857" lon="2.38973">
        <ele>773</ele>
        <time>2013-08-02T15:54:38Z</time>
      </trkpt>
      <trkpt lat="42.57855" lon="2.3898">
        <ele>773</ele>
        <time>2013-08-02T15:54:43Z</time>
      </trkpt>
      <trkpt lat="42.57853" lon="2.38986">
        <ele>773</ele>
        <time>2013-08-02T15:54:47Z</time>
      </trkpt>
      <trkpt lat="42.57851" lon="2.3899">
        <ele>773</ele>
        <time>2013-08-02T15:54:51Z</time>
      </trkpt>
      <trkpt lat="42.57846" lon="2.38996">
        <ele>773</ele>
        <time>2013-08-02T15:54:57Z</time>
      </trkpt>
      <trkpt lat="42.57842" lon="2.39">
        <ele>773</ele>
        <time>2013-08-02T15:55:00Z</time>
      </trkpt>
      <trkpt lat="42.5784" lon="2.39002">
        <ele>773</ele>
        <time>2013-08-02T15:55:03Z</time>
      </trkpt>
      <trkpt lat="42.57838" lon="2.39004">
        <ele>773</ele>
        <time>2013-08-02T15:55:05Z</time>
      </trkpt>
      <trkpt lat="42.57834" lon="2.39007">
        <ele>773</ele>
        <time>2013-08-02T15:55:09Z</time>
      </trkpt>
      <trkpt lat="42.57831" lon="2.3901">
        <ele>773</ele>
        <time>2013-08-02T15:55:12Z</time>
      </trkpt>
      <trkpt lat="42.57827" lon="2.39014">
        <ele>772</ele>
        <time>2013-08-02T15:55:16Z</time>
      </trkpt>
      <trkpt lat="42.57824" lon="2.39017">
        <ele>771</ele>
        <time>2013-08-02T15:55:21Z</time>
      </trkpt>
      <trkpt lat="42.57821" lon="2.39022">
        <ele>771</ele>
        <time>2013-08-02T15:55:25Z</time>
      </trkpt>
      <trkpt lat="42.57817" lon="2.39025">
        <ele>770</ele>
        <time>2013-08-02T15:55:29Z</time>
      </trkpt>
      <trkpt lat="42.57814" lon="2.39028">
        <ele>770</ele>
        <time>2013-08-02T15:55:33Z</time>
      </trkpt>
      <trkpt lat="42.57812" lon="2.39032">
        <ele>768</ele>
        <time>2013-08-02T15:55:38Z</time>
      </trkpt>
      <trkpt lat="42.5781" lon="2.39037">
        <ele>768</ele>
        <time>2013-08-02T15:55:42Z</time>
      </trkpt>
      <trkpt lat="42.57807" lon="2.39041">
        <ele>768</ele>
        <time>2013-08-02T15:55:47Z</time>
      </trkpt>
      <trkpt lat="42.57803" lon="2.39046">
        <ele>768</ele>
        <time>2013-08-02T15:55:51Z</time>
      </trkpt>
      <trkpt lat="42.57801" lon="2.39051">
        <ele>767</ele>
        <time>2013-08-02T15:55:55Z</time>
      </trkpt>
      <trkpt lat="42.57799" lon="2.39054">
        <ele>767</ele>
        <time>2013-08-02T15:55:59Z</time>
      </trkpt>
      <trkpt lat="42.57795" lon="2.39058">
        <ele>767</ele>
        <time>2013-08-02T15:56:05Z</time>
      </trkpt>
      <trkpt lat="42.57792" lon="2.39064">
        <ele>766</ele>
        <time>2013-08-02T15:56:08Z</time>
      </trkpt>
      <trkpt lat="42.5779" lon="2.39066">
        <ele>766</ele>
        <time>2013-08-02T15:56:11Z</time>
      </trkpt>
      <trkpt lat="42.57788" lon="2.39067">
        <ele>766</ele>
        <time>2013-08-02T15:56:13Z</time>
      </trkpt>
      <trkpt lat="42.57785" lon="2.39071">
        <ele>765</ele>
        <time>2013-08-02T15:56:17Z</time>
      </trkpt>
      <trkpt lat="42.57782" lon="2.39075">
        <ele>765</ele>
        <time>2013-08-02T15:56:21Z</time>
      </trkpt>
      <trkpt lat="42.57779" lon="2.39078">
        <ele>764</ele>
        <time>2013-08-02T15:56:25Z</time>
      </trkpt>
      <trkpt lat="42.57774" lon="2.39082">
        <ele>763</ele>
        <time>2013-08-02T15:56:29Z</time>
      </trkpt>
      <trkpt lat="42.57772" lon="2.39084">
        <ele>763</ele>
        <time>2013-08-02T15:56:32Z</time>
      </trkpt>
      <trkpt lat="42.57768" lon="2.39087">
        <ele>763</ele>
        <time>2013-08-02T15:56:36Z</time>
      </trkpt>
      <trkpt lat="42.57765" lon="2.39089">
        <ele>762</ele>
        <time>2013-08-02T15:56:39Z</time>
      </trkpt>
      <trkpt lat="42.57762" lon="2.39093">
        <ele>762</ele>
        <time>2013-08-02T15:56:43Z</time>
      </trkpt>
      <trkpt lat="42.57758" lon="2.39097">
        <ele>761</ele>
        <time>2013-08-02T15:56:46Z</time>
      </trkpt>
      <trkpt lat="42.57757" lon="2.39099">
        <ele>761</ele>
        <time>2013-08-02T15:56:48Z</time>
      </trkpt>
      <trkpt lat="42.57755" lon="2.39101">
        <ele>761</ele>
        <time>2013-08-02T15:56:51Z</time>
      </trkpt>
      <trkpt lat="42.57752" lon="2.39105">
        <ele>761</ele>
        <time>2013-08-02T15:56:55Z</time>
      </trkpt>
      <trkpt lat="42.5775" lon="2.39106">
        <ele>760</ele>
        <time>2013-08-02T15:57:01Z</time>
      </trkpt>
      <trkpt lat="42.56489" lon="2.38855">
        <ele>600</ele>
        <time>2013-08-02T15:57:09Z</time>
      </trkpt>
      <trkpt lat="42.56489" lon="2.38855">
        <ele>600</ele>
        <time>2013-08-02T15:57:10Z</time>
      </trkpt>
    </trkseg>
  </trk>
</gpx>